<?xml version="1.0" encoding="UTF-8" standalone="no" ?>
<gpx xmlns="http://www.topografix.com/GPX/1/1" xmlns:xsi="http://www.w3.org/2001/XMLSchema-instance" xsi:schemaLocation="http://www.topografix.com/GPX/1/1 http://www.topografix.com/GPX/1/1/gpx.xsd" version="1.1" creator="VisuGPX - https://www.visugpx.com">
  <metadata>
    <name>vtt besancon chapelle des buis</name>
    <desc><![CDATA[boucle par le belvedere de montfaucon et la chapelle des buis]]></desc>
  </metadata>
  <trk>
    <name><![CDATA[Tracé actuel: 15 JUIL 2018 09:18]]></name>
    <trkseg>
      <trkpt lat="47.26118" lon="6.04232">
        <ele>308.24</ele>
        <time>2018-07-15T07:18:08Z</time>
      </trkpt>
      <trkpt lat="47.26119" lon="6.04232">
        <ele>309.68</ele>
        <time>2018-07-15T07:18:11Z</time>
      </trkpt>
      <trkpt lat="47.26119" lon="6.04232">
        <ele>311.6</ele>
        <time>2018-07-15T07:18:14Z</time>
      </trkpt>
      <trkpt lat="47.26117" lon="6.04233">
        <ele>313.05</ele>
        <time>2018-07-15T07:18:18Z</time>
      </trkpt>
      <trkpt lat="47.26112" lon="6.04231">
        <ele>315.93</ele>
        <time>2018-07-15T07:18:23Z</time>
      </trkpt>
      <trkpt lat="47.26108" lon="6.04231">
        <ele>317.85</ele>
        <time>2018-07-15T07:18:34Z</time>
      </trkpt>
      <trkpt lat="47.2611" lon="6.04233">
        <ele>317.85</ele>
        <time>2018-07-15T07:18:37Z</time>
      </trkpt>
      <trkpt lat="47.26122" lon="6.04255">
        <ele>319.3</ele>
        <time>2018-07-15T07:18:49Z</time>
      </trkpt>
      <trkpt lat="47.26146" lon="6.04296">
        <ele>321.22</ele>
        <time>2018-07-15T07:19:04Z</time>
      </trkpt>
      <trkpt lat="47.26171" lon="6.04337">
        <ele>322.18</ele>
        <time>2018-07-15T07:19:17Z</time>
      </trkpt>
      <trkpt lat="47.26177" lon="6.04355">
        <ele>322.66</ele>
        <time>2018-07-15T07:19:22Z</time>
      </trkpt>
      <trkpt lat="47.26203" lon="6.04397">
        <ele>323.62</ele>
        <time>2018-07-15T07:19:35Z</time>
      </trkpt>
      <trkpt lat="47.26203" lon="6.04421">
        <ele>322.66</ele>
        <time>2018-07-15T07:19:40Z</time>
      </trkpt>
      <trkpt lat="47.26202" lon="6.04427">
        <ele>322.66</ele>
        <time>2018-07-15T07:19:41Z</time>
      </trkpt>
      <trkpt lat="47.26202" lon="6.04433">
        <ele>322.18</ele>
        <time>2018-07-15T07:19:42Z</time>
      </trkpt>
      <trkpt lat="47.26202" lon="6.04439">
        <ele>322.18</ele>
        <time>2018-07-15T07:19:43Z</time>
      </trkpt>
      <trkpt lat="47.26202" lon="6.04446">
        <ele>322.18</ele>
        <time>2018-07-15T07:19:44Z</time>
      </trkpt>
      <trkpt lat="47.26203" lon="6.04465">
        <ele>321.7</ele>
        <time>2018-07-15T07:19:47Z</time>
      </trkpt>
      <trkpt lat="47.26203" lon="6.04472">
        <ele>321.7</ele>
        <time>2018-07-15T07:19:48Z</time>
      </trkpt>
      <trkpt lat="47.26209" lon="6.04542">
        <ele>321.22</ele>
        <time>2018-07-15T07:19:59Z</time>
      </trkpt>
      <trkpt lat="47.2621" lon="6.04562">
        <ele>320.74</ele>
        <time>2018-07-15T07:20:02Z</time>
      </trkpt>
      <trkpt lat="47.2621" lon="6.04569">
        <ele>320.74</ele>
        <time>2018-07-15T07:20:03Z</time>
      </trkpt>
      <trkpt lat="47.2621" lon="6.04603">
        <ele>320.74</ele>
        <time>2018-07-15T07:20:08Z</time>
      </trkpt>
      <trkpt lat="47.26213" lon="6.04616">
        <ele>320.74</ele>
        <time>2018-07-15T07:20:10Z</time>
      </trkpt>
      <trkpt lat="47.26213" lon="6.04622">
        <ele>320.26</ele>
        <time>2018-07-15T07:20:11Z</time>
      </trkpt>
      <trkpt lat="47.26221" lon="6.04742">
        <ele>319.78</ele>
        <time>2018-07-15T07:20:30Z</time>
      </trkpt>
      <trkpt lat="47.26222" lon="6.04816">
        <ele>319.3</ele>
        <time>2018-07-15T07:20:42Z</time>
      </trkpt>
      <trkpt lat="47.26221" lon="6.04821">
        <ele>318.81</ele>
        <time>2018-07-15T07:20:43Z</time>
      </trkpt>
      <trkpt lat="47.26218" lon="6.04826">
        <ele>319.3</ele>
        <time>2018-07-15T07:20:44Z</time>
      </trkpt>
      <trkpt lat="47.26216" lon="6.04832">
        <ele>319.3</ele>
        <time>2018-07-15T07:20:45Z</time>
      </trkpt>
      <trkpt lat="47.26212" lon="6.04838">
        <ele>318.81</ele>
        <time>2018-07-15T07:20:46Z</time>
      </trkpt>
      <trkpt lat="47.26197" lon="6.04866">
        <ele>317.85</ele>
        <time>2018-07-15T07:20:50Z</time>
      </trkpt>
      <trkpt lat="47.26194" lon="6.04874">
        <ele>317.37</ele>
        <time>2018-07-15T07:20:51Z</time>
      </trkpt>
      <trkpt lat="47.26193" lon="6.04882">
        <ele>317.37</ele>
        <time>2018-07-15T07:20:52Z</time>
      </trkpt>
      <trkpt lat="47.26192" lon="6.04889">
        <ele>317.37</ele>
        <time>2018-07-15T07:20:53Z</time>
      </trkpt>
      <trkpt lat="47.26192" lon="6.04896">
        <ele>317.37</ele>
        <time>2018-07-15T07:20:54Z</time>
      </trkpt>
      <trkpt lat="47.26193" lon="6.04904">
        <ele>317.37</ele>
        <time>2018-07-15T07:20:55Z</time>
      </trkpt>
      <trkpt lat="47.26196" lon="6.0491">
        <ele>316.89</ele>
        <time>2018-07-15T07:20:56Z</time>
      </trkpt>
      <trkpt lat="47.26198" lon="6.04916">
        <ele>316.89</ele>
        <time>2018-07-15T07:20:57Z</time>
      </trkpt>
      <trkpt lat="47.26201" lon="6.0492">
        <ele>316.89</ele>
        <time>2018-07-15T07:20:58Z</time>
      </trkpt>
      <trkpt lat="47.26203" lon="6.04925">
        <ele>316.89</ele>
        <time>2018-07-15T07:20:59Z</time>
      </trkpt>
      <trkpt lat="47.26203" lon="6.04929">
        <ele>317.37</ele>
        <time>2018-07-15T07:21:00Z</time>
      </trkpt>
      <trkpt lat="47.26201" lon="6.04933">
        <ele>316.89</ele>
        <time>2018-07-15T07:21:01Z</time>
      </trkpt>
      <trkpt lat="47.26198" lon="6.04936">
        <ele>317.37</ele>
        <time>2018-07-15T07:21:02Z</time>
      </trkpt>
      <trkpt lat="47.26195" lon="6.04939">
        <ele>317.37</ele>
        <time>2018-07-15T07:21:03Z</time>
      </trkpt>
      <trkpt lat="47.26193" lon="6.04942">
        <ele>317.37</ele>
        <time>2018-07-15T07:21:04Z</time>
      </trkpt>
      <trkpt lat="47.26191" lon="6.04946">
        <ele>316.89</ele>
        <time>2018-07-15T07:21:05Z</time>
      </trkpt>
      <trkpt lat="47.26192" lon="6.0495">
        <ele>316.89</ele>
        <time>2018-07-15T07:21:06Z</time>
      </trkpt>
      <trkpt lat="47.26193" lon="6.04954">
        <ele>316.89</ele>
        <time>2018-07-15T07:21:07Z</time>
      </trkpt>
      <trkpt lat="47.26193" lon="6.04974">
        <ele>316.89</ele>
        <time>2018-07-15T07:21:11Z</time>
      </trkpt>
      <trkpt lat="47.2619" lon="6.04977">
        <ele>316.89</ele>
        <time>2018-07-15T07:21:12Z</time>
      </trkpt>
      <trkpt lat="47.26187" lon="6.0498">
        <ele>316.89</ele>
        <time>2018-07-15T07:21:13Z</time>
      </trkpt>
      <trkpt lat="47.26152" lon="6.05019">
        <ele>319.3</ele>
        <time>2018-07-15T07:21:26Z</time>
      </trkpt>
      <trkpt lat="47.26119" lon="6.05084">
        <ele>320.26</ele>
        <time>2018-07-15T07:21:42Z</time>
      </trkpt>
      <trkpt lat="47.26093" lon="6.05134">
        <ele>322.66</ele>
        <time>2018-07-15T07:21:56Z</time>
      </trkpt>
      <trkpt lat="47.26091" lon="6.05134">
        <ele>323.14</ele>
        <time>2018-07-15T07:21:57Z</time>
      </trkpt>
      <trkpt lat="47.26054" lon="6.05132">
        <ele>325.06</ele>
        <time>2018-07-15T07:22:10Z</time>
      </trkpt>
      <trkpt lat="47.26034" lon="6.05146">
        <ele>326.5</ele>
        <time>2018-07-15T07:22:18Z</time>
      </trkpt>
      <trkpt lat="47.26034" lon="6.0515">
        <ele>326.99</ele>
        <time>2018-07-15T07:22:19Z</time>
      </trkpt>
      <trkpt lat="47.26035" lon="6.05154">
        <ele>326.99</ele>
        <time>2018-07-15T07:22:20Z</time>
      </trkpt>
      <trkpt lat="47.26036" lon="6.05158">
        <ele>327.47</ele>
        <time>2018-07-15T07:22:21Z</time>
      </trkpt>
      <trkpt lat="47.26038" lon="6.0516">
        <ele>327.95</ele>
        <time>2018-07-15T07:22:22Z</time>
      </trkpt>
      <trkpt lat="47.2604" lon="6.05161">
        <ele>328.43</ele>
        <time>2018-07-15T07:22:23Z</time>
      </trkpt>
      <trkpt lat="47.26042" lon="6.05162">
        <ele>328.91</ele>
        <time>2018-07-15T07:22:24Z</time>
      </trkpt>
      <trkpt lat="47.26045" lon="6.05163">
        <ele>328.91</ele>
        <time>2018-07-15T07:22:25Z</time>
      </trkpt>
      <trkpt lat="47.26075" lon="6.05184">
        <ele>330.83</ele>
        <time>2018-07-15T07:22:39Z</time>
      </trkpt>
      <trkpt lat="47.26076" lon="6.05187">
        <ele>331.31</ele>
        <time>2018-07-15T07:22:40Z</time>
      </trkpt>
      <trkpt lat="47.26078" lon="6.05204">
        <ele>332.75</ele>
        <time>2018-07-15T07:22:46Z</time>
      </trkpt>
      <trkpt lat="47.26077" lon="6.05206">
        <ele>332.75</ele>
        <time>2018-07-15T07:22:47Z</time>
      </trkpt>
      <trkpt lat="47.26076" lon="6.05208">
        <ele>332.75</ele>
        <time>2018-07-15T07:22:48Z</time>
      </trkpt>
      <trkpt lat="47.26075" lon="6.05211">
        <ele>333.23</ele>
        <time>2018-07-15T07:22:49Z</time>
      </trkpt>
      <trkpt lat="47.26074" lon="6.05212">
        <ele>333.23</ele>
        <time>2018-07-15T07:22:50Z</time>
      </trkpt>
      <trkpt lat="47.26072" lon="6.05214">
        <ele>333.71</ele>
        <time>2018-07-15T07:22:51Z</time>
      </trkpt>
      <trkpt lat="47.2607" lon="6.05215">
        <ele>333.71</ele>
        <time>2018-07-15T07:22:52Z</time>
      </trkpt>
      <trkpt lat="47.26068" lon="6.05215">
        <ele>333.71</ele>
        <time>2018-07-15T07:22:53Z</time>
      </trkpt>
      <trkpt lat="47.26066" lon="6.05215">
        <ele>334.2</ele>
        <time>2018-07-15T07:22:54Z</time>
      </trkpt>
      <trkpt lat="47.26065" lon="6.05215">
        <ele>334.2</ele>
        <time>2018-07-15T07:22:55Z</time>
      </trkpt>
      <trkpt lat="47.26063" lon="6.05215">
        <ele>334.68</ele>
        <time>2018-07-15T07:22:56Z</time>
      </trkpt>
      <trkpt lat="47.26033" lon="6.05206">
        <ele>336.12</ele>
        <time>2018-07-15T07:23:09Z</time>
      </trkpt>
      <trkpt lat="47.26006" lon="6.052">
        <ele>338.04</ele>
        <time>2018-07-15T07:23:21Z</time>
      </trkpt>
      <trkpt lat="47.25984" lon="6.05206">
        <ele>340.44</ele>
        <time>2018-07-15T07:23:32Z</time>
      </trkpt>
      <trkpt lat="47.25949" lon="6.05216">
        <ele>342.37</ele>
        <time>2018-07-15T07:23:45Z</time>
      </trkpt>
      <trkpt lat="47.25912" lon="6.05236">
        <ele>344.29</ele>
        <time>2018-07-15T07:24:00Z</time>
      </trkpt>
      <trkpt lat="47.25887" lon="6.05281">
        <ele>347.65</ele>
        <time>2018-07-15T07:24:15Z</time>
      </trkpt>
      <trkpt lat="47.25873" lon="6.05332">
        <ele>350.06</ele>
        <time>2018-07-15T07:24:29Z</time>
      </trkpt>
      <trkpt lat="47.25863" lon="6.05403">
        <ele>351.02</ele>
        <time>2018-07-15T07:24:45Z</time>
      </trkpt>
      <trkpt lat="47.25848" lon="6.05489">
        <ele>350.54</ele>
        <time>2018-07-15T07:25:01Z</time>
      </trkpt>
      <trkpt lat="47.25847" lon="6.055">
        <ele>350.54</ele>
        <time>2018-07-15T07:25:03Z</time>
      </trkpt>
      <trkpt lat="47.25847" lon="6.05506">
        <ele>350.54</ele>
        <time>2018-07-15T07:25:04Z</time>
      </trkpt>
      <trkpt lat="47.25847" lon="6.05516">
        <ele>350.54</ele>
        <time>2018-07-15T07:25:08Z</time>
      </trkpt>
      <trkpt lat="47.25848" lon="6.05517">
        <ele>350.54</ele>
        <time>2018-07-15T07:25:09Z</time>
      </trkpt>
      <trkpt lat="47.2585" lon="6.05519">
        <ele>350.54</ele>
        <time>2018-07-15T07:25:10Z</time>
      </trkpt>
      <trkpt lat="47.25853" lon="6.05521">
        <ele>351.02</ele>
        <time>2018-07-15T07:25:12Z</time>
      </trkpt>
      <trkpt lat="47.25854" lon="6.05522">
        <ele>350.54</ele>
        <time>2018-07-15T07:25:13Z</time>
      </trkpt>
      <trkpt lat="47.25856" lon="6.05524">
        <ele>350.54</ele>
        <time>2018-07-15T07:25:14Z</time>
      </trkpt>
      <trkpt lat="47.25858" lon="6.05526">
        <ele>350.54</ele>
        <time>2018-07-15T07:25:15Z</time>
      </trkpt>
      <trkpt lat="47.2586" lon="6.05528">
        <ele>351.02</ele>
        <time>2018-07-15T07:25:16Z</time>
      </trkpt>
      <trkpt lat="47.25862" lon="6.05529">
        <ele>351.02</ele>
        <time>2018-07-15T07:25:17Z</time>
      </trkpt>
      <trkpt lat="47.25861" lon="6.05531">
        <ele>351.02</ele>
        <time>2018-07-15T07:25:19Z</time>
      </trkpt>
      <trkpt lat="47.2586" lon="6.05531">
        <ele>350.54</ele>
        <time>2018-07-15T07:25:20Z</time>
      </trkpt>
      <trkpt lat="47.25857" lon="6.05532">
        <ele>350.54</ele>
        <time>2018-07-15T07:25:21Z</time>
      </trkpt>
      <trkpt lat="47.25855" lon="6.05534">
        <ele>350.54</ele>
        <time>2018-07-15T07:25:22Z</time>
      </trkpt>
      <trkpt lat="47.25853" lon="6.05536">
        <ele>350.54</ele>
        <time>2018-07-15T07:25:23Z</time>
      </trkpt>
      <trkpt lat="47.2583" lon="6.05558">
        <ele>349.1</ele>
        <time>2018-07-15T07:25:32Z</time>
      </trkpt>
      <trkpt lat="47.25802" lon="6.05593">
        <ele>348.13</ele>
        <time>2018-07-15T07:25:40Z</time>
      </trkpt>
      <trkpt lat="47.25798" lon="6.05597">
        <ele>348.13</ele>
        <time>2018-07-15T07:25:41Z</time>
      </trkpt>
      <trkpt lat="47.25794" lon="6.056">
        <ele>348.13</ele>
        <time>2018-07-15T07:25:42Z</time>
      </trkpt>
      <trkpt lat="47.25791" lon="6.05603">
        <ele>348.13</ele>
        <time>2018-07-15T07:25:43Z</time>
      </trkpt>
      <trkpt lat="47.25787" lon="6.05607">
        <ele>348.13</ele>
        <time>2018-07-15T07:25:44Z</time>
      </trkpt>
      <trkpt lat="47.25783" lon="6.05609">
        <ele>347.65</ele>
        <time>2018-07-15T07:25:45Z</time>
      </trkpt>
      <trkpt lat="47.25779" lon="6.05611">
        <ele>348.13</ele>
        <time>2018-07-15T07:25:46Z</time>
      </trkpt>
      <trkpt lat="47.25744" lon="6.05635">
        <ele>347.65</ele>
        <time>2018-07-15T07:25:56Z</time>
      </trkpt>
      <trkpt lat="47.25702" lon="6.05659">
        <ele>347.17</ele>
        <time>2018-07-15T07:26:07Z</time>
      </trkpt>
      <trkpt lat="47.25698" lon="6.05661">
        <ele>347.65</ele>
        <time>2018-07-15T07:26:08Z</time>
      </trkpt>
      <trkpt lat="47.25681" lon="6.05677">
        <ele>347.17</ele>
        <time>2018-07-15T07:26:12Z</time>
      </trkpt>
      <trkpt lat="47.25677" lon="6.05681">
        <ele>346.69</ele>
        <time>2018-07-15T07:26:13Z</time>
      </trkpt>
      <trkpt lat="47.25674" lon="6.05685">
        <ele>347.17</ele>
        <time>2018-07-15T07:26:14Z</time>
      </trkpt>
      <trkpt lat="47.25667" lon="6.05692">
        <ele>346.69</ele>
        <time>2018-07-15T07:26:16Z</time>
      </trkpt>
      <trkpt lat="47.25646" lon="6.05705">
        <ele>346.69</ele>
        <time>2018-07-15T07:26:22Z</time>
      </trkpt>
      <trkpt lat="47.25609" lon="6.05717">
        <ele>346.21</ele>
        <time>2018-07-15T07:26:31Z</time>
      </trkpt>
      <trkpt lat="47.25586" lon="6.05729">
        <ele>346.21</ele>
        <time>2018-07-15T07:26:36Z</time>
      </trkpt>
      <trkpt lat="47.25581" lon="6.05732">
        <ele>346.21</ele>
        <time>2018-07-15T07:26:37Z</time>
      </trkpt>
      <trkpt lat="47.25577" lon="6.05734">
        <ele>345.73</ele>
        <time>2018-07-15T07:26:38Z</time>
      </trkpt>
      <trkpt lat="47.25573" lon="6.05736">
        <ele>345.73</ele>
        <time>2018-07-15T07:26:39Z</time>
      </trkpt>
      <trkpt lat="47.25569" lon="6.05737">
        <ele>345.73</ele>
        <time>2018-07-15T07:26:40Z</time>
      </trkpt>
      <trkpt lat="47.25565" lon="6.05739">
        <ele>345.73</ele>
        <time>2018-07-15T07:26:41Z</time>
      </trkpt>
      <trkpt lat="47.25562" lon="6.05741">
        <ele>345.25</ele>
        <time>2018-07-15T07:26:42Z</time>
      </trkpt>
      <trkpt lat="47.25558" lon="6.05743">
        <ele>345.25</ele>
        <time>2018-07-15T07:26:43Z</time>
      </trkpt>
      <trkpt lat="47.25555" lon="6.05745">
        <ele>345.25</ele>
        <time>2018-07-15T07:26:44Z</time>
      </trkpt>
      <trkpt lat="47.25551" lon="6.05747">
        <ele>345.25</ele>
        <time>2018-07-15T07:26:45Z</time>
      </trkpt>
      <trkpt lat="47.25548" lon="6.0575">
        <ele>344.77</ele>
        <time>2018-07-15T07:26:46Z</time>
      </trkpt>
      <trkpt lat="47.25516" lon="6.05773">
        <ele>343.81</ele>
        <time>2018-07-15T07:26:56Z</time>
      </trkpt>
      <trkpt lat="47.255" lon="6.05784">
        <ele>343.33</ele>
        <time>2018-07-15T07:27:01Z</time>
      </trkpt>
      <trkpt lat="47.25495" lon="6.05789">
        <ele>343.33</ele>
        <time>2018-07-15T07:27:02Z</time>
      </trkpt>
      <trkpt lat="47.25481" lon="6.05801">
        <ele>342.85</ele>
        <time>2018-07-15T07:27:05Z</time>
      </trkpt>
      <trkpt lat="47.25477" lon="6.05805">
        <ele>342.37</ele>
        <time>2018-07-15T07:27:06Z</time>
      </trkpt>
      <trkpt lat="47.25473" lon="6.05808">
        <ele>342.37</ele>
        <time>2018-07-15T07:27:07Z</time>
      </trkpt>
      <trkpt lat="47.25469" lon="6.05812">
        <ele>342.37</ele>
        <time>2018-07-15T07:27:08Z</time>
      </trkpt>
      <trkpt lat="47.25457" lon="6.0582">
        <ele>341.89</ele>
        <time>2018-07-15T07:27:11Z</time>
      </trkpt>
      <trkpt lat="47.25453" lon="6.05822">
        <ele>341.41</ele>
        <time>2018-07-15T07:27:12Z</time>
      </trkpt>
      <trkpt lat="47.25449" lon="6.05825">
        <ele>340.92</ele>
        <time>2018-07-15T07:27:13Z</time>
      </trkpt>
      <trkpt lat="47.25446" lon="6.05829">
        <ele>340.92</ele>
        <time>2018-07-15T07:27:14Z</time>
      </trkpt>
      <trkpt lat="47.25444" lon="6.05833">
        <ele>340.92</ele>
        <time>2018-07-15T07:27:15Z</time>
      </trkpt>
      <trkpt lat="47.25425" lon="6.05877">
        <ele>339.96</ele>
        <time>2018-07-15T07:27:24Z</time>
      </trkpt>
      <trkpt lat="47.254" lon="6.0594">
        <ele>339.96</ele>
        <time>2018-07-15T07:27:33Z</time>
      </trkpt>
      <trkpt lat="47.2538" lon="6.05982">
        <ele>339.48</ele>
        <time>2018-07-15T07:27:42Z</time>
      </trkpt>
      <trkpt lat="47.25364" lon="6.06006">
        <ele>339</ele>
        <time>2018-07-15T07:27:47Z</time>
      </trkpt>
      <trkpt lat="47.25362" lon="6.06012">
        <ele>339</ele>
        <time>2018-07-15T07:27:48Z</time>
      </trkpt>
      <trkpt lat="47.2536" lon="6.06018">
        <ele>339</ele>
        <time>2018-07-15T07:27:49Z</time>
      </trkpt>
      <trkpt lat="47.25358" lon="6.06024">
        <ele>338.52</ele>
        <time>2018-07-15T07:27:50Z</time>
      </trkpt>
      <trkpt lat="47.25357" lon="6.06029">
        <ele>338.52</ele>
        <time>2018-07-15T07:27:51Z</time>
      </trkpt>
      <trkpt lat="47.25356" lon="6.06032">
        <ele>339</ele>
        <time>2018-07-15T07:27:52Z</time>
      </trkpt>
      <trkpt lat="47.25355" lon="6.06036">
        <ele>339</ele>
        <time>2018-07-15T07:27:53Z</time>
      </trkpt>
      <trkpt lat="47.25354" lon="6.0604">
        <ele>339</ele>
        <time>2018-07-15T07:27:54Z</time>
      </trkpt>
      <trkpt lat="47.25354" lon="6.06043">
        <ele>339</ele>
        <time>2018-07-15T07:27:55Z</time>
      </trkpt>
      <trkpt lat="47.25354" lon="6.06045">
        <ele>339.48</ele>
        <time>2018-07-15T07:27:56Z</time>
      </trkpt>
      <trkpt lat="47.25354" lon="6.06047">
        <ele>339.48</ele>
        <time>2018-07-15T07:27:57Z</time>
      </trkpt>
      <trkpt lat="47.25355" lon="6.0605">
        <ele>339.48</ele>
        <time>2018-07-15T07:27:58Z</time>
      </trkpt>
      <trkpt lat="47.25358" lon="6.06053">
        <ele>339.48</ele>
        <time>2018-07-15T07:27:59Z</time>
      </trkpt>
      <trkpt lat="47.2536" lon="6.06056">
        <ele>339.48</ele>
        <time>2018-07-15T07:28:00Z</time>
      </trkpt>
      <trkpt lat="47.25362" lon="6.0606">
        <ele>339.48</ele>
        <time>2018-07-15T07:28:01Z</time>
      </trkpt>
      <trkpt lat="47.25364" lon="6.06062">
        <ele>339.96</ele>
        <time>2018-07-15T07:28:02Z</time>
      </trkpt>
      <trkpt lat="47.25378" lon="6.06091">
        <ele>340.92</ele>
        <time>2018-07-15T07:28:11Z</time>
      </trkpt>
      <trkpt lat="47.2539" lon="6.06122">
        <ele>340.92</ele>
        <time>2018-07-15T07:28:18Z</time>
      </trkpt>
      <trkpt lat="47.25391" lon="6.06145">
        <ele>341.41</ele>
        <time>2018-07-15T07:28:23Z</time>
      </trkpt>
      <trkpt lat="47.25391" lon="6.06149">
        <ele>341.41</ele>
        <time>2018-07-15T07:28:24Z</time>
      </trkpt>
      <trkpt lat="47.25391" lon="6.06153">
        <ele>341.41</ele>
        <time>2018-07-15T07:28:25Z</time>
      </trkpt>
      <trkpt lat="47.25391" lon="6.06157">
        <ele>341.41</ele>
        <time>2018-07-15T07:28:26Z</time>
      </trkpt>
      <trkpt lat="47.25392" lon="6.06161">
        <ele>341.41</ele>
        <time>2018-07-15T07:28:27Z</time>
      </trkpt>
      <trkpt lat="47.25392" lon="6.06172">
        <ele>341.89</ele>
        <time>2018-07-15T07:28:30Z</time>
      </trkpt>
      <trkpt lat="47.2539" lon="6.06174">
        <ele>341.89</ele>
        <time>2018-07-15T07:28:31Z</time>
      </trkpt>
      <trkpt lat="47.25365" lon="6.06204">
        <ele>341.89</ele>
        <time>2018-07-15T07:28:42Z</time>
      </trkpt>
      <trkpt lat="47.25345" lon="6.06233">
        <ele>342.37</ele>
        <time>2018-07-15T07:28:52Z</time>
      </trkpt>
      <trkpt lat="47.25325" lon="6.06259">
        <ele>342.85</ele>
        <time>2018-07-15T07:29:01Z</time>
      </trkpt>
      <trkpt lat="47.25303" lon="6.06282">
        <ele>343.81</ele>
        <time>2018-07-15T07:29:11Z</time>
      </trkpt>
      <trkpt lat="47.25299" lon="6.06288">
        <ele>344.29</ele>
        <time>2018-07-15T07:29:14Z</time>
      </trkpt>
      <trkpt lat="47.2531" lon="6.06332">
        <ele>344.29</ele>
        <time>2018-07-15T07:29:24Z</time>
      </trkpt>
      <trkpt lat="47.25329" lon="6.06391">
        <ele>344.77</ele>
        <time>2018-07-15T07:29:37Z</time>
      </trkpt>
      <trkpt lat="47.25332" lon="6.06409">
        <ele>345.25</ele>
        <time>2018-07-15T07:29:45Z</time>
      </trkpt>
      <trkpt lat="47.25332" lon="6.0641">
        <ele>345.25</ele>
        <time>2018-07-15T07:29:46Z</time>
      </trkpt>
      <trkpt lat="47.25331" lon="6.06413">
        <ele>345.25</ele>
        <time>2018-07-15T07:29:48Z</time>
      </trkpt>
      <trkpt lat="47.25331" lon="6.06415">
        <ele>345.25</ele>
        <time>2018-07-15T07:29:49Z</time>
      </trkpt>
      <trkpt lat="47.2533" lon="6.06416">
        <ele>345.25</ele>
        <time>2018-07-15T07:29:50Z</time>
      </trkpt>
      <trkpt lat="47.25328" lon="6.06418">
        <ele>345.25</ele>
        <time>2018-07-15T07:29:53Z</time>
      </trkpt>
      <trkpt lat="47.25327" lon="6.0642">
        <ele>345.25</ele>
        <time>2018-07-15T07:29:54Z</time>
      </trkpt>
      <trkpt lat="47.25327" lon="6.06422">
        <ele>345.25</ele>
        <time>2018-07-15T07:29:55Z</time>
      </trkpt>
      <trkpt lat="47.25328" lon="6.06424">
        <ele>345.25</ele>
        <time>2018-07-15T07:29:56Z</time>
      </trkpt>
      <trkpt lat="47.25329" lon="6.06425">
        <ele>345.25</ele>
        <time>2018-07-15T07:29:57Z</time>
      </trkpt>
      <trkpt lat="47.2533" lon="6.06427">
        <ele>345.25</ele>
        <time>2018-07-15T07:29:58Z</time>
      </trkpt>
      <trkpt lat="47.25332" lon="6.06427">
        <ele>345.25</ele>
        <time>2018-07-15T07:29:59Z</time>
      </trkpt>
      <trkpt lat="47.25334" lon="6.06425">
        <ele>344.77</ele>
        <time>2018-07-15T07:30:00Z</time>
      </trkpt>
      <trkpt lat="47.25335" lon="6.06422">
        <ele>345.25</ele>
        <time>2018-07-15T07:30:01Z</time>
      </trkpt>
      <trkpt lat="47.25335" lon="6.06418">
        <ele>345.25</ele>
        <time>2018-07-15T07:30:02Z</time>
      </trkpt>
      <trkpt lat="47.25335" lon="6.06415">
        <ele>345.25</ele>
        <time>2018-07-15T07:30:03Z</time>
      </trkpt>
      <trkpt lat="47.25336" lon="6.06412">
        <ele>345.25</ele>
        <time>2018-07-15T07:30:04Z</time>
      </trkpt>
      <trkpt lat="47.25336" lon="6.0641">
        <ele>345.25</ele>
        <time>2018-07-15T07:30:05Z</time>
      </trkpt>
      <trkpt lat="47.25336" lon="6.06409">
        <ele>345.25</ele>
        <time>2018-07-15T07:30:17Z</time>
      </trkpt>
      <trkpt lat="47.25334" lon="6.06407">
        <ele>345.25</ele>
        <time>2018-07-15T07:30:48Z</time>
      </trkpt>
      <trkpt lat="47.25333" lon="6.06407">
        <ele>345.25</ele>
        <time>2018-07-15T07:30:49Z</time>
      </trkpt>
      <trkpt lat="47.25332" lon="6.06408">
        <ele>345.25</ele>
        <time>2018-07-15T07:30:50Z</time>
      </trkpt>
      <trkpt lat="47.2533" lon="6.06409">
        <ele>345.25</ele>
        <time>2018-07-15T07:30:51Z</time>
      </trkpt>
      <trkpt lat="47.25329" lon="6.06411">
        <ele>345.25</ele>
        <time>2018-07-15T07:30:52Z</time>
      </trkpt>
      <trkpt lat="47.25328" lon="6.06413">
        <ele>345.73</ele>
        <time>2018-07-15T07:30:53Z</time>
      </trkpt>
      <trkpt lat="47.25327" lon="6.06416">
        <ele>345.73</ele>
        <time>2018-07-15T07:30:54Z</time>
      </trkpt>
      <trkpt lat="47.25326" lon="6.0642">
        <ele>345.73</ele>
        <time>2018-07-15T07:30:55Z</time>
      </trkpt>
      <trkpt lat="47.25324" lon="6.06423">
        <ele>345.73</ele>
        <time>2018-07-15T07:30:56Z</time>
      </trkpt>
      <trkpt lat="47.25302" lon="6.0645">
        <ele>347.65</ele>
        <time>2018-07-15T07:31:09Z</time>
      </trkpt>
      <trkpt lat="47.25281" lon="6.06476">
        <ele>350.54</ele>
        <time>2018-07-15T07:31:22Z</time>
      </trkpt>
      <trkpt lat="47.2527" lon="6.06484">
        <ele>351.5</ele>
        <time>2018-07-15T07:31:27Z</time>
      </trkpt>
      <trkpt lat="47.25269" lon="6.06486">
        <ele>351.5</ele>
        <time>2018-07-15T07:31:28Z</time>
      </trkpt>
      <trkpt lat="47.25267" lon="6.06488">
        <ele>351.98</ele>
        <time>2018-07-15T07:31:29Z</time>
      </trkpt>
      <trkpt lat="47.25264" lon="6.06489">
        <ele>351.98</ele>
        <time>2018-07-15T07:31:30Z</time>
      </trkpt>
      <trkpt lat="47.25262" lon="6.06489">
        <ele>351.98</ele>
        <time>2018-07-15T07:31:31Z</time>
      </trkpt>
      <trkpt lat="47.2526" lon="6.0649">
        <ele>351.98</ele>
        <time>2018-07-15T07:31:32Z</time>
      </trkpt>
      <trkpt lat="47.25257" lon="6.06489">
        <ele>352.46</ele>
        <time>2018-07-15T07:31:33Z</time>
      </trkpt>
      <trkpt lat="47.25255" lon="6.06489">
        <ele>352.46</ele>
        <time>2018-07-15T07:31:34Z</time>
      </trkpt>
      <trkpt lat="47.25253" lon="6.06488">
        <ele>352.94</ele>
        <time>2018-07-15T07:31:35Z</time>
      </trkpt>
      <trkpt lat="47.25251" lon="6.06487">
        <ele>352.94</ele>
        <time>2018-07-15T07:31:36Z</time>
      </trkpt>
      <trkpt lat="47.25249" lon="6.06486">
        <ele>352.94</ele>
        <time>2018-07-15T07:31:37Z</time>
      </trkpt>
      <trkpt lat="47.2522" lon="6.06467">
        <ele>355.83</ele>
        <time>2018-07-15T07:31:50Z</time>
      </trkpt>
      <trkpt lat="47.25183" lon="6.06448">
        <ele>357.27</ele>
        <time>2018-07-15T07:32:04Z</time>
      </trkpt>
      <trkpt lat="47.25129" lon="6.06426">
        <ele>356.31</ele>
        <time>2018-07-15T07:32:19Z</time>
      </trkpt>
      <trkpt lat="47.25093" lon="6.06406">
        <ele>355.34</ele>
        <time>2018-07-15T07:32:27Z</time>
      </trkpt>
      <trkpt lat="47.25087" lon="6.06401">
        <ele>354.86</ele>
        <time>2018-07-15T07:32:28Z</time>
      </trkpt>
      <trkpt lat="47.25073" lon="6.06385">
        <ele>354.38</ele>
        <time>2018-07-15T07:32:31Z</time>
      </trkpt>
      <trkpt lat="47.25069" lon="6.06379">
        <ele>354.38</ele>
        <time>2018-07-15T07:32:32Z</time>
      </trkpt>
      <trkpt lat="47.25061" lon="6.06361">
        <ele>354.86</ele>
        <time>2018-07-15T07:32:35Z</time>
      </trkpt>
      <trkpt lat="47.25057" lon="6.06355">
        <ele>354.86</ele>
        <time>2018-07-15T07:32:36Z</time>
      </trkpt>
      <trkpt lat="47.25054" lon="6.0635">
        <ele>354.86</ele>
        <time>2018-07-15T07:32:37Z</time>
      </trkpt>
      <trkpt lat="47.25031" lon="6.06305">
        <ele>353.9</ele>
        <time>2018-07-15T07:32:44Z</time>
      </trkpt>
      <trkpt lat="47.25027" lon="6.063">
        <ele>353.42</ele>
        <time>2018-07-15T07:32:45Z</time>
      </trkpt>
      <trkpt lat="47.25022" lon="6.06296">
        <ele>353.42</ele>
        <time>2018-07-15T07:32:46Z</time>
      </trkpt>
      <trkpt lat="47.25016" lon="6.06293">
        <ele>352.94</ele>
        <time>2018-07-15T07:32:47Z</time>
      </trkpt>
      <trkpt lat="47.25011" lon="6.06291">
        <ele>352.94</ele>
        <time>2018-07-15T07:32:48Z</time>
      </trkpt>
      <trkpt lat="47.25005" lon="6.06287">
        <ele>352.46</ele>
        <time>2018-07-15T07:32:49Z</time>
      </trkpt>
      <trkpt lat="47.24999" lon="6.06282">
        <ele>351.98</ele>
        <time>2018-07-15T07:32:50Z</time>
      </trkpt>
      <trkpt lat="47.24933" lon="6.06216">
        <ele>351.5</ele>
        <time>2018-07-15T07:33:03Z</time>
      </trkpt>
      <trkpt lat="47.24902" lon="6.062">
        <ele>353.9</ele>
        <time>2018-07-15T07:33:13Z</time>
      </trkpt>
      <trkpt lat="47.24877" lon="6.06213">
        <ele>356.79</ele>
        <time>2018-07-15T07:33:24Z</time>
      </trkpt>
      <trkpt lat="47.24854" lon="6.06224">
        <ele>359.67</ele>
        <time>2018-07-15T07:33:35Z</time>
      </trkpt>
      <trkpt lat="47.24832" lon="6.06236">
        <ele>363.04</ele>
        <time>2018-07-15T07:33:46Z</time>
      </trkpt>
      <trkpt lat="47.24816" lon="6.06245">
        <ele>365.44</ele>
        <time>2018-07-15T07:33:54Z</time>
      </trkpt>
      <trkpt lat="47.2479" lon="6.06235">
        <ele>368.32</ele>
        <time>2018-07-15T07:34:06Z</time>
      </trkpt>
      <trkpt lat="47.24767" lon="6.06222">
        <ele>371.69</ele>
        <time>2018-07-15T07:34:18Z</time>
      </trkpt>
      <trkpt lat="47.24737" lon="6.06212">
        <ele>373.13</ele>
        <time>2018-07-15T07:34:31Z</time>
      </trkpt>
      <trkpt lat="47.24691" lon="6.06186">
        <ele>372.17</ele>
        <time>2018-07-15T07:34:44Z</time>
      </trkpt>
      <trkpt lat="47.24679" lon="6.0618">
        <ele>371.69</ele>
        <time>2018-07-15T07:34:47Z</time>
      </trkpt>
      <trkpt lat="47.24675" lon="6.06179">
        <ele>371.69</ele>
        <time>2018-07-15T07:34:48Z</time>
      </trkpt>
      <trkpt lat="47.24647" lon="6.0617">
        <ele>367.84</ele>
        <time>2018-07-15T07:34:54Z</time>
      </trkpt>
      <trkpt lat="47.24643" lon="6.06169">
        <ele>367.36</ele>
        <time>2018-07-15T07:34:55Z</time>
      </trkpt>
      <trkpt lat="47.24639" lon="6.06168">
        <ele>366.88</ele>
        <time>2018-07-15T07:34:56Z</time>
      </trkpt>
      <trkpt lat="47.24635" lon="6.06166">
        <ele>365.92</ele>
        <time>2018-07-15T07:34:57Z</time>
      </trkpt>
      <trkpt lat="47.24631" lon="6.06164">
        <ele>365.44</ele>
        <time>2018-07-15T07:34:58Z</time>
      </trkpt>
      <trkpt lat="47.24627" lon="6.06163">
        <ele>364.48</ele>
        <time>2018-07-15T07:34:59Z</time>
      </trkpt>
      <trkpt lat="47.24623" lon="6.06162">
        <ele>364</ele>
        <time>2018-07-15T07:35:00Z</time>
      </trkpt>
      <trkpt lat="47.24621" lon="6.0616">
        <ele>364</ele>
        <time>2018-07-15T07:35:01Z</time>
      </trkpt>
      <trkpt lat="47.24605" lon="6.0615">
        <ele>361.59</ele>
        <time>2018-07-15T07:35:06Z</time>
      </trkpt>
      <trkpt lat="47.24601" lon="6.06147">
        <ele>361.11</ele>
        <time>2018-07-15T07:35:07Z</time>
      </trkpt>
      <trkpt lat="47.2459" lon="6.0614">
        <ele>359.67</ele>
        <time>2018-07-15T07:35:09Z</time>
      </trkpt>
      <trkpt lat="47.24585" lon="6.06135">
        <ele>359.67</ele>
        <time>2018-07-15T07:35:10Z</time>
      </trkpt>
      <trkpt lat="47.24579" lon="6.06132">
        <ele>358.71</ele>
        <time>2018-07-15T07:35:11Z</time>
      </trkpt>
      <trkpt lat="47.24566" lon="6.06121">
        <ele>358.23</ele>
        <time>2018-07-15T07:35:14Z</time>
      </trkpt>
      <trkpt lat="47.24563" lon="6.06117">
        <ele>358.23</ele>
        <time>2018-07-15T07:35:15Z</time>
      </trkpt>
      <trkpt lat="47.24559" lon="6.06114">
        <ele>358.23</ele>
        <time>2018-07-15T07:35:16Z</time>
      </trkpt>
      <trkpt lat="47.24556" lon="6.06111">
        <ele>357.75</ele>
        <time>2018-07-15T07:35:17Z</time>
      </trkpt>
      <trkpt lat="47.24551" lon="6.06108">
        <ele>357.75</ele>
        <time>2018-07-15T07:35:18Z</time>
      </trkpt>
      <trkpt lat="47.24547" lon="6.06106">
        <ele>356.79</ele>
        <time>2018-07-15T07:35:19Z</time>
      </trkpt>
      <trkpt lat="47.24542" lon="6.06104">
        <ele>356.31</ele>
        <time>2018-07-15T07:35:20Z</time>
      </trkpt>
      <trkpt lat="47.24537" lon="6.06103">
        <ele>355.34</ele>
        <time>2018-07-15T07:35:21Z</time>
      </trkpt>
      <trkpt lat="47.24534" lon="6.06102">
        <ele>354.86</ele>
        <time>2018-07-15T07:35:22Z</time>
      </trkpt>
      <trkpt lat="47.2453" lon="6.06101">
        <ele>353.9</ele>
        <time>2018-07-15T07:35:23Z</time>
      </trkpt>
      <trkpt lat="47.24526" lon="6.061">
        <ele>352.46</ele>
        <time>2018-07-15T07:35:24Z</time>
      </trkpt>
      <trkpt lat="47.24507" lon="6.061">
        <ele>349.1</ele>
        <time>2018-07-15T07:35:29Z</time>
      </trkpt>
      <trkpt lat="47.24504" lon="6.06102">
        <ele>348.13</ele>
        <time>2018-07-15T07:35:30Z</time>
      </trkpt>
      <trkpt lat="47.24501" lon="6.06104">
        <ele>347.17</ele>
        <time>2018-07-15T07:35:31Z</time>
      </trkpt>
      <trkpt lat="47.24494" lon="6.06115">
        <ele>343.33</ele>
        <time>2018-07-15T07:35:34Z</time>
      </trkpt>
      <trkpt lat="47.24487" lon="6.06128">
        <ele>339</ele>
        <time>2018-07-15T07:35:37Z</time>
      </trkpt>
      <trkpt lat="47.24483" lon="6.06138">
        <ele>336.6</ele>
        <time>2018-07-15T07:35:39Z</time>
      </trkpt>
      <trkpt lat="47.2448" lon="6.06144">
        <ele>335.16</ele>
        <time>2018-07-15T07:35:40Z</time>
      </trkpt>
      <trkpt lat="47.24476" lon="6.06149">
        <ele>334.2</ele>
        <time>2018-07-15T07:35:41Z</time>
      </trkpt>
      <trkpt lat="47.24473" lon="6.06154">
        <ele>333.71</ele>
        <time>2018-07-15T07:35:42Z</time>
      </trkpt>
      <trkpt lat="47.24463" lon="6.0617">
        <ele>330.83</ele>
        <time>2018-07-15T07:35:47Z</time>
      </trkpt>
      <trkpt lat="47.24442" lon="6.06189">
        <ele>327.47</ele>
        <time>2018-07-15T07:35:54Z</time>
      </trkpt>
      <trkpt lat="47.24438" lon="6.0619">
        <ele>326.99</ele>
        <time>2018-07-15T07:35:55Z</time>
      </trkpt>
      <trkpt lat="47.24435" lon="6.06191">
        <ele>326.5</ele>
        <time>2018-07-15T07:35:56Z</time>
      </trkpt>
      <trkpt lat="47.2441" lon="6.06193">
        <ele>324.1</ele>
        <time>2018-07-15T07:36:06Z</time>
      </trkpt>
      <trkpt lat="47.24406" lon="6.06194">
        <ele>323.62</ele>
        <time>2018-07-15T07:36:07Z</time>
      </trkpt>
      <trkpt lat="47.244" lon="6.06194">
        <ele>322.66</ele>
        <time>2018-07-15T07:36:08Z</time>
      </trkpt>
      <trkpt lat="47.24393" lon="6.06193">
        <ele>321.22</ele>
        <time>2018-07-15T07:36:09Z</time>
      </trkpt>
      <trkpt lat="47.24386" lon="6.0619">
        <ele>320.26</ele>
        <time>2018-07-15T07:36:10Z</time>
      </trkpt>
      <trkpt lat="47.24379" lon="6.06187">
        <ele>319.3</ele>
        <time>2018-07-15T07:36:11Z</time>
      </trkpt>
      <trkpt lat="47.24372" lon="6.06184">
        <ele>318.81</ele>
        <time>2018-07-15T07:36:12Z</time>
      </trkpt>
      <trkpt lat="47.24364" lon="6.06182">
        <ele>318.33</ele>
        <time>2018-07-15T07:36:13Z</time>
      </trkpt>
      <trkpt lat="47.24357" lon="6.06182">
        <ele>317.37</ele>
        <time>2018-07-15T07:36:14Z</time>
      </trkpt>
      <trkpt lat="47.2434" lon="6.0618">
        <ele>314.49</ele>
        <time>2018-07-15T07:36:16Z</time>
      </trkpt>
      <trkpt lat="47.24331" lon="6.06178">
        <ele>313.05</ele>
        <time>2018-07-15T07:36:17Z</time>
      </trkpt>
      <trkpt lat="47.24323" lon="6.06174">
        <ele>312.09</ele>
        <time>2018-07-15T07:36:18Z</time>
      </trkpt>
      <trkpt lat="47.24314" lon="6.06169">
        <ele>311.12</ele>
        <time>2018-07-15T07:36:19Z</time>
      </trkpt>
      <trkpt lat="47.24306" lon="6.06162">
        <ele>310.64</ele>
        <time>2018-07-15T07:36:20Z</time>
      </trkpt>
      <trkpt lat="47.24298" lon="6.06155">
        <ele>309.68</ele>
        <time>2018-07-15T07:36:21Z</time>
      </trkpt>
      <trkpt lat="47.24262" lon="6.06129">
        <ele>305.84</ele>
        <time>2018-07-15T07:36:25Z</time>
      </trkpt>
      <trkpt lat="47.24211" lon="6.06097">
        <ele>301.99</ele>
        <time>2018-07-15T07:36:30Z</time>
      </trkpt>
      <trkpt lat="47.24172" lon="6.06073">
        <ele>298.63</ele>
        <time>2018-07-15T07:36:34Z</time>
      </trkpt>
      <trkpt lat="47.24161" lon="6.06068">
        <ele>297.18</ele>
        <time>2018-07-15T07:36:35Z</time>
      </trkpt>
      <trkpt lat="47.24139" lon="6.06059">
        <ele>293.82</ele>
        <time>2018-07-15T07:36:37Z</time>
      </trkpt>
      <trkpt lat="47.24128" lon="6.06053">
        <ele>292.86</ele>
        <time>2018-07-15T07:36:38Z</time>
      </trkpt>
      <trkpt lat="47.24118" lon="6.06046">
        <ele>292.86</ele>
        <time>2018-07-15T07:36:39Z</time>
      </trkpt>
      <trkpt lat="47.241" lon="6.06036">
        <ele>292.38</ele>
        <time>2018-07-15T07:36:41Z</time>
      </trkpt>
      <trkpt lat="47.24091" lon="6.06034">
        <ele>291.9</ele>
        <time>2018-07-15T07:36:42Z</time>
      </trkpt>
      <trkpt lat="47.24081" lon="6.06034">
        <ele>290.94</ele>
        <time>2018-07-15T07:36:43Z</time>
      </trkpt>
      <trkpt lat="47.2406" lon="6.06037">
        <ele>288.05</ele>
        <time>2018-07-15T07:36:45Z</time>
      </trkpt>
      <trkpt lat="47.24049" lon="6.06037">
        <ele>284.69</ele>
        <time>2018-07-15T07:36:46Z</time>
      </trkpt>
      <trkpt lat="47.24039" lon="6.06034">
        <ele>283.73</ele>
        <time>2018-07-15T07:36:47Z</time>
      </trkpt>
      <trkpt lat="47.24018" lon="6.06029">
        <ele>282.77</ele>
        <time>2018-07-15T07:36:49Z</time>
      </trkpt>
      <trkpt lat="47.24008" lon="6.06029">
        <ele>282.28</ele>
        <time>2018-07-15T07:36:50Z</time>
      </trkpt>
      <trkpt lat="47.23998" lon="6.06031">
        <ele>281.32</ele>
        <time>2018-07-15T07:36:51Z</time>
      </trkpt>
      <trkpt lat="47.23967" lon="6.06037">
        <ele>277.48</ele>
        <time>2018-07-15T07:36:54Z</time>
      </trkpt>
      <trkpt lat="47.23957" lon="6.06037">
        <ele>276.04</ele>
        <time>2018-07-15T07:36:55Z</time>
      </trkpt>
      <trkpt lat="47.23946" lon="6.06035">
        <ele>275.07</ele>
        <time>2018-07-15T07:36:56Z</time>
      </trkpt>
      <trkpt lat="47.23936" lon="6.06031">
        <ele>274.11</ele>
        <time>2018-07-15T07:36:57Z</time>
      </trkpt>
      <trkpt lat="47.23895" lon="6.06017">
        <ele>273.15</ele>
        <time>2018-07-15T07:37:01Z</time>
      </trkpt>
      <trkpt lat="47.23815" lon="6.06008">
        <ele>271.71</ele>
        <time>2018-07-15T07:37:10Z</time>
      </trkpt>
      <trkpt lat="47.23801" lon="6.06002">
        <ele>269.79</ele>
        <time>2018-07-15T07:37:12Z</time>
      </trkpt>
      <trkpt lat="47.23794" lon="6.05998">
        <ele>268.35</ele>
        <time>2018-07-15T07:37:13Z</time>
      </trkpt>
      <trkpt lat="47.23788" lon="6.05991">
        <ele>267.38</ele>
        <time>2018-07-15T07:37:14Z</time>
      </trkpt>
      <trkpt lat="47.23773" lon="6.05978">
        <ele>264.98</ele>
        <time>2018-07-15T07:37:16Z</time>
      </trkpt>
      <trkpt lat="47.23765" lon="6.05973">
        <ele>263.06</ele>
        <time>2018-07-15T07:37:17Z</time>
      </trkpt>
      <trkpt lat="47.23757" lon="6.05971">
        <ele>261.14</ele>
        <time>2018-07-15T07:37:18Z</time>
      </trkpt>
      <trkpt lat="47.23748" lon="6.0597">
        <ele>258.73</ele>
        <time>2018-07-15T07:37:19Z</time>
      </trkpt>
      <trkpt lat="47.23738" lon="6.05969">
        <ele>256.81</ele>
        <time>2018-07-15T07:37:20Z</time>
      </trkpt>
      <trkpt lat="47.23719" lon="6.05971">
        <ele>252.48</ele>
        <time>2018-07-15T07:37:22Z</time>
      </trkpt>
      <trkpt lat="47.2371" lon="6.05976">
        <ele>251.04</ele>
        <time>2018-07-15T07:37:23Z</time>
      </trkpt>
      <trkpt lat="47.237" lon="6.05982">
        <ele>249.6</ele>
        <time>2018-07-15T07:37:24Z</time>
      </trkpt>
      <trkpt lat="47.23691" lon="6.0599">
        <ele>248.16</ele>
        <time>2018-07-15T07:37:25Z</time>
      </trkpt>
      <trkpt lat="47.23683" lon="6.05997">
        <ele>247.2</ele>
        <time>2018-07-15T07:37:26Z</time>
      </trkpt>
      <trkpt lat="47.23677" lon="6.06003">
        <ele>247.2</ele>
        <time>2018-07-15T07:37:27Z</time>
      </trkpt>
      <trkpt lat="47.23671" lon="6.06009">
        <ele>247.2</ele>
        <time>2018-07-15T07:37:28Z</time>
      </trkpt>
      <trkpt lat="47.23664" lon="6.06012">
        <ele>247.68</ele>
        <time>2018-07-15T07:37:29Z</time>
      </trkpt>
      <trkpt lat="47.23657" lon="6.06013">
        <ele>247.68</ele>
        <time>2018-07-15T07:37:30Z</time>
      </trkpt>
      <trkpt lat="47.2365" lon="6.06011">
        <ele>247.68</ele>
        <time>2018-07-15T07:37:31Z</time>
      </trkpt>
      <trkpt lat="47.23644" lon="6.06009">
        <ele>247.68</ele>
        <time>2018-07-15T07:37:32Z</time>
      </trkpt>
      <trkpt lat="47.23638" lon="6.06006">
        <ele>247.68</ele>
        <time>2018-07-15T07:37:33Z</time>
      </trkpt>
      <trkpt lat="47.23574" lon="6.05972">
        <ele>248.16</ele>
        <time>2018-07-15T07:37:44Z</time>
      </trkpt>
      <trkpt lat="47.23496" lon="6.05947">
        <ele>248.16</ele>
        <time>2018-07-15T07:37:59Z</time>
      </trkpt>
      <trkpt lat="47.23485" lon="6.05946">
        <ele>248.16</ele>
        <time>2018-07-15T07:38:01Z</time>
      </trkpt>
      <trkpt lat="47.2348" lon="6.05946">
        <ele>248.16</ele>
        <time>2018-07-15T07:38:02Z</time>
      </trkpt>
      <trkpt lat="47.23424" lon="6.05938">
        <ele>248.64</ele>
        <time>2018-07-15T07:38:13Z</time>
      </trkpt>
      <trkpt lat="47.23405" lon="6.05932">
        <ele>248.64</ele>
        <time>2018-07-15T07:38:17Z</time>
      </trkpt>
      <trkpt lat="47.23348" lon="6.05898">
        <ele>248.64</ele>
        <time>2018-07-15T07:38:30Z</time>
      </trkpt>
      <trkpt lat="47.23279" lon="6.05838">
        <ele>248.64</ele>
        <time>2018-07-15T07:38:46Z</time>
      </trkpt>
      <trkpt lat="47.2322" lon="6.05765">
        <ele>248.64</ele>
        <time>2018-07-15T07:39:01Z</time>
      </trkpt>
      <trkpt lat="47.23217" lon="6.05758">
        <ele>248.64</ele>
        <time>2018-07-15T07:39:02Z</time>
      </trkpt>
      <trkpt lat="47.23214" lon="6.05751">
        <ele>248.64</ele>
        <time>2018-07-15T07:39:03Z</time>
      </trkpt>
      <trkpt lat="47.23213" lon="6.05744">
        <ele>248.64</ele>
        <time>2018-07-15T07:39:04Z</time>
      </trkpt>
      <trkpt lat="47.23201" lon="6.05685">
        <ele>248.16</ele>
        <time>2018-07-15T07:39:12Z</time>
      </trkpt>
      <trkpt lat="47.23198" lon="6.05679">
        <ele>248.64</ele>
        <time>2018-07-15T07:39:13Z</time>
      </trkpt>
      <trkpt lat="47.23196" lon="6.05673">
        <ele>248.64</ele>
        <time>2018-07-15T07:39:14Z</time>
      </trkpt>
      <trkpt lat="47.23193" lon="6.05667">
        <ele>248.64</ele>
        <time>2018-07-15T07:39:15Z</time>
      </trkpt>
      <trkpt lat="47.23189" lon="6.05662">
        <ele>249.12</ele>
        <time>2018-07-15T07:39:16Z</time>
      </trkpt>
      <trkpt lat="47.23138" lon="6.05609">
        <ele>249.12</ele>
        <time>2018-07-15T07:39:30Z</time>
      </trkpt>
      <trkpt lat="47.23128" lon="6.05604">
        <ele>249.12</ele>
        <time>2018-07-15T07:39:33Z</time>
      </trkpt>
      <trkpt lat="47.2309" lon="6.05611">
        <ele>249.6</ele>
        <time>2018-07-15T07:39:44Z</time>
      </trkpt>
      <trkpt lat="47.23088" lon="6.05615">
        <ele>249.6</ele>
        <time>2018-07-15T07:39:45Z</time>
      </trkpt>
      <trkpt lat="47.23088" lon="6.0562">
        <ele>249.12</ele>
        <time>2018-07-15T07:39:46Z</time>
      </trkpt>
      <trkpt lat="47.23088" lon="6.05625">
        <ele>249.6</ele>
        <time>2018-07-15T07:39:47Z</time>
      </trkpt>
      <trkpt lat="47.23088" lon="6.05629">
        <ele>249.6</ele>
        <time>2018-07-15T07:39:48Z</time>
      </trkpt>
      <trkpt lat="47.23088" lon="6.05634">
        <ele>249.6</ele>
        <time>2018-07-15T07:39:49Z</time>
      </trkpt>
      <trkpt lat="47.23103" lon="6.05679">
        <ele>249.6</ele>
        <time>2018-07-15T07:40:01Z</time>
      </trkpt>
      <trkpt lat="47.23135" lon="6.05702">
        <ele>251.52</ele>
        <time>2018-07-15T07:40:14Z</time>
      </trkpt>
      <trkpt lat="47.23156" lon="6.05718">
        <ele>253.44</ele>
        <time>2018-07-15T07:40:23Z</time>
      </trkpt>
      <trkpt lat="47.23156" lon="6.0572">
        <ele>253.44</ele>
        <time>2018-07-15T07:40:24Z</time>
      </trkpt>
      <trkpt lat="47.23155" lon="6.05723">
        <ele>253.44</ele>
        <time>2018-07-15T07:40:25Z</time>
      </trkpt>
      <trkpt lat="47.23154" lon="6.05726">
        <ele>253.44</ele>
        <time>2018-07-15T07:40:26Z</time>
      </trkpt>
      <trkpt lat="47.23152" lon="6.05729">
        <ele>253.44</ele>
        <time>2018-07-15T07:40:27Z</time>
      </trkpt>
      <trkpt lat="47.23126" lon="6.05783">
        <ele>253.93</ele>
        <time>2018-07-15T07:40:41Z</time>
      </trkpt>
      <trkpt lat="47.23108" lon="6.05821">
        <ele>253.44</ele>
        <time>2018-07-15T07:40:51Z</time>
      </trkpt>
      <trkpt lat="47.23095" lon="6.05815">
        <ele>252.96</ele>
        <time>2018-07-15T07:40:56Z</time>
      </trkpt>
      <trkpt lat="47.23084" lon="6.05804">
        <ele>251.52</ele>
        <time>2018-07-15T07:40:59Z</time>
      </trkpt>
      <trkpt lat="47.23068" lon="6.05791">
        <ele>250.56</ele>
        <time>2018-07-15T07:41:03Z</time>
      </trkpt>
      <trkpt lat="47.23066" lon="6.05792">
        <ele>250.56</ele>
        <time>2018-07-15T07:41:04Z</time>
      </trkpt>
      <trkpt lat="47.23064" lon="6.05795">
        <ele>250.56</ele>
        <time>2018-07-15T07:41:05Z</time>
      </trkpt>
      <trkpt lat="47.23061" lon="6.05806">
        <ele>250.08</ele>
        <time>2018-07-15T07:41:08Z</time>
      </trkpt>
      <trkpt lat="47.23062" lon="6.05808">
        <ele>250.56</ele>
        <time>2018-07-15T07:41:09Z</time>
      </trkpt>
      <trkpt lat="47.23064" lon="6.0581">
        <ele>250.08</ele>
        <time>2018-07-15T07:41:10Z</time>
      </trkpt>
      <trkpt lat="47.23067" lon="6.05812">
        <ele>250.08</ele>
        <time>2018-07-15T07:41:11Z</time>
      </trkpt>
      <trkpt lat="47.2307" lon="6.05814">
        <ele>249.6</ele>
        <time>2018-07-15T07:41:12Z</time>
      </trkpt>
      <trkpt lat="47.23073" lon="6.05817">
        <ele>249.6</ele>
        <time>2018-07-15T07:41:13Z</time>
      </trkpt>
      <trkpt lat="47.23076" lon="6.05819">
        <ele>249.12</ele>
        <time>2018-07-15T07:41:14Z</time>
      </trkpt>
      <trkpt lat="47.23077" lon="6.05822">
        <ele>249.12</ele>
        <time>2018-07-15T07:41:15Z</time>
      </trkpt>
      <trkpt lat="47.23077" lon="6.05824">
        <ele>249.12</ele>
        <time>2018-07-15T07:41:16Z</time>
      </trkpt>
      <trkpt lat="47.23079" lon="6.05826">
        <ele>249.12</ele>
        <time>2018-07-15T07:41:17Z</time>
      </trkpt>
      <trkpt lat="47.23082" lon="6.05828">
        <ele>249.12</ele>
        <time>2018-07-15T07:41:18Z</time>
      </trkpt>
      <trkpt lat="47.2312" lon="6.05864">
        <ele>247.68</ele>
        <time>2018-07-15T07:41:29Z</time>
      </trkpt>
      <trkpt lat="47.23141" lon="6.05881">
        <ele>247.68</ele>
        <time>2018-07-15T07:41:34Z</time>
      </trkpt>
      <trkpt lat="47.23145" lon="6.05883">
        <ele>247.68</ele>
        <time>2018-07-15T07:41:35Z</time>
      </trkpt>
      <trkpt lat="47.2315" lon="6.05885">
        <ele>247.68</ele>
        <time>2018-07-15T07:41:36Z</time>
      </trkpt>
      <trkpt lat="47.23154" lon="6.05888">
        <ele>247.68</ele>
        <time>2018-07-15T07:41:37Z</time>
      </trkpt>
      <trkpt lat="47.23158" lon="6.05892">
        <ele>247.68</ele>
        <time>2018-07-15T07:41:38Z</time>
      </trkpt>
      <trkpt lat="47.23161" lon="6.05895">
        <ele>247.68</ele>
        <time>2018-07-15T07:41:39Z</time>
      </trkpt>
      <trkpt lat="47.23226" lon="6.05953">
        <ele>247.68</ele>
        <time>2018-07-15T07:41:55Z</time>
      </trkpt>
      <trkpt lat="47.23242" lon="6.05969">
        <ele>247.68</ele>
        <time>2018-07-15T07:41:59Z</time>
      </trkpt>
      <trkpt lat="47.23307" lon="6.0604">
        <ele>247.68</ele>
        <time>2018-07-15T07:42:16Z</time>
      </trkpt>
      <trkpt lat="47.23374" lon="6.06082">
        <ele>247.68</ele>
        <time>2018-07-15T07:42:32Z</time>
      </trkpt>
      <trkpt lat="47.23457" lon="6.06106">
        <ele>247.2</ele>
        <time>2018-07-15T07:42:50Z</time>
      </trkpt>
      <trkpt lat="47.23537" lon="6.06127">
        <ele>247.68</ele>
        <time>2018-07-15T07:43:07Z</time>
      </trkpt>
      <trkpt lat="47.23623" lon="6.0615">
        <ele>247.2</ele>
        <time>2018-07-15T07:43:25Z</time>
      </trkpt>
      <trkpt lat="47.23711" lon="6.06189">
        <ele>247.68</ele>
        <time>2018-07-15T07:43:45Z</time>
      </trkpt>
      <trkpt lat="47.23783" lon="6.06234">
        <ele>247.68</ele>
        <time>2018-07-15T07:44:03Z</time>
      </trkpt>
      <trkpt lat="47.23848" lon="6.06297">
        <ele>248.64</ele>
        <time>2018-07-15T07:44:20Z</time>
      </trkpt>
      <trkpt lat="47.23913" lon="6.06383">
        <ele>248.16</ele>
        <time>2018-07-15T07:44:39Z</time>
      </trkpt>
      <trkpt lat="47.23931" lon="6.0641">
        <ele>248.64</ele>
        <time>2018-07-15T07:44:45Z</time>
      </trkpt>
      <trkpt lat="47.23934" lon="6.06414">
        <ele>248.64</ele>
        <time>2018-07-15T07:44:46Z</time>
      </trkpt>
      <trkpt lat="47.23937" lon="6.06418">
        <ele>248.64</ele>
        <time>2018-07-15T07:44:47Z</time>
      </trkpt>
      <trkpt lat="47.23995" lon="6.06491">
        <ele>248.64</ele>
        <time>2018-07-15T07:45:03Z</time>
      </trkpt>
      <trkpt lat="47.24063" lon="6.0656">
        <ele>248.16</ele>
        <time>2018-07-15T07:45:18Z</time>
      </trkpt>
      <trkpt lat="47.24125" lon="6.06635">
        <ele>248.16</ele>
        <time>2018-07-15T07:45:35Z</time>
      </trkpt>
      <trkpt lat="47.24159" lon="6.06674">
        <ele>248.64</ele>
        <time>2018-07-15T07:45:46Z</time>
      </trkpt>
      <trkpt lat="47.2418" lon="6.06697">
        <ele>249.12</ele>
        <time>2018-07-15T07:45:52Z</time>
      </trkpt>
      <trkpt lat="47.24183" lon="6.06701">
        <ele>249.12</ele>
        <time>2018-07-15T07:45:53Z</time>
      </trkpt>
      <trkpt lat="47.24216" lon="6.06742">
        <ele>249.6</ele>
        <time>2018-07-15T07:46:04Z</time>
      </trkpt>
      <trkpt lat="47.24265" lon="6.0679">
        <ele>249.6</ele>
        <time>2018-07-15T07:46:19Z</time>
      </trkpt>
      <trkpt lat="47.24321" lon="6.06848">
        <ele>249.6</ele>
        <time>2018-07-15T07:46:36Z</time>
      </trkpt>
      <trkpt lat="47.24335" lon="6.06865">
        <ele>249.6</ele>
        <time>2018-07-15T07:46:40Z</time>
      </trkpt>
      <trkpt lat="47.24338" lon="6.06869">
        <ele>249.6</ele>
        <time>2018-07-15T07:46:41Z</time>
      </trkpt>
      <trkpt lat="47.24363" lon="6.06904">
        <ele>250.08</ele>
        <time>2018-07-15T07:46:49Z</time>
      </trkpt>
      <trkpt lat="47.2441" lon="6.06952">
        <ele>251.04</ele>
        <time>2018-07-15T07:47:03Z</time>
      </trkpt>
      <trkpt lat="47.24463" lon="6.07005">
        <ele>252.48</ele>
        <time>2018-07-15T07:47:19Z</time>
      </trkpt>
      <trkpt lat="47.24498" lon="6.0704">
        <ele>252.96</ele>
        <time>2018-07-15T07:47:31Z</time>
      </trkpt>
      <trkpt lat="47.24508" lon="6.07065">
        <ele>256.33</ele>
        <time>2018-07-15T07:47:42Z</time>
      </trkpt>
      <trkpt lat="47.2451" lon="6.0708">
        <ele>257.77</ele>
        <time>2018-07-15T07:47:49Z</time>
      </trkpt>
      <trkpt lat="47.2451" lon="6.07081">
        <ele>257.77</ele>
        <time>2018-07-15T07:47:50Z</time>
      </trkpt>
      <trkpt lat="47.2451" lon="6.07083">
        <ele>258.25</ele>
        <time>2018-07-15T07:47:51Z</time>
      </trkpt>
      <trkpt lat="47.24512" lon="6.07097">
        <ele>260.17</ele>
        <time>2018-07-15T07:47:59Z</time>
      </trkpt>
      <trkpt lat="47.24515" lon="6.07104">
        <ele>261.62</ele>
        <time>2018-07-15T07:48:04Z</time>
      </trkpt>
      <trkpt lat="47.24519" lon="6.07112">
        <ele>263.06</ele>
        <time>2018-07-15T07:48:09Z</time>
      </trkpt>
      <trkpt lat="47.2452" lon="6.07116">
        <ele>263.54</ele>
        <time>2018-07-15T07:48:12Z</time>
      </trkpt>
      <trkpt lat="47.24522" lon="6.07121">
        <ele>264.5</ele>
        <time>2018-07-15T07:48:16Z</time>
      </trkpt>
      <trkpt lat="47.24523" lon="6.07123">
        <ele>264.98</ele>
        <time>2018-07-15T07:48:17Z</time>
      </trkpt>
      <trkpt lat="47.24531" lon="6.07137">
        <ele>267.38</ele>
        <time>2018-07-15T07:48:26Z</time>
      </trkpt>
      <trkpt lat="47.24532" lon="6.07138">
        <ele>267.38</ele>
        <time>2018-07-15T07:48:27Z</time>
      </trkpt>
      <trkpt lat="47.24533" lon="6.0714">
        <ele>267.86</ele>
        <time>2018-07-15T07:48:28Z</time>
      </trkpt>
      <trkpt lat="47.24534" lon="6.07142">
        <ele>267.86</ele>
        <time>2018-07-15T07:48:29Z</time>
      </trkpt>
      <trkpt lat="47.24534" lon="6.07144">
        <ele>267.86</ele>
        <time>2018-07-15T07:48:30Z</time>
      </trkpt>
      <trkpt lat="47.24535" lon="6.07146">
        <ele>268.35</ele>
        <time>2018-07-15T07:48:31Z</time>
      </trkpt>
      <trkpt lat="47.24543" lon="6.07165">
        <ele>270.27</ele>
        <time>2018-07-15T07:48:42Z</time>
      </trkpt>
      <trkpt lat="47.24544" lon="6.07167">
        <ele>270.27</ele>
        <time>2018-07-15T07:48:43Z</time>
      </trkpt>
      <trkpt lat="47.24545" lon="6.0717">
        <ele>270.75</ele>
        <time>2018-07-15T07:48:44Z</time>
      </trkpt>
      <trkpt lat="47.24546" lon="6.07172">
        <ele>270.75</ele>
        <time>2018-07-15T07:48:45Z</time>
      </trkpt>
      <trkpt lat="47.24547" lon="6.07175">
        <ele>270.75</ele>
        <time>2018-07-15T07:48:46Z</time>
      </trkpt>
      <trkpt lat="47.24548" lon="6.07181">
        <ele>271.23</ele>
        <time>2018-07-15T07:48:48Z</time>
      </trkpt>
      <trkpt lat="47.24548" lon="6.07183">
        <ele>271.23</ele>
        <time>2018-07-15T07:48:49Z</time>
      </trkpt>
      <trkpt lat="47.24549" lon="6.07186">
        <ele>271.71</ele>
        <time>2018-07-15T07:48:50Z</time>
      </trkpt>
      <trkpt lat="47.24549" lon="6.07189">
        <ele>271.71</ele>
        <time>2018-07-15T07:48:51Z</time>
      </trkpt>
      <trkpt lat="47.2455" lon="6.07191">
        <ele>272.19</ele>
        <time>2018-07-15T07:48:52Z</time>
      </trkpt>
      <trkpt lat="47.24551" lon="6.07194">
        <ele>272.19</ele>
        <time>2018-07-15T07:48:53Z</time>
      </trkpt>
      <trkpt lat="47.2455" lon="6.07231">
        <ele>272.19</ele>
        <time>2018-07-15T07:49:04Z</time>
      </trkpt>
      <trkpt lat="47.24539" lon="6.07251">
        <ele>274.11</ele>
        <time>2018-07-15T07:49:15Z</time>
      </trkpt>
      <trkpt lat="47.24534" lon="6.07261">
        <ele>275.56</ele>
        <time>2018-07-15T07:49:21Z</time>
      </trkpt>
      <trkpt lat="47.24538" lon="6.07268">
        <ele>276.04</ele>
        <time>2018-07-15T07:49:25Z</time>
      </trkpt>
      <trkpt lat="47.24549" lon="6.07292">
        <ele>278.92</ele>
        <time>2018-07-15T07:49:37Z</time>
      </trkpt>
      <trkpt lat="47.24563" lon="6.07295">
        <ele>280.84</ele>
        <time>2018-07-15T07:49:47Z</time>
      </trkpt>
      <trkpt lat="47.24592" lon="6.07303">
        <ele>283.25</ele>
        <time>2018-07-15T07:49:57Z</time>
      </trkpt>
      <trkpt lat="47.24606" lon="6.07313">
        <ele>286.61</ele>
        <time>2018-07-15T07:50:08Z</time>
      </trkpt>
      <trkpt lat="47.24616" lon="6.07321">
        <ele>289.01</ele>
        <time>2018-07-15T07:50:19Z</time>
      </trkpt>
      <trkpt lat="47.24624" lon="6.07332">
        <ele>291.42</ele>
        <time>2018-07-15T07:50:28Z</time>
      </trkpt>
      <trkpt lat="47.24631" lon="6.07346">
        <ele>293.82</ele>
        <time>2018-07-15T07:50:39Z</time>
      </trkpt>
      <trkpt lat="47.24635" lon="6.07351">
        <ele>294.3</ele>
        <time>2018-07-15T07:50:43Z</time>
      </trkpt>
      <trkpt lat="47.24639" lon="6.0736">
        <ele>295.74</ele>
        <time>2018-07-15T07:50:49Z</time>
      </trkpt>
      <trkpt lat="47.24647" lon="6.07372">
        <ele>299.11</ele>
        <time>2018-07-15T07:51:01Z</time>
      </trkpt>
      <trkpt lat="47.24654" lon="6.07383">
        <ele>301.99</ele>
        <time>2018-07-15T07:51:11Z</time>
      </trkpt>
      <trkpt lat="47.24662" lon="6.07395">
        <ele>303.91</ele>
        <time>2018-07-15T07:51:22Z</time>
      </trkpt>
      <trkpt lat="47.24669" lon="6.07407">
        <ele>306.32</ele>
        <time>2018-07-15T07:51:32Z</time>
      </trkpt>
      <trkpt lat="47.24678" lon="6.07417">
        <ele>308.72</ele>
        <time>2018-07-15T07:51:44Z</time>
      </trkpt>
      <trkpt lat="47.24687" lon="6.07428">
        <ele>311.12</ele>
        <time>2018-07-15T07:51:55Z</time>
      </trkpt>
      <trkpt lat="47.24688" lon="6.0743">
        <ele>311.12</ele>
        <time>2018-07-15T07:51:57Z</time>
      </trkpt>
      <trkpt lat="47.24691" lon="6.07435">
        <ele>312.09</ele>
        <time>2018-07-15T07:52:01Z</time>
      </trkpt>
      <trkpt lat="47.247" lon="6.07447">
        <ele>314.97</ele>
        <time>2018-07-15T07:52:14Z</time>
      </trkpt>
      <trkpt lat="47.24709" lon="6.07464">
        <ele>317.37</ele>
        <time>2018-07-15T07:52:27Z</time>
      </trkpt>
      <trkpt lat="47.24715" lon="6.07478">
        <ele>320.26</ele>
        <time>2018-07-15T07:52:39Z</time>
      </trkpt>
      <trkpt lat="47.24716" lon="6.07484">
        <ele>321.22</ele>
        <time>2018-07-15T07:52:51Z</time>
      </trkpt>
      <trkpt lat="47.24724" lon="6.07499">
        <ele>324.1</ele>
        <time>2018-07-15T07:53:02Z</time>
      </trkpt>
      <trkpt lat="47.24729" lon="6.07508">
        <ele>326.02</ele>
        <time>2018-07-15T07:53:11Z</time>
      </trkpt>
      <trkpt lat="47.24736" lon="6.07523">
        <ele>328.43</ele>
        <time>2018-07-15T07:53:22Z</time>
      </trkpt>
      <trkpt lat="47.24741" lon="6.07532">
        <ele>330.35</ele>
        <time>2018-07-15T07:53:32Z</time>
      </trkpt>
      <trkpt lat="47.24749" lon="6.07547">
        <ele>332.75</ele>
        <time>2018-07-15T07:53:43Z</time>
      </trkpt>
      <trkpt lat="47.24755" lon="6.0756">
        <ele>336.12</ele>
        <time>2018-07-15T07:53:56Z</time>
      </trkpt>
      <trkpt lat="47.24761" lon="6.07575">
        <ele>339</ele>
        <time>2018-07-15T07:54:08Z</time>
      </trkpt>
      <trkpt lat="47.24765" lon="6.07584">
        <ele>340.92</ele>
        <time>2018-07-15T07:54:21Z</time>
      </trkpt>
      <trkpt lat="47.2477" lon="6.07592">
        <ele>343.33</ele>
        <time>2018-07-15T07:54:32Z</time>
      </trkpt>
      <trkpt lat="47.24774" lon="6.07602">
        <ele>345.25</ele>
        <time>2018-07-15T07:54:44Z</time>
      </trkpt>
      <trkpt lat="47.2478" lon="6.07613">
        <ele>348.13</ele>
        <time>2018-07-15T07:54:54Z</time>
      </trkpt>
      <trkpt lat="47.24785" lon="6.07625">
        <ele>350.06</ele>
        <time>2018-07-15T07:55:04Z</time>
      </trkpt>
      <trkpt lat="47.24792" lon="6.07637">
        <ele>351.98</ele>
        <time>2018-07-15T07:55:14Z</time>
      </trkpt>
      <trkpt lat="47.24796" lon="6.07648">
        <ele>353.9</ele>
        <time>2018-07-15T07:55:25Z</time>
      </trkpt>
      <trkpt lat="47.24799" lon="6.07651">
        <ele>354.86</ele>
        <time>2018-07-15T07:55:37Z</time>
      </trkpt>
      <trkpt lat="47.24808" lon="6.07667">
        <ele>357.27</ele>
        <time>2018-07-15T07:55:50Z</time>
      </trkpt>
      <trkpt lat="47.24813" lon="6.07682">
        <ele>359.67</ele>
        <time>2018-07-15T07:56:03Z</time>
      </trkpt>
      <trkpt lat="47.24821" lon="6.07694">
        <ele>362.55</ele>
        <time>2018-07-15T07:56:15Z</time>
      </trkpt>
      <trkpt lat="47.2483" lon="6.07706">
        <ele>364.48</ele>
        <time>2018-07-15T07:56:26Z</time>
      </trkpt>
      <trkpt lat="47.24833" lon="6.07719">
        <ele>366.88</ele>
        <time>2018-07-15T07:56:36Z</time>
      </trkpt>
      <trkpt lat="47.2484" lon="6.07732">
        <ele>369.28</ele>
        <time>2018-07-15T07:56:47Z</time>
      </trkpt>
      <trkpt lat="47.24846" lon="6.07745">
        <ele>371.69</ele>
        <time>2018-07-15T07:56:56Z</time>
      </trkpt>
      <trkpt lat="47.24853" lon="6.07753">
        <ele>373.61</ele>
        <time>2018-07-15T07:57:05Z</time>
      </trkpt>
      <trkpt lat="47.24858" lon="6.07759">
        <ele>375.53</ele>
        <time>2018-07-15T07:57:16Z</time>
      </trkpt>
      <trkpt lat="47.24863" lon="6.07772">
        <ele>377.94</ele>
        <time>2018-07-15T07:57:27Z</time>
      </trkpt>
      <trkpt lat="47.24868" lon="6.07782">
        <ele>379.38</ele>
        <time>2018-07-15T07:57:34Z</time>
      </trkpt>
      <trkpt lat="47.2487" lon="6.07788">
        <ele>380.34</ele>
        <time>2018-07-15T07:57:37Z</time>
      </trkpt>
      <trkpt lat="47.24875" lon="6.07803">
        <ele>381.78</ele>
        <time>2018-07-15T07:57:47Z</time>
      </trkpt>
      <trkpt lat="47.24885" lon="6.07824">
        <ele>384.66</ele>
        <time>2018-07-15T07:58:00Z</time>
      </trkpt>
      <trkpt lat="47.2489" lon="6.07839">
        <ele>387.07</ele>
        <time>2018-07-15T07:58:13Z</time>
      </trkpt>
      <trkpt lat="47.24895" lon="6.07851">
        <ele>389.47</ele>
        <time>2018-07-15T07:58:22Z</time>
      </trkpt>
      <trkpt lat="47.24899" lon="6.07859">
        <ele>390.43</ele>
        <time>2018-07-15T07:58:27Z</time>
      </trkpt>
      <trkpt lat="47.249" lon="6.07862">
        <ele>390.91</ele>
        <time>2018-07-15T07:58:29Z</time>
      </trkpt>
      <trkpt lat="47.24902" lon="6.0787">
        <ele>392.36</ele>
        <time>2018-07-15T07:58:33Z</time>
      </trkpt>
      <trkpt lat="47.24907" lon="6.0789">
        <ele>395.72</ele>
        <time>2018-07-15T07:58:45Z</time>
      </trkpt>
      <trkpt lat="47.24911" lon="6.07903">
        <ele>398.12</ele>
        <time>2018-07-15T07:58:55Z</time>
      </trkpt>
      <trkpt lat="47.24913" lon="6.0791">
        <ele>399.08</ele>
        <time>2018-07-15T07:58:58Z</time>
      </trkpt>
      <trkpt lat="47.24914" lon="6.07916">
        <ele>399.57</ele>
        <time>2018-07-15T07:59:01Z</time>
      </trkpt>
      <trkpt lat="47.24914" lon="6.07927">
        <ele>401.97</ele>
        <time>2018-07-15T07:59:10Z</time>
      </trkpt>
      <trkpt lat="47.24911" lon="6.07943">
        <ele>402.93</ele>
        <time>2018-07-15T07:59:22Z</time>
      </trkpt>
      <trkpt lat="47.24907" lon="6.07958">
        <ele>401.97</ele>
        <time>2018-07-15T07:59:27Z</time>
      </trkpt>
      <trkpt lat="47.24903" lon="6.07974">
        <ele>402.93</ele>
        <time>2018-07-15T07:59:34Z</time>
      </trkpt>
      <trkpt lat="47.24897" lon="6.08">
        <ele>402.93</ele>
        <time>2018-07-15T07:59:42Z</time>
      </trkpt>
      <trkpt lat="47.24888" lon="6.08037">
        <ele>403.41</ele>
        <time>2018-07-15T07:59:52Z</time>
      </trkpt>
      <trkpt lat="47.24881" lon="6.08062">
        <ele>404.37</ele>
        <time>2018-07-15T08:00:01Z</time>
      </trkpt>
      <trkpt lat="47.24867" lon="6.08087">
        <ele>406.77</ele>
        <time>2018-07-15T08:00:13Z</time>
      </trkpt>
      <trkpt lat="47.24855" lon="6.08104">
        <ele>408.7</ele>
        <time>2018-07-15T08:00:24Z</time>
      </trkpt>
      <trkpt lat="47.24848" lon="6.08114">
        <ele>409.66</ele>
        <time>2018-07-15T08:00:33Z</time>
      </trkpt>
      <trkpt lat="47.24839" lon="6.08121">
        <ele>410.14</ele>
        <time>2018-07-15T08:00:44Z</time>
      </trkpt>
      <trkpt lat="47.24834" lon="6.08125">
        <ele>411.1</ele>
        <time>2018-07-15T08:00:49Z</time>
      </trkpt>
      <trkpt lat="47.24818" lon="6.08142">
        <ele>413.98</ele>
        <time>2018-07-15T08:00:59Z</time>
      </trkpt>
      <trkpt lat="47.24808" lon="6.08154">
        <ele>416.87</ele>
        <time>2018-07-15T08:01:11Z</time>
      </trkpt>
      <trkpt lat="47.248" lon="6.08154">
        <ele>418.31</ele>
        <time>2018-07-15T08:01:24Z</time>
      </trkpt>
      <trkpt lat="47.24793" lon="6.08155">
        <ele>420.23</ele>
        <time>2018-07-15T08:01:36Z</time>
      </trkpt>
      <trkpt lat="47.24785" lon="6.0815">
        <ele>422.16</ele>
        <time>2018-07-15T08:01:47Z</time>
      </trkpt>
      <trkpt lat="47.24773" lon="6.08141">
        <ele>424.08</ele>
        <time>2018-07-15T08:02:00Z</time>
      </trkpt>
      <trkpt lat="47.24767" lon="6.08133">
        <ele>426</ele>
        <time>2018-07-15T08:02:12Z</time>
      </trkpt>
      <trkpt lat="47.24759" lon="6.08124">
        <ele>427.92</ele>
        <time>2018-07-15T08:02:25Z</time>
      </trkpt>
      <trkpt lat="47.24757" lon="6.08115">
        <ele>428.89</ele>
        <time>2018-07-15T08:02:33Z</time>
      </trkpt>
      <trkpt lat="47.24757" lon="6.08111">
        <ele>428.89</ele>
        <time>2018-07-15T08:02:46Z</time>
      </trkpt>
      <trkpt lat="47.24755" lon="6.08111">
        <ele>429.37</ele>
        <time>2018-07-15T08:03:18Z</time>
      </trkpt>
      <trkpt lat="47.24754" lon="6.08108">
        <ele>429.37</ele>
        <time>2018-07-15T08:03:25Z</time>
      </trkpt>
      <trkpt lat="47.24751" lon="6.08102">
        <ele>430.33</ele>
        <time>2018-07-15T08:03:32Z</time>
      </trkpt>
      <trkpt lat="47.24746" lon="6.08097">
        <ele>430.81</ele>
        <time>2018-07-15T08:03:37Z</time>
      </trkpt>
      <trkpt lat="47.2473" lon="6.08085">
        <ele>433.69</ele>
        <time>2018-07-15T08:03:53Z</time>
      </trkpt>
      <trkpt lat="47.24724" lon="6.08079">
        <ele>434.65</ele>
        <time>2018-07-15T08:04:00Z</time>
      </trkpt>
      <trkpt lat="47.2472" lon="6.08076">
        <ele>435.61</ele>
        <time>2018-07-15T08:04:04Z</time>
      </trkpt>
      <trkpt lat="47.24705" lon="6.08063">
        <ele>438.5</ele>
        <time>2018-07-15T08:04:19Z</time>
      </trkpt>
      <trkpt lat="47.24699" lon="6.08058">
        <ele>439.94</ele>
        <time>2018-07-15T08:04:25Z</time>
      </trkpt>
      <trkpt lat="47.24683" lon="6.08045">
        <ele>442.82</ele>
        <time>2018-07-15T08:04:41Z</time>
      </trkpt>
      <trkpt lat="47.24676" lon="6.08037">
        <ele>444.27</ele>
        <time>2018-07-15T08:04:48Z</time>
      </trkpt>
      <trkpt lat="47.24669" lon="6.08032">
        <ele>445.23</ele>
        <time>2018-07-15T08:04:55Z</time>
      </trkpt>
      <trkpt lat="47.24656" lon="6.08023">
        <ele>447.63</ele>
        <time>2018-07-15T08:05:06Z</time>
      </trkpt>
      <trkpt lat="47.24652" lon="6.0802">
        <ele>448.11</ele>
        <time>2018-07-15T08:05:10Z</time>
      </trkpt>
      <trkpt lat="47.24635" lon="6.08004">
        <ele>450.52</ele>
        <time>2018-07-15T08:05:26Z</time>
      </trkpt>
      <trkpt lat="47.24615" lon="6.07988">
        <ele>451.96</ele>
        <time>2018-07-15T08:05:40Z</time>
      </trkpt>
      <trkpt lat="47.2461" lon="6.07995">
        <ele>451.96</ele>
        <time>2018-07-15T08:05:44Z</time>
      </trkpt>
      <trkpt lat="47.24625" lon="6.08045">
        <ele>451.96</ele>
        <time>2018-07-15T08:05:59Z</time>
      </trkpt>
      <trkpt lat="47.24629" lon="6.08061">
        <ele>452.44</ele>
        <time>2018-07-15T08:06:05Z</time>
      </trkpt>
      <trkpt lat="47.24633" lon="6.08078">
        <ele>453.4</ele>
        <time>2018-07-15T08:06:12Z</time>
      </trkpt>
      <trkpt lat="47.24633" lon="6.08085">
        <ele>453.4</ele>
        <time>2018-07-15T08:06:15Z</time>
      </trkpt>
      <trkpt lat="47.24641" lon="6.081">
        <ele>454.36</ele>
        <time>2018-07-15T08:06:21Z</time>
      </trkpt>
      <trkpt lat="47.24648" lon="6.08117">
        <ele>454.36</ele>
        <time>2018-07-15T08:06:27Z</time>
      </trkpt>
      <trkpt lat="47.2466" lon="6.08157">
        <ele>454.36</ele>
        <time>2018-07-15T08:06:39Z</time>
      </trkpt>
      <trkpt lat="47.24675" lon="6.08199">
        <ele>455.32</ele>
        <time>2018-07-15T08:06:53Z</time>
      </trkpt>
      <trkpt lat="47.24677" lon="6.08205">
        <ele>455.8</ele>
        <time>2018-07-15T08:06:55Z</time>
      </trkpt>
      <trkpt lat="47.24685" lon="6.08233">
        <ele>458.21</ele>
        <time>2018-07-15T08:07:09Z</time>
      </trkpt>
      <trkpt lat="47.24686" lon="6.08242">
        <ele>459.65</ele>
        <time>2018-07-15T08:07:14Z</time>
      </trkpt>
      <trkpt lat="47.24687" lon="6.08245">
        <ele>460.13</ele>
        <time>2018-07-15T08:07:16Z</time>
      </trkpt>
      <trkpt lat="47.24688" lon="6.08249">
        <ele>460.61</ele>
        <time>2018-07-15T08:07:19Z</time>
      </trkpt>
      <trkpt lat="47.24689" lon="6.08258">
        <ele>461.57</ele>
        <time>2018-07-15T08:07:24Z</time>
      </trkpt>
      <trkpt lat="47.24689" lon="6.08265">
        <ele>462.53</ele>
        <time>2018-07-15T08:07:28Z</time>
      </trkpt>
      <trkpt lat="47.2469" lon="6.08277">
        <ele>463.01</ele>
        <time>2018-07-15T08:07:34Z</time>
      </trkpt>
      <trkpt lat="47.2469" lon="6.08312">
        <ele>463.49</ele>
        <time>2018-07-15T08:07:46Z</time>
      </trkpt>
      <trkpt lat="47.24689" lon="6.08314">
        <ele>463.97</ele>
        <time>2018-07-15T08:07:47Z</time>
      </trkpt>
      <trkpt lat="47.24687" lon="6.08324">
        <ele>463.97</ele>
        <time>2018-07-15T08:07:51Z</time>
      </trkpt>
      <trkpt lat="47.24688" lon="6.08328">
        <ele>463.97</ele>
        <time>2018-07-15T08:07:53Z</time>
      </trkpt>
      <trkpt lat="47.24685" lon="6.08337">
        <ele>464.45</ele>
        <time>2018-07-15T08:07:57Z</time>
      </trkpt>
      <trkpt lat="47.24688" lon="6.08355">
        <ele>465.42</ele>
        <time>2018-07-15T08:08:03Z</time>
      </trkpt>
      <trkpt lat="47.24687" lon="6.08362">
        <ele>465.9</ele>
        <time>2018-07-15T08:08:06Z</time>
      </trkpt>
      <trkpt lat="47.24698" lon="6.08392">
        <ele>467.82</ele>
        <time>2018-07-15T08:08:18Z</time>
      </trkpt>
      <trkpt lat="47.24699" lon="6.08397">
        <ele>468.78</ele>
        <time>2018-07-15T08:08:21Z</time>
      </trkpt>
      <trkpt lat="47.24701" lon="6.08405">
        <ele>469.74</ele>
        <time>2018-07-15T08:08:25Z</time>
      </trkpt>
      <trkpt lat="47.24705" lon="6.08412">
        <ele>470.22</ele>
        <time>2018-07-15T08:08:28Z</time>
      </trkpt>
      <trkpt lat="47.24708" lon="6.08418">
        <ele>471.18</ele>
        <time>2018-07-15T08:08:32Z</time>
      </trkpt>
      <trkpt lat="47.2472" lon="6.08443">
        <ele>474.07</ele>
        <time>2018-07-15T08:08:46Z</time>
      </trkpt>
      <trkpt lat="47.24726" lon="6.08459">
        <ele>475.99</ele>
        <time>2018-07-15T08:08:59Z</time>
      </trkpt>
      <trkpt lat="47.24742" lon="6.08472">
        <ele>476.95</ele>
        <time>2018-07-15T08:09:10Z</time>
      </trkpt>
      <trkpt lat="47.24745" lon="6.08474">
        <ele>477.43</ele>
        <time>2018-07-15T08:09:12Z</time>
      </trkpt>
      <trkpt lat="47.24754" lon="6.08478">
        <ele>478.39</ele>
        <time>2018-07-15T08:09:17Z</time>
      </trkpt>
      <trkpt lat="47.2477" lon="6.08486">
        <ele>479.84</ele>
        <time>2018-07-15T08:09:28Z</time>
      </trkpt>
      <trkpt lat="47.24775" lon="6.08489">
        <ele>479.84</ele>
        <time>2018-07-15T08:09:31Z</time>
      </trkpt>
      <trkpt lat="47.24777" lon="6.08492">
        <ele>480.32</ele>
        <time>2018-07-15T08:09:33Z</time>
      </trkpt>
      <trkpt lat="47.24792" lon="6.08508">
        <ele>480.32</ele>
        <time>2018-07-15T08:09:44Z</time>
      </trkpt>
      <trkpt lat="47.24807" lon="6.08515">
        <ele>481.28</ele>
        <time>2018-07-15T08:09:53Z</time>
      </trkpt>
      <trkpt lat="47.24826" lon="6.08521">
        <ele>483.2</ele>
        <time>2018-07-15T08:10:03Z</time>
      </trkpt>
      <trkpt lat="47.24829" lon="6.08524">
        <ele>483.68</ele>
        <time>2018-07-15T08:10:05Z</time>
      </trkpt>
      <trkpt lat="47.24844" lon="6.08546">
        <ele>487.05</ele>
        <time>2018-07-15T08:10:18Z</time>
      </trkpt>
      <trkpt lat="47.24851" lon="6.08559">
        <ele>488.49</ele>
        <time>2018-07-15T08:10:31Z</time>
      </trkpt>
      <trkpt lat="47.24853" lon="6.08562">
        <ele>488.49</ele>
        <time>2018-07-15T08:10:33Z</time>
      </trkpt>
      <trkpt lat="47.24859" lon="6.08572">
        <ele>488.49</ele>
        <time>2018-07-15T08:10:39Z</time>
      </trkpt>
      <trkpt lat="47.24874" lon="6.08583">
        <ele>488.49</ele>
        <time>2018-07-15T08:10:48Z</time>
      </trkpt>
      <trkpt lat="47.24881" lon="6.08585">
        <ele>488.97</ele>
        <time>2018-07-15T08:10:52Z</time>
      </trkpt>
      <trkpt lat="47.24891" lon="6.08587">
        <ele>489.93</ele>
        <time>2018-07-15T08:10:57Z</time>
      </trkpt>
      <trkpt lat="47.24904" lon="6.08593">
        <ele>489.93</ele>
        <time>2018-07-15T08:11:04Z</time>
      </trkpt>
      <trkpt lat="47.24928" lon="6.08596">
        <ele>490.89</ele>
        <time>2018-07-15T08:11:15Z</time>
      </trkpt>
      <trkpt lat="47.24947" lon="6.08597">
        <ele>491.85</ele>
        <time>2018-07-15T08:11:24Z</time>
      </trkpt>
      <trkpt lat="47.24959" lon="6.08592">
        <ele>492.33</ele>
        <time>2018-07-15T08:11:30Z</time>
      </trkpt>
      <trkpt lat="47.24973" lon="6.08584">
        <ele>494.74</ele>
        <time>2018-07-15T08:11:42Z</time>
      </trkpt>
      <trkpt lat="47.24976" lon="6.08586">
        <ele>495.22</ele>
        <time>2018-07-15T08:11:46Z</time>
      </trkpt>
      <trkpt lat="47.24991" lon="6.08581">
        <ele>497.14</ele>
        <time>2018-07-15T08:11:58Z</time>
      </trkpt>
      <trkpt lat="47.25005" lon="6.08576">
        <ele>499.54</ele>
        <time>2018-07-15T08:12:10Z</time>
      </trkpt>
      <trkpt lat="47.25009" lon="6.08574">
        <ele>500.02</ele>
        <time>2018-07-15T08:12:13Z</time>
      </trkpt>
      <trkpt lat="47.25015" lon="6.08569">
        <ele>500.02</ele>
        <time>2018-07-15T08:12:18Z</time>
      </trkpt>
      <trkpt lat="47.25021" lon="6.08567">
        <ele>500.5</ele>
        <time>2018-07-15T08:12:22Z</time>
      </trkpt>
      <trkpt lat="47.2503" lon="6.08559">
        <ele>500.98</ele>
        <time>2018-07-15T08:12:26Z</time>
      </trkpt>
      <trkpt lat="47.25046" lon="6.08548">
        <ele>502.43</ele>
        <time>2018-07-15T08:12:37Z</time>
      </trkpt>
      <trkpt lat="47.25057" lon="6.08538">
        <ele>504.35</ele>
        <time>2018-07-15T08:12:48Z</time>
      </trkpt>
      <trkpt lat="47.25068" lon="6.08527">
        <ele>505.79</ele>
        <time>2018-07-15T08:12:58Z</time>
      </trkpt>
      <trkpt lat="47.25077" lon="6.08518">
        <ele>507.23</ele>
        <time>2018-07-15T08:13:06Z</time>
      </trkpt>
      <trkpt lat="47.25088" lon="6.08504">
        <ele>510.6</ele>
        <time>2018-07-15T08:13:16Z</time>
      </trkpt>
      <trkpt lat="47.2509" lon="6.085">
        <ele>510.6</ele>
        <time>2018-07-15T08:13:18Z</time>
      </trkpt>
      <trkpt lat="47.25102" lon="6.08494">
        <ele>512.52</ele>
        <time>2018-07-15T08:13:26Z</time>
      </trkpt>
      <trkpt lat="47.25104" lon="6.08495">
        <ele>512.52</ele>
        <time>2018-07-15T08:13:28Z</time>
      </trkpt>
      <trkpt lat="47.2511" lon="6.08512">
        <ele>513</ele>
        <time>2018-07-15T08:13:38Z</time>
      </trkpt>
      <trkpt lat="47.25114" lon="6.08518">
        <ele>513</ele>
        <time>2018-07-15T08:13:41Z</time>
      </trkpt>
      <trkpt lat="47.25124" lon="6.08541">
        <ele>513.96</ele>
        <time>2018-07-15T08:13:51Z</time>
      </trkpt>
      <trkpt lat="47.25131" lon="6.08566">
        <ele>515.4</ele>
        <time>2018-07-15T08:13:58Z</time>
      </trkpt>
      <trkpt lat="47.2514" lon="6.08582">
        <ele>516.85</ele>
        <time>2018-07-15T08:14:05Z</time>
      </trkpt>
      <trkpt lat="47.25142" lon="6.08595">
        <ele>517.81</ele>
        <time>2018-07-15T08:14:10Z</time>
      </trkpt>
      <trkpt lat="47.25141" lon="6.08605">
        <ele>518.29</ele>
        <time>2018-07-15T08:14:14Z</time>
      </trkpt>
      <trkpt lat="47.25143" lon="6.08618">
        <ele>518.77</ele>
        <time>2018-07-15T08:14:19Z</time>
      </trkpt>
      <trkpt lat="47.25143" lon="6.0863">
        <ele>519.73</ele>
        <time>2018-07-15T08:14:24Z</time>
      </trkpt>
      <trkpt lat="47.25144" lon="6.08638">
        <ele>520.69</ele>
        <time>2018-07-15T08:14:28Z</time>
      </trkpt>
      <trkpt lat="47.25147" lon="6.08648">
        <ele>522.61</ele>
        <time>2018-07-15T08:14:36Z</time>
      </trkpt>
      <trkpt lat="47.25145" lon="6.08669">
        <ele>524.06</ele>
        <time>2018-07-15T08:14:46Z</time>
      </trkpt>
      <trkpt lat="47.25144" lon="6.0869">
        <ele>525.5</ele>
        <time>2018-07-15T08:14:53Z</time>
      </trkpt>
      <trkpt lat="47.25145" lon="6.08708">
        <ele>527.42</ele>
        <time>2018-07-15T08:15:03Z</time>
      </trkpt>
      <trkpt lat="47.25146" lon="6.08714">
        <ele>527.42</ele>
        <time>2018-07-15T08:15:05Z</time>
      </trkpt>
      <trkpt lat="47.25148" lon="6.08744">
        <ele>528.86</ele>
        <time>2018-07-15T08:15:16Z</time>
      </trkpt>
      <trkpt lat="47.25148" lon="6.08748">
        <ele>529.34</ele>
        <time>2018-07-15T08:15:18Z</time>
      </trkpt>
      <trkpt lat="47.25148" lon="6.08759">
        <ele>529.34</ele>
        <time>2018-07-15T08:15:22Z</time>
      </trkpt>
      <trkpt lat="47.25148" lon="6.08783">
        <ele>530.3</ele>
        <time>2018-07-15T08:15:33Z</time>
      </trkpt>
      <trkpt lat="47.2515" lon="6.08798">
        <ele>531.27</ele>
        <time>2018-07-15T08:15:39Z</time>
      </trkpt>
      <trkpt lat="47.25153" lon="6.08826">
        <ele>532.71</ele>
        <time>2018-07-15T08:15:49Z</time>
      </trkpt>
      <trkpt lat="47.25154" lon="6.0885">
        <ele>534.15</ele>
        <time>2018-07-15T08:15:58Z</time>
      </trkpt>
      <trkpt lat="47.25158" lon="6.08869">
        <ele>535.59</ele>
        <time>2018-07-15T08:16:07Z</time>
      </trkpt>
      <trkpt lat="47.2516" lon="6.08899">
        <ele>537.03</ele>
        <time>2018-07-15T08:16:18Z</time>
      </trkpt>
      <trkpt lat="47.25161" lon="6.08904">
        <ele>537.51</ele>
        <time>2018-07-15T08:16:20Z</time>
      </trkpt>
      <trkpt lat="47.2516" lon="6.08914">
        <ele>537.51</ele>
        <time>2018-07-15T08:16:23Z</time>
      </trkpt>
      <trkpt lat="47.25157" lon="6.08934">
        <ele>537.99</ele>
        <time>2018-07-15T08:16:28Z</time>
      </trkpt>
      <trkpt lat="47.25149" lon="6.08975">
        <ele>538.48</ele>
        <time>2018-07-15T08:16:39Z</time>
      </trkpt>
      <trkpt lat="47.25152" lon="6.09003">
        <ele>537.51</ele>
        <time>2018-07-15T08:16:46Z</time>
      </trkpt>
      <trkpt lat="47.25154" lon="6.09009">
        <ele>537.03</ele>
        <time>2018-07-15T08:16:47Z</time>
      </trkpt>
      <trkpt lat="47.25155" lon="6.09016">
        <ele>536.55</ele>
        <time>2018-07-15T08:16:48Z</time>
      </trkpt>
      <trkpt lat="47.25156" lon="6.09023">
        <ele>536.07</ele>
        <time>2018-07-15T08:16:49Z</time>
      </trkpt>
      <trkpt lat="47.25156" lon="6.09031">
        <ele>536.55</ele>
        <time>2018-07-15T08:16:50Z</time>
      </trkpt>
      <trkpt lat="47.25155" lon="6.09037">
        <ele>536.55</ele>
        <time>2018-07-15T08:16:51Z</time>
      </trkpt>
      <trkpt lat="47.25155" lon="6.09044">
        <ele>536.55</ele>
        <time>2018-07-15T08:16:52Z</time>
      </trkpt>
      <trkpt lat="47.25153" lon="6.09049">
        <ele>536.55</ele>
        <time>2018-07-15T08:16:53Z</time>
      </trkpt>
      <trkpt lat="47.2514" lon="6.09116">
        <ele>537.99</ele>
        <time>2018-07-15T08:17:07Z</time>
      </trkpt>
      <trkpt lat="47.2512" lon="6.09163">
        <ele>540.88</ele>
        <time>2018-07-15T08:17:20Z</time>
      </trkpt>
      <trkpt lat="47.25092" lon="6.09197">
        <ele>543.28</ele>
        <time>2018-07-15T08:17:33Z</time>
      </trkpt>
      <trkpt lat="47.25063" lon="6.09245">
        <ele>543.76</ele>
        <time>2018-07-15T08:17:48Z</time>
      </trkpt>
      <trkpt lat="47.25047" lon="6.09288">
        <ele>544.24</ele>
        <time>2018-07-15T08:18:00Z</time>
      </trkpt>
      <trkpt lat="47.25044" lon="6.09337">
        <ele>544.72</ele>
        <time>2018-07-15T08:18:12Z</time>
      </trkpt>
      <trkpt lat="47.25047" lon="6.09393">
        <ele>548.09</ele>
        <time>2018-07-15T08:18:28Z</time>
      </trkpt>
      <trkpt lat="47.25047" lon="6.09438">
        <ele>550.49</ele>
        <time>2018-07-15T08:18:41Z</time>
      </trkpt>
      <trkpt lat="47.25051" lon="6.09481">
        <ele>551.45</ele>
        <time>2018-07-15T08:18:53Z</time>
      </trkpt>
      <trkpt lat="47.25053" lon="6.09521">
        <ele>554.34</ele>
        <time>2018-07-15T08:19:06Z</time>
      </trkpt>
      <trkpt lat="47.25054" lon="6.09548">
        <ele>555.3</ele>
        <time>2018-07-15T08:19:15Z</time>
      </trkpt>
      <trkpt lat="47.25053" lon="6.09551">
        <ele>555.78</ele>
        <time>2018-07-15T08:19:16Z</time>
      </trkpt>
      <trkpt lat="47.25053" lon="6.09555">
        <ele>555.78</ele>
        <time>2018-07-15T08:19:17Z</time>
      </trkpt>
      <trkpt lat="47.25053" lon="6.09558">
        <ele>556.26</ele>
        <time>2018-07-15T08:19:18Z</time>
      </trkpt>
      <trkpt lat="47.25053" lon="6.09562">
        <ele>556.26</ele>
        <time>2018-07-15T08:19:19Z</time>
      </trkpt>
      <trkpt lat="47.25053" lon="6.09564">
        <ele>556.26</ele>
        <time>2018-07-15T08:19:20Z</time>
      </trkpt>
      <trkpt lat="47.2505" lon="6.09581">
        <ele>557.7</ele>
        <time>2018-07-15T08:19:26Z</time>
      </trkpt>
      <trkpt lat="47.25051" lon="6.09584">
        <ele>557.7</ele>
        <time>2018-07-15T08:19:27Z</time>
      </trkpt>
      <trkpt lat="47.25052" lon="6.09588">
        <ele>557.7</ele>
        <time>2018-07-15T08:19:28Z</time>
      </trkpt>
      <trkpt lat="47.25053" lon="6.09592">
        <ele>557.7</ele>
        <time>2018-07-15T08:19:29Z</time>
      </trkpt>
      <trkpt lat="47.25054" lon="6.09596">
        <ele>558.18</ele>
        <time>2018-07-15T08:19:30Z</time>
      </trkpt>
      <trkpt lat="47.25061" lon="6.09651">
        <ele>559.62</ele>
        <time>2018-07-15T08:19:44Z</time>
      </trkpt>
      <trkpt lat="47.25062" lon="6.09697">
        <ele>562.03</ele>
        <time>2018-07-15T08:19:57Z</time>
      </trkpt>
      <trkpt lat="47.25056" lon="6.09743">
        <ele>563.95</ele>
        <time>2018-07-15T08:20:10Z</time>
      </trkpt>
      <trkpt lat="47.25038" lon="6.09784">
        <ele>565.39</ele>
        <time>2018-07-15T08:20:25Z</time>
      </trkpt>
      <trkpt lat="47.25019" lon="6.0979">
        <ele>565.39</ele>
        <time>2018-07-15T08:20:32Z</time>
      </trkpt>
      <trkpt lat="47.24987" lon="6.09791">
        <ele>563.95</ele>
        <time>2018-07-15T08:20:41Z</time>
      </trkpt>
      <trkpt lat="47.24977" lon="6.09794">
        <ele>562.99</ele>
        <time>2018-07-15T08:20:43Z</time>
      </trkpt>
      <trkpt lat="47.24972" lon="6.09796">
        <ele>562.51</ele>
        <time>2018-07-15T08:20:44Z</time>
      </trkpt>
      <trkpt lat="47.24967" lon="6.09798">
        <ele>562.51</ele>
        <time>2018-07-15T08:20:45Z</time>
      </trkpt>
      <trkpt lat="47.24948" lon="6.09806">
        <ele>561.07</ele>
        <time>2018-07-15T08:20:51Z</time>
      </trkpt>
      <trkpt lat="47.24948" lon="6.09805">
        <ele>561.55</ele>
        <time>2018-07-15T08:20:52Z</time>
      </trkpt>
      <trkpt lat="47.24948" lon="6.09803">
        <ele>561.55</ele>
        <time>2018-07-15T08:20:53Z</time>
      </trkpt>
      <trkpt lat="47.24948" lon="6.09802">
        <ele>561.55</ele>
        <time>2018-07-15T08:20:54Z</time>
      </trkpt>
      <trkpt lat="47.24949" lon="6.098">
        <ele>561.55</ele>
        <time>2018-07-15T08:20:55Z</time>
      </trkpt>
      <trkpt lat="47.24951" lon="6.09783">
        <ele>562.51</ele>
        <time>2018-07-15T08:21:01Z</time>
      </trkpt>
      <trkpt lat="47.24951" lon="6.0978">
        <ele>562.51</ele>
        <time>2018-07-15T08:21:02Z</time>
      </trkpt>
      <trkpt lat="47.24954" lon="6.09759">
        <ele>564.43</ele>
        <time>2018-07-15T08:21:10Z</time>
      </trkpt>
      <trkpt lat="47.24954" lon="6.09757">
        <ele>564.43</ele>
        <time>2018-07-15T08:21:11Z</time>
      </trkpt>
      <trkpt lat="47.24953" lon="6.09755">
        <ele>564.43</ele>
        <time>2018-07-15T08:21:12Z</time>
      </trkpt>
      <trkpt lat="47.24951" lon="6.09754">
        <ele>564.43</ele>
        <time>2018-07-15T08:21:13Z</time>
      </trkpt>
      <trkpt lat="47.24949" lon="6.09751">
        <ele>564.43</ele>
        <time>2018-07-15T08:21:14Z</time>
      </trkpt>
      <trkpt lat="47.24948" lon="6.09748">
        <ele>563.95</ele>
        <time>2018-07-15T08:21:15Z</time>
      </trkpt>
      <trkpt lat="47.24946" lon="6.09745">
        <ele>563.95</ele>
        <time>2018-07-15T08:21:16Z</time>
      </trkpt>
      <trkpt lat="47.24931" lon="6.09702">
        <ele>564.91</ele>
        <time>2018-07-15T08:21:28Z</time>
      </trkpt>
      <trkpt lat="47.24909" lon="6.09646">
        <ele>565.87</ele>
        <time>2018-07-15T08:21:42Z</time>
      </trkpt>
      <trkpt lat="47.24887" lon="6.09584">
        <ele>567.8</ele>
        <time>2018-07-15T08:21:57Z</time>
      </trkpt>
      <trkpt lat="47.24871" lon="6.0951">
        <ele>569.72</ele>
        <time>2018-07-15T08:22:14Z</time>
      </trkpt>
      <trkpt lat="47.24874" lon="6.09455">
        <ele>571.64</ele>
        <time>2018-07-15T08:22:27Z</time>
      </trkpt>
      <trkpt lat="47.24876" lon="6.0941">
        <ele>572.6</ele>
        <time>2018-07-15T08:22:39Z</time>
      </trkpt>
      <trkpt lat="47.24857" lon="6.09375">
        <ele>573.56</ele>
        <time>2018-07-15T08:22:50Z</time>
      </trkpt>
      <trkpt lat="47.24841" lon="6.0935">
        <ele>574.53</ele>
        <time>2018-07-15T08:22:59Z</time>
      </trkpt>
      <trkpt lat="47.24831" lon="6.09324">
        <ele>575.49</ele>
        <time>2018-07-15T08:23:06Z</time>
      </trkpt>
      <trkpt lat="47.24832" lon="6.09321">
        <ele>575.49</ele>
        <time>2018-07-15T08:23:07Z</time>
      </trkpt>
      <trkpt lat="47.24832" lon="6.09318">
        <ele>575.49</ele>
        <time>2018-07-15T08:23:08Z</time>
      </trkpt>
      <trkpt lat="47.24833" lon="6.09316">
        <ele>575.97</ele>
        <time>2018-07-15T08:23:09Z</time>
      </trkpt>
      <trkpt lat="47.24834" lon="6.09313">
        <ele>576.45</ele>
        <time>2018-07-15T08:23:10Z</time>
      </trkpt>
      <trkpt lat="47.24834" lon="6.0931">
        <ele>576.45</ele>
        <time>2018-07-15T08:23:11Z</time>
      </trkpt>
      <trkpt lat="47.24835" lon="6.09307">
        <ele>576.93</ele>
        <time>2018-07-15T08:23:12Z</time>
      </trkpt>
      <trkpt lat="47.24835" lon="6.09305">
        <ele>576.93</ele>
        <time>2018-07-15T08:23:13Z</time>
      </trkpt>
      <trkpt lat="47.24834" lon="6.09301">
        <ele>577.41</ele>
        <time>2018-07-15T08:23:15Z</time>
      </trkpt>
      <trkpt lat="47.24833" lon="6.09299">
        <ele>577.89</ele>
        <time>2018-07-15T08:23:16Z</time>
      </trkpt>
      <trkpt lat="47.24833" lon="6.09296">
        <ele>578.37</ele>
        <time>2018-07-15T08:23:17Z</time>
      </trkpt>
      <trkpt lat="47.24831" lon="6.09293">
        <ele>578.37</ele>
        <time>2018-07-15T08:23:18Z</time>
      </trkpt>
      <trkpt lat="47.2483" lon="6.09292">
        <ele>578.37</ele>
        <time>2018-07-15T08:23:19Z</time>
      </trkpt>
      <trkpt lat="47.24829" lon="6.09291">
        <ele>578.85</ele>
        <time>2018-07-15T08:23:20Z</time>
      </trkpt>
      <trkpt lat="47.24828" lon="6.0929">
        <ele>578.85</ele>
        <time>2018-07-15T08:23:21Z</time>
      </trkpt>
      <trkpt lat="47.24825" lon="6.0929">
        <ele>578.85</ele>
        <time>2018-07-15T08:23:23Z</time>
      </trkpt>
      <trkpt lat="47.24824" lon="6.0929">
        <ele>578.85</ele>
        <time>2018-07-15T08:23:24Z</time>
      </trkpt>
      <trkpt lat="47.24822" lon="6.09291">
        <ele>579.33</ele>
        <time>2018-07-15T08:23:25Z</time>
      </trkpt>
      <trkpt lat="47.2482" lon="6.09292">
        <ele>579.33</ele>
        <time>2018-07-15T08:23:26Z</time>
      </trkpt>
      <trkpt lat="47.24818" lon="6.09292">
        <ele>579.33</ele>
        <time>2018-07-15T08:23:27Z</time>
      </trkpt>
      <trkpt lat="47.24816" lon="6.09292">
        <ele>579.33</ele>
        <time>2018-07-15T08:23:28Z</time>
      </trkpt>
      <trkpt lat="47.24813" lon="6.09292">
        <ele>579.33</ele>
        <time>2018-07-15T08:23:29Z</time>
      </trkpt>
      <trkpt lat="47.24811" lon="6.09293">
        <ele>579.33</ele>
        <time>2018-07-15T08:23:30Z</time>
      </trkpt>
      <trkpt lat="47.24799" lon="6.09295">
        <ele>579.33</ele>
        <time>2018-07-15T08:23:36Z</time>
      </trkpt>
      <trkpt lat="47.24796" lon="6.09296">
        <ele>579.33</ele>
        <time>2018-07-15T08:23:37Z</time>
      </trkpt>
      <trkpt lat="47.24794" lon="6.09296">
        <ele>579.81</ele>
        <time>2018-07-15T08:23:38Z</time>
      </trkpt>
      <trkpt lat="47.24791" lon="6.09295">
        <ele>579.81</ele>
        <time>2018-07-15T08:23:39Z</time>
      </trkpt>
      <trkpt lat="47.24788" lon="6.09295">
        <ele>579.81</ele>
        <time>2018-07-15T08:23:40Z</time>
      </trkpt>
      <trkpt lat="47.24785" lon="6.09295">
        <ele>580.29</ele>
        <time>2018-07-15T08:23:41Z</time>
      </trkpt>
      <trkpt lat="47.24775" lon="6.09296">
        <ele>580.29</ele>
        <time>2018-07-15T08:23:44Z</time>
      </trkpt>
      <trkpt lat="47.24773" lon="6.09295">
        <ele>580.29</ele>
        <time>2018-07-15T08:23:45Z</time>
      </trkpt>
      <trkpt lat="47.2477" lon="6.09295">
        <ele>580.29</ele>
        <time>2018-07-15T08:23:46Z</time>
      </trkpt>
      <trkpt lat="47.24768" lon="6.09295">
        <ele>580.77</ele>
        <time>2018-07-15T08:23:47Z</time>
      </trkpt>
      <trkpt lat="47.24766" lon="6.09294">
        <ele>580.77</ele>
        <time>2018-07-15T08:23:48Z</time>
      </trkpt>
      <trkpt lat="47.24746" lon="6.09293">
        <ele>582.22</ele>
        <time>2018-07-15T08:23:55Z</time>
      </trkpt>
      <trkpt lat="47.24711" lon="6.09286">
        <ele>582.7</ele>
        <time>2018-07-15T08:24:05Z</time>
      </trkpt>
      <trkpt lat="47.24694" lon="6.09276">
        <ele>583.66</ele>
        <time>2018-07-15T08:24:11Z</time>
      </trkpt>
      <trkpt lat="47.24691" lon="6.09273">
        <ele>583.66</ele>
        <time>2018-07-15T08:24:12Z</time>
      </trkpt>
      <trkpt lat="47.2469" lon="6.09271">
        <ele>584.14</ele>
        <time>2018-07-15T08:24:13Z</time>
      </trkpt>
      <trkpt lat="47.24687" lon="6.09269">
        <ele>584.14</ele>
        <time>2018-07-15T08:24:14Z</time>
      </trkpt>
      <trkpt lat="47.24685" lon="6.09266">
        <ele>584.14</ele>
        <time>2018-07-15T08:24:15Z</time>
      </trkpt>
      <trkpt lat="47.24682" lon="6.09264">
        <ele>584.62</ele>
        <time>2018-07-15T08:24:16Z</time>
      </trkpt>
      <trkpt lat="47.24657" lon="6.09233">
        <ele>585.58</ele>
        <time>2018-07-15T08:24:27Z</time>
      </trkpt>
      <trkpt lat="47.24633" lon="6.09202">
        <ele>586.54</ele>
        <time>2018-07-15T08:24:37Z</time>
      </trkpt>
      <trkpt lat="47.24604" lon="6.09145">
        <ele>588.46</ele>
        <time>2018-07-15T08:24:53Z</time>
      </trkpt>
      <trkpt lat="47.24582" lon="6.0909">
        <ele>589.91</ele>
        <time>2018-07-15T08:25:08Z</time>
      </trkpt>
      <trkpt lat="47.2456" lon="6.09035">
        <ele>591.35</ele>
        <time>2018-07-15T08:25:22Z</time>
      </trkpt>
      <trkpt lat="47.24538" lon="6.08976">
        <ele>592.79</ele>
        <time>2018-07-15T08:25:37Z</time>
      </trkpt>
      <trkpt lat="47.24519" lon="6.08925">
        <ele>594.23</ele>
        <time>2018-07-15T08:25:49Z</time>
      </trkpt>
      <trkpt lat="47.24503" lon="6.08887">
        <ele>595.19</ele>
        <time>2018-07-15T08:25:59Z</time>
      </trkpt>
      <trkpt lat="47.24493" lon="6.08858">
        <ele>595.67</ele>
        <time>2018-07-15T08:26:08Z</time>
      </trkpt>
      <trkpt lat="47.24503" lon="6.08844">
        <ele>597.6</ele>
        <time>2018-07-15T08:26:13Z</time>
      </trkpt>
      <trkpt lat="47.24507" lon="6.08839">
        <ele>598.56</ele>
        <time>2018-07-15T08:26:16Z</time>
      </trkpt>
      <trkpt lat="47.24511" lon="6.08834">
        <ele>600</ele>
        <time>2018-07-15T08:26:20Z</time>
      </trkpt>
      <trkpt lat="47.24504" lon="6.08815">
        <ele>598.08</ele>
        <time>2018-07-15T08:26:29Z</time>
      </trkpt>
      <trkpt lat="47.24472" lon="6.08774">
        <ele>597.12</ele>
        <time>2018-07-15T08:26:42Z</time>
      </trkpt>
      <trkpt lat="47.24461" lon="6.08753">
        <ele>597.12</ele>
        <time>2018-07-15T08:26:48Z</time>
      </trkpt>
      <trkpt lat="47.2448" lon="6.08693">
        <ele>597.12</ele>
        <time>2018-07-15T08:27:01Z</time>
      </trkpt>
      <trkpt lat="47.24501" lon="6.0865">
        <ele>596.64</ele>
        <time>2018-07-15T08:27:12Z</time>
      </trkpt>
      <trkpt lat="47.24511" lon="6.08628">
        <ele>595.67</ele>
        <time>2018-07-15T08:27:16Z</time>
      </trkpt>
      <trkpt lat="47.2452" lon="6.086">
        <ele>593.27</ele>
        <time>2018-07-15T08:27:20Z</time>
      </trkpt>
      <trkpt lat="47.24521" lon="6.08593">
        <ele>592.79</ele>
        <time>2018-07-15T08:27:21Z</time>
      </trkpt>
      <trkpt lat="47.24521" lon="6.08587">
        <ele>592.79</ele>
        <time>2018-07-15T08:27:22Z</time>
      </trkpt>
      <trkpt lat="47.24519" lon="6.08581">
        <ele>592.79</ele>
        <time>2018-07-15T08:27:23Z</time>
      </trkpt>
      <trkpt lat="47.24515" lon="6.08577">
        <ele>593.27</ele>
        <time>2018-07-15T08:27:24Z</time>
      </trkpt>
      <trkpt lat="47.24512" lon="6.08573">
        <ele>593.27</ele>
        <time>2018-07-15T08:27:25Z</time>
      </trkpt>
      <trkpt lat="47.24477" lon="6.08544">
        <ele>595.67</ele>
        <time>2018-07-15T08:27:36Z</time>
      </trkpt>
      <trkpt lat="47.2444" lon="6.08524">
        <ele>596.15</ele>
        <time>2018-07-15T08:27:47Z</time>
      </trkpt>
      <trkpt lat="47.24428" lon="6.08524">
        <ele>595.67</ele>
        <time>2018-07-15T08:27:50Z</time>
      </trkpt>
      <trkpt lat="47.24423" lon="6.08525">
        <ele>595.19</ele>
        <time>2018-07-15T08:27:51Z</time>
      </trkpt>
      <trkpt lat="47.24419" lon="6.08526">
        <ele>595.19</ele>
        <time>2018-07-15T08:27:52Z</time>
      </trkpt>
      <trkpt lat="47.24415" lon="6.08529">
        <ele>594.71</ele>
        <time>2018-07-15T08:27:53Z</time>
      </trkpt>
      <trkpt lat="47.24411" lon="6.08531">
        <ele>594.71</ele>
        <time>2018-07-15T08:27:54Z</time>
      </trkpt>
      <trkpt lat="47.24403" lon="6.08539">
        <ele>594.71</ele>
        <time>2018-07-15T08:27:56Z</time>
      </trkpt>
      <trkpt lat="47.244" lon="6.08543">
        <ele>594.71</ele>
        <time>2018-07-15T08:27:57Z</time>
      </trkpt>
      <trkpt lat="47.24395" lon="6.08547">
        <ele>594.71</ele>
        <time>2018-07-15T08:27:58Z</time>
      </trkpt>
      <trkpt lat="47.24379" lon="6.08559">
        <ele>594.71</ele>
        <time>2018-07-15T08:28:01Z</time>
      </trkpt>
      <trkpt lat="47.24373" lon="6.08561">
        <ele>594.71</ele>
        <time>2018-07-15T08:28:02Z</time>
      </trkpt>
      <trkpt lat="47.24368" lon="6.08562">
        <ele>594.71</ele>
        <time>2018-07-15T08:28:03Z</time>
      </trkpt>
      <trkpt lat="47.24363" lon="6.08562">
        <ele>594.71</ele>
        <time>2018-07-15T08:28:04Z</time>
      </trkpt>
      <trkpt lat="47.24359" lon="6.08562">
        <ele>594.71</ele>
        <time>2018-07-15T08:28:05Z</time>
      </trkpt>
      <trkpt lat="47.24353" lon="6.08561">
        <ele>594.71</ele>
        <time>2018-07-15T08:28:06Z</time>
      </trkpt>
      <trkpt lat="47.24349" lon="6.0856">
        <ele>594.71</ele>
        <time>2018-07-15T08:28:07Z</time>
      </trkpt>
      <trkpt lat="47.24344" lon="6.08558">
        <ele>595.19</ele>
        <time>2018-07-15T08:28:08Z</time>
      </trkpt>
      <trkpt lat="47.24298" lon="6.08538">
        <ele>594.71</ele>
        <time>2018-07-15T08:28:18Z</time>
      </trkpt>
      <trkpt lat="47.24293" lon="6.08536">
        <ele>594.23</ele>
        <time>2018-07-15T08:28:19Z</time>
      </trkpt>
      <trkpt lat="47.24288" lon="6.08534">
        <ele>594.23</ele>
        <time>2018-07-15T08:28:20Z</time>
      </trkpt>
      <trkpt lat="47.24283" lon="6.08532">
        <ele>593.75</ele>
        <time>2018-07-15T08:28:21Z</time>
      </trkpt>
      <trkpt lat="47.24278" lon="6.08529">
        <ele>593.75</ele>
        <time>2018-07-15T08:28:22Z</time>
      </trkpt>
      <trkpt lat="47.24268" lon="6.08524">
        <ele>593.27</ele>
        <time>2018-07-15T08:28:24Z</time>
      </trkpt>
      <trkpt lat="47.24234" lon="6.08507">
        <ele>592.79</ele>
        <time>2018-07-15T08:28:31Z</time>
      </trkpt>
      <trkpt lat="47.24229" lon="6.08505">
        <ele>592.79</ele>
        <time>2018-07-15T08:28:32Z</time>
      </trkpt>
      <trkpt lat="47.24184" lon="6.08476">
        <ele>589.43</ele>
        <time>2018-07-15T08:28:40Z</time>
      </trkpt>
      <trkpt lat="47.24172" lon="6.08469">
        <ele>588.46</ele>
        <time>2018-07-15T08:28:42Z</time>
      </trkpt>
      <trkpt lat="47.24154" lon="6.08454">
        <ele>587.98</ele>
        <time>2018-07-15T08:28:48Z</time>
      </trkpt>
      <trkpt lat="47.2415" lon="6.08451">
        <ele>587.5</ele>
        <time>2018-07-15T08:28:49Z</time>
      </trkpt>
      <trkpt lat="47.24147" lon="6.08447">
        <ele>587.5</ele>
        <time>2018-07-15T08:28:50Z</time>
      </trkpt>
      <trkpt lat="47.24146" lon="6.08442">
        <ele>587.98</ele>
        <time>2018-07-15T08:28:51Z</time>
      </trkpt>
      <trkpt lat="47.24146" lon="6.08437">
        <ele>587.98</ele>
        <time>2018-07-15T08:28:52Z</time>
      </trkpt>
      <trkpt lat="47.24134" lon="6.08385">
        <ele>590.39</ele>
        <time>2018-07-15T08:29:04Z</time>
      </trkpt>
      <trkpt lat="47.24122" lon="6.08315">
        <ele>592.31</ele>
        <time>2018-07-15T08:29:18Z</time>
      </trkpt>
      <trkpt lat="47.24129" lon="6.08256">
        <ele>594.23</ele>
        <time>2018-07-15T08:29:32Z</time>
      </trkpt>
      <trkpt lat="47.24127" lon="6.08245">
        <ele>594.71</ele>
        <time>2018-07-15T08:29:35Z</time>
      </trkpt>
      <trkpt lat="47.24123" lon="6.08241">
        <ele>594.23</ele>
        <time>2018-07-15T08:29:37Z</time>
      </trkpt>
      <trkpt lat="47.24117" lon="6.08223">
        <ele>592.79</ele>
        <time>2018-07-15T08:29:42Z</time>
      </trkpt>
      <trkpt lat="47.24097" lon="6.08198">
        <ele>589.43</ele>
        <time>2018-07-15T08:29:50Z</time>
      </trkpt>
      <trkpt lat="47.24074" lon="6.08173">
        <ele>585.58</ele>
        <time>2018-07-15T08:29:57Z</time>
      </trkpt>
      <trkpt lat="47.24065" lon="6.08166">
        <ele>584.62</ele>
        <time>2018-07-15T08:29:59Z</time>
      </trkpt>
      <trkpt lat="47.24061" lon="6.08164">
        <ele>584.14</ele>
        <time>2018-07-15T08:30:00Z</time>
      </trkpt>
      <trkpt lat="47.24041" lon="6.08147">
        <ele>581.73</ele>
        <time>2018-07-15T08:30:09Z</time>
      </trkpt>
      <trkpt lat="47.24031" lon="6.08131">
        <ele>579.81</ele>
        <time>2018-07-15T08:30:13Z</time>
      </trkpt>
      <trkpt lat="47.24028" lon="6.08126">
        <ele>578.37</ele>
        <time>2018-07-15T08:30:14Z</time>
      </trkpt>
      <trkpt lat="47.24025" lon="6.08122">
        <ele>577.89</ele>
        <time>2018-07-15T08:30:15Z</time>
      </trkpt>
      <trkpt lat="47.24021" lon="6.08119">
        <ele>577.41</ele>
        <time>2018-07-15T08:30:16Z</time>
      </trkpt>
      <trkpt lat="47.24017" lon="6.08116">
        <ele>576.45</ele>
        <time>2018-07-15T08:30:17Z</time>
      </trkpt>
      <trkpt lat="47.24013" lon="6.08112">
        <ele>575.49</ele>
        <time>2018-07-15T08:30:18Z</time>
      </trkpt>
      <trkpt lat="47.24009" lon="6.08107">
        <ele>575.01</ele>
        <time>2018-07-15T08:30:19Z</time>
      </trkpt>
      <trkpt lat="47.24004" lon="6.08102">
        <ele>574.53</ele>
        <time>2018-07-15T08:30:20Z</time>
      </trkpt>
      <trkpt lat="47.23999" lon="6.08098">
        <ele>574.04</ele>
        <time>2018-07-15T08:30:21Z</time>
      </trkpt>
      <trkpt lat="47.23994" lon="6.08095">
        <ele>573.56</ele>
        <time>2018-07-15T08:30:22Z</time>
      </trkpt>
      <trkpt lat="47.23988" lon="6.08093">
        <ele>572.6</ele>
        <time>2018-07-15T08:30:23Z</time>
      </trkpt>
      <trkpt lat="47.23982" lon="6.08091">
        <ele>571.64</ele>
        <time>2018-07-15T08:30:24Z</time>
      </trkpt>
      <trkpt lat="47.23977" lon="6.08089">
        <ele>571.64</ele>
        <time>2018-07-15T08:30:25Z</time>
      </trkpt>
      <trkpt lat="47.23954" lon="6.08094">
        <ele>570.2</ele>
        <time>2018-07-15T08:30:32Z</time>
      </trkpt>
      <trkpt lat="47.2395" lon="6.08092">
        <ele>569.72</ele>
        <time>2018-07-15T08:30:33Z</time>
      </trkpt>
      <trkpt lat="47.23928" lon="6.08076">
        <ele>566.35</ele>
        <time>2018-07-15T08:30:37Z</time>
      </trkpt>
      <trkpt lat="47.23917" lon="6.08066">
        <ele>563.95</ele>
        <time>2018-07-15T08:30:39Z</time>
      </trkpt>
      <trkpt lat="47.23893" lon="6.08056">
        <ele>560.59</ele>
        <time>2018-07-15T08:30:43Z</time>
      </trkpt>
      <trkpt lat="47.23886" lon="6.08055">
        <ele>560.11</ele>
        <time>2018-07-15T08:30:44Z</time>
      </trkpt>
      <trkpt lat="47.23881" lon="6.08054">
        <ele>560.11</ele>
        <time>2018-07-15T08:30:45Z</time>
      </trkpt>
      <trkpt lat="47.23872" lon="6.08054">
        <ele>559.14</ele>
        <time>2018-07-15T08:30:51Z</time>
      </trkpt>
      <trkpt lat="47.23865" lon="6.08055">
        <ele>557.7</ele>
        <time>2018-07-15T08:30:54Z</time>
      </trkpt>
      <trkpt lat="47.23861" lon="6.08055">
        <ele>557.7</ele>
        <time>2018-07-15T08:30:55Z</time>
      </trkpt>
      <trkpt lat="47.23858" lon="6.08054">
        <ele>557.22</ele>
        <time>2018-07-15T08:30:56Z</time>
      </trkpt>
      <trkpt lat="47.23855" lon="6.08055">
        <ele>557.22</ele>
        <time>2018-07-15T08:30:57Z</time>
      </trkpt>
      <trkpt lat="47.23838" lon="6.08052">
        <ele>555.3</ele>
        <time>2018-07-15T08:31:01Z</time>
      </trkpt>
      <trkpt lat="47.23833" lon="6.08054">
        <ele>554.82</ele>
        <time>2018-07-15T08:31:02Z</time>
      </trkpt>
      <trkpt lat="47.23828" lon="6.08059">
        <ele>553.86</ele>
        <time>2018-07-15T08:31:03Z</time>
      </trkpt>
      <trkpt lat="47.23817" lon="6.08071">
        <ele>552.41</ele>
        <time>2018-07-15T08:31:05Z</time>
      </trkpt>
      <trkpt lat="47.23811" lon="6.08077">
        <ele>551.45</ele>
        <time>2018-07-15T08:31:06Z</time>
      </trkpt>
      <trkpt lat="47.23805" lon="6.08081">
        <ele>551.45</ele>
        <time>2018-07-15T08:31:07Z</time>
      </trkpt>
      <trkpt lat="47.23798" lon="6.08085">
        <ele>551.45</ele>
        <time>2018-07-15T08:31:08Z</time>
      </trkpt>
      <trkpt lat="47.23791" lon="6.08088">
        <ele>551.45</ele>
        <time>2018-07-15T08:31:09Z</time>
      </trkpt>
      <trkpt lat="47.23784" lon="6.08088">
        <ele>550.97</ele>
        <time>2018-07-15T08:31:10Z</time>
      </trkpt>
      <trkpt lat="47.23776" lon="6.08086">
        <ele>550.01</ele>
        <time>2018-07-15T08:31:11Z</time>
      </trkpt>
      <trkpt lat="47.23769" lon="6.08082">
        <ele>548.57</ele>
        <time>2018-07-15T08:31:12Z</time>
      </trkpt>
      <trkpt lat="47.23762" lon="6.08078">
        <ele>547.13</ele>
        <time>2018-07-15T08:31:13Z</time>
      </trkpt>
      <trkpt lat="47.23755" lon="6.08074">
        <ele>546.17</ele>
        <time>2018-07-15T08:31:14Z</time>
      </trkpt>
      <trkpt lat="47.23748" lon="6.08072">
        <ele>545.69</ele>
        <time>2018-07-15T08:31:15Z</time>
      </trkpt>
      <trkpt lat="47.23742" lon="6.08073">
        <ele>545.69</ele>
        <time>2018-07-15T08:31:16Z</time>
      </trkpt>
      <trkpt lat="47.23736" lon="6.08077">
        <ele>544.72</ele>
        <time>2018-07-15T08:31:17Z</time>
      </trkpt>
      <trkpt lat="47.2373" lon="6.08083">
        <ele>543.76</ele>
        <time>2018-07-15T08:31:18Z</time>
      </trkpt>
      <trkpt lat="47.23723" lon="6.0809">
        <ele>543.28</ele>
        <time>2018-07-15T08:31:19Z</time>
      </trkpt>
      <trkpt lat="47.23703" lon="6.08111">
        <ele>540.88</ele>
        <time>2018-07-15T08:31:22Z</time>
      </trkpt>
      <trkpt lat="47.23696" lon="6.08117">
        <ele>539.92</ele>
        <time>2018-07-15T08:31:23Z</time>
      </trkpt>
      <trkpt lat="47.23675" lon="6.08132">
        <ele>537.99</ele>
        <time>2018-07-15T08:31:26Z</time>
      </trkpt>
      <trkpt lat="47.23661" lon="6.08136">
        <ele>536.55</ele>
        <time>2018-07-15T08:31:28Z</time>
      </trkpt>
      <trkpt lat="47.23656" lon="6.08134">
        <ele>536.07</ele>
        <time>2018-07-15T08:31:29Z</time>
      </trkpt>
      <trkpt lat="47.23653" lon="6.0813">
        <ele>535.59</ele>
        <time>2018-07-15T08:31:30Z</time>
      </trkpt>
      <trkpt lat="47.23651" lon="6.08124">
        <ele>535.11</ele>
        <time>2018-07-15T08:31:31Z</time>
      </trkpt>
      <trkpt lat="47.23653" lon="6.08114">
        <ele>535.11</ele>
        <time>2018-07-15T08:31:32Z</time>
      </trkpt>
      <trkpt lat="47.23653" lon="6.08106">
        <ele>535.11</ele>
        <time>2018-07-15T08:31:33Z</time>
      </trkpt>
      <trkpt lat="47.23652" lon="6.08099">
        <ele>534.15</ele>
        <time>2018-07-15T08:31:34Z</time>
      </trkpt>
      <trkpt lat="47.2365" lon="6.0809">
        <ele>533.67</ele>
        <time>2018-07-15T08:31:35Z</time>
      </trkpt>
      <trkpt lat="47.23647" lon="6.08082">
        <ele>533.19</ele>
        <time>2018-07-15T08:31:36Z</time>
      </trkpt>
      <trkpt lat="47.23644" lon="6.08075">
        <ele>532.71</ele>
        <time>2018-07-15T08:31:37Z</time>
      </trkpt>
      <trkpt lat="47.23639" lon="6.08069">
        <ele>532.23</ele>
        <time>2018-07-15T08:31:38Z</time>
      </trkpt>
      <trkpt lat="47.23635" lon="6.08062">
        <ele>531.75</ele>
        <time>2018-07-15T08:31:39Z</time>
      </trkpt>
      <trkpt lat="47.2363" lon="6.08056">
        <ele>531.27</ele>
        <time>2018-07-15T08:31:40Z</time>
      </trkpt>
      <trkpt lat="47.23625" lon="6.08051">
        <ele>530.3</ele>
        <time>2018-07-15T08:31:41Z</time>
      </trkpt>
      <trkpt lat="47.2362" lon="6.08047">
        <ele>529.82</ele>
        <time>2018-07-15T08:31:42Z</time>
      </trkpt>
      <trkpt lat="47.23615" lon="6.08044">
        <ele>528.86</ele>
        <time>2018-07-15T08:31:43Z</time>
      </trkpt>
      <trkpt lat="47.23611" lon="6.08039">
        <ele>528.38</ele>
        <time>2018-07-15T08:31:44Z</time>
      </trkpt>
      <trkpt lat="47.23606" lon="6.08034">
        <ele>527.42</ele>
        <time>2018-07-15T08:31:45Z</time>
      </trkpt>
      <trkpt lat="47.23602" lon="6.08028">
        <ele>526.94</ele>
        <time>2018-07-15T08:31:46Z</time>
      </trkpt>
      <trkpt lat="47.23599" lon="6.08023">
        <ele>526.46</ele>
        <time>2018-07-15T08:31:47Z</time>
      </trkpt>
      <trkpt lat="47.23593" lon="6.08011">
        <ele>525.02</ele>
        <time>2018-07-15T08:31:49Z</time>
      </trkpt>
      <trkpt lat="47.23585" lon="6.07998">
        <ele>523.09</ele>
        <time>2018-07-15T08:31:51Z</time>
      </trkpt>
      <trkpt lat="47.23581" lon="6.07992">
        <ele>522.13</ele>
        <time>2018-07-15T08:31:52Z</time>
      </trkpt>
      <trkpt lat="47.23576" lon="6.07988">
        <ele>521.65</ele>
        <time>2018-07-15T08:31:53Z</time>
      </trkpt>
      <trkpt lat="47.23572" lon="6.07985">
        <ele>521.17</ele>
        <time>2018-07-15T08:31:54Z</time>
      </trkpt>
      <trkpt lat="47.23557" lon="6.07976">
        <ele>518.29</ele>
        <time>2018-07-15T08:31:58Z</time>
      </trkpt>
      <trkpt lat="47.23554" lon="6.07977">
        <ele>517.81</ele>
        <time>2018-07-15T08:31:59Z</time>
      </trkpt>
      <trkpt lat="47.23551" lon="6.07979">
        <ele>517.81</ele>
        <time>2018-07-15T08:32:00Z</time>
      </trkpt>
      <trkpt lat="47.23548" lon="6.07983">
        <ele>517.33</ele>
        <time>2018-07-15T08:32:01Z</time>
      </trkpt>
      <trkpt lat="47.23544" lon="6.07986">
        <ele>516.85</ele>
        <time>2018-07-15T08:32:02Z</time>
      </trkpt>
      <trkpt lat="47.2354" lon="6.07987">
        <ele>516.85</ele>
        <time>2018-07-15T08:32:03Z</time>
      </trkpt>
      <trkpt lat="47.23535" lon="6.07987">
        <ele>515.88</ele>
        <time>2018-07-15T08:32:04Z</time>
      </trkpt>
      <trkpt lat="47.23529" lon="6.07985">
        <ele>514.92</ele>
        <time>2018-07-15T08:32:05Z</time>
      </trkpt>
      <trkpt lat="47.23518" lon="6.07981">
        <ele>513.48</ele>
        <time>2018-07-15T08:32:07Z</time>
      </trkpt>
      <trkpt lat="47.23512" lon="6.07977">
        <ele>512.52</ele>
        <time>2018-07-15T08:32:08Z</time>
      </trkpt>
      <trkpt lat="47.23509" lon="6.0797">
        <ele>511.56</ele>
        <time>2018-07-15T08:32:09Z</time>
      </trkpt>
      <trkpt lat="47.23507" lon="6.07961">
        <ele>510.6</ele>
        <time>2018-07-15T08:32:10Z</time>
      </trkpt>
      <trkpt lat="47.23507" lon="6.0795">
        <ele>509.64</ele>
        <time>2018-07-15T08:32:11Z</time>
      </trkpt>
      <trkpt lat="47.23506" lon="6.07938">
        <ele>508.19</ele>
        <time>2018-07-15T08:32:12Z</time>
      </trkpt>
      <trkpt lat="47.23507" lon="6.07925">
        <ele>507.23</ele>
        <time>2018-07-15T08:32:13Z</time>
      </trkpt>
      <trkpt lat="47.2351" lon="6.07914">
        <ele>506.27</ele>
        <time>2018-07-15T08:32:14Z</time>
      </trkpt>
      <trkpt lat="47.23515" lon="6.07903">
        <ele>505.79</ele>
        <time>2018-07-15T08:32:15Z</time>
      </trkpt>
      <trkpt lat="47.23521" lon="6.07893">
        <ele>505.31</ele>
        <time>2018-07-15T08:32:16Z</time>
      </trkpt>
      <trkpt lat="47.23528" lon="6.07883">
        <ele>503.87</ele>
        <time>2018-07-15T08:32:17Z</time>
      </trkpt>
      <trkpt lat="47.23543" lon="6.07863">
        <ele>499.54</ele>
        <time>2018-07-15T08:32:19Z</time>
      </trkpt>
      <trkpt lat="47.23566" lon="6.07831">
        <ele>496.66</ele>
        <time>2018-07-15T08:32:22Z</time>
      </trkpt>
      <trkpt lat="47.23595" lon="6.07797">
        <ele>494.26</ele>
        <time>2018-07-15T08:32:26Z</time>
      </trkpt>
      <trkpt lat="47.23598" lon="6.07787">
        <ele>493.29</ele>
        <time>2018-07-15T08:32:27Z</time>
      </trkpt>
      <trkpt lat="47.236" lon="6.07779">
        <ele>493.29</ele>
        <time>2018-07-15T08:32:28Z</time>
      </trkpt>
      <trkpt lat="47.236" lon="6.07772">
        <ele>492.81</ele>
        <time>2018-07-15T08:32:29Z</time>
      </trkpt>
      <trkpt lat="47.23598" lon="6.07768">
        <ele>492.81</ele>
        <time>2018-07-15T08:32:30Z</time>
      </trkpt>
      <trkpt lat="47.23595" lon="6.07764">
        <ele>492.81</ele>
        <time>2018-07-15T08:32:31Z</time>
      </trkpt>
      <trkpt lat="47.23591" lon="6.07762">
        <ele>492.33</ele>
        <time>2018-07-15T08:32:32Z</time>
      </trkpt>
      <trkpt lat="47.23586" lon="6.07762">
        <ele>492.33</ele>
        <time>2018-07-15T08:32:33Z</time>
      </trkpt>
      <trkpt lat="47.23581" lon="6.07762">
        <ele>491.85</ele>
        <time>2018-07-15T08:32:34Z</time>
      </trkpt>
      <trkpt lat="47.23576" lon="6.07763">
        <ele>491.85</ele>
        <time>2018-07-15T08:32:35Z</time>
      </trkpt>
      <trkpt lat="47.23572" lon="6.07764">
        <ele>491.85</ele>
        <time>2018-07-15T08:32:36Z</time>
      </trkpt>
      <trkpt lat="47.23566" lon="6.07766">
        <ele>491.85</ele>
        <time>2018-07-15T08:32:37Z</time>
      </trkpt>
      <trkpt lat="47.23538" lon="6.07773">
        <ele>492.33</ele>
        <time>2018-07-15T08:32:43Z</time>
      </trkpt>
      <trkpt lat="47.23533" lon="6.07772">
        <ele>492.33</ele>
        <time>2018-07-15T08:32:44Z</time>
      </trkpt>
      <trkpt lat="47.23529" lon="6.07771">
        <ele>492.33</ele>
        <time>2018-07-15T08:32:45Z</time>
      </trkpt>
      <trkpt lat="47.23524" lon="6.0777">
        <ele>491.85</ele>
        <time>2018-07-15T08:32:46Z</time>
      </trkpt>
      <trkpt lat="47.23519" lon="6.07768">
        <ele>491.85</ele>
        <time>2018-07-15T08:32:47Z</time>
      </trkpt>
      <trkpt lat="47.23491" lon="6.07752">
        <ele>489.45</ele>
        <time>2018-07-15T08:32:52Z</time>
      </trkpt>
      <trkpt lat="47.2344" lon="6.0771">
        <ele>491.37</ele>
        <time>2018-07-15T08:33:02Z</time>
      </trkpt>
      <trkpt lat="47.23436" lon="6.07707">
        <ele>491.85</ele>
        <time>2018-07-15T08:33:03Z</time>
      </trkpt>
      <trkpt lat="47.23403" lon="6.07689">
        <ele>491.85</ele>
        <time>2018-07-15T08:33:10Z</time>
      </trkpt>
      <trkpt lat="47.23389" lon="6.07675">
        <ele>490.41</ele>
        <time>2018-07-15T08:33:13Z</time>
      </trkpt>
      <trkpt lat="47.23383" lon="6.07673">
        <ele>489.93</ele>
        <time>2018-07-15T08:33:14Z</time>
      </trkpt>
      <trkpt lat="47.23377" lon="6.07672">
        <ele>489.93</ele>
        <time>2018-07-15T08:33:15Z</time>
      </trkpt>
      <trkpt lat="47.23371" lon="6.07673">
        <ele>489.45</ele>
        <time>2018-07-15T08:33:16Z</time>
      </trkpt>
      <trkpt lat="47.23365" lon="6.07675">
        <ele>489.45</ele>
        <time>2018-07-15T08:33:17Z</time>
      </trkpt>
      <trkpt lat="47.23358" lon="6.07675">
        <ele>489.45</ele>
        <time>2018-07-15T08:33:18Z</time>
      </trkpt>
      <trkpt lat="47.23352" lon="6.07675">
        <ele>488.97</ele>
        <time>2018-07-15T08:33:19Z</time>
      </trkpt>
      <trkpt lat="47.23338" lon="6.07676">
        <ele>488.01</ele>
        <time>2018-07-15T08:33:21Z</time>
      </trkpt>
      <trkpt lat="47.23331" lon="6.07678">
        <ele>487.53</ele>
        <time>2018-07-15T08:33:22Z</time>
      </trkpt>
      <trkpt lat="47.23317" lon="6.07681">
        <ele>487.53</ele>
        <time>2018-07-15T08:33:24Z</time>
      </trkpt>
      <trkpt lat="47.2331" lon="6.07681">
        <ele>487.53</ele>
        <time>2018-07-15T08:33:25Z</time>
      </trkpt>
      <trkpt lat="47.23303" lon="6.0768">
        <ele>487.53</ele>
        <time>2018-07-15T08:33:26Z</time>
      </trkpt>
      <trkpt lat="47.23297" lon="6.07679">
        <ele>488.01</ele>
        <time>2018-07-15T08:33:27Z</time>
      </trkpt>
      <trkpt lat="47.23291" lon="6.07677">
        <ele>488.01</ele>
        <time>2018-07-15T08:33:28Z</time>
      </trkpt>
      <trkpt lat="47.23286" lon="6.07675">
        <ele>488.49</ele>
        <time>2018-07-15T08:33:29Z</time>
      </trkpt>
      <trkpt lat="47.2328" lon="6.07672">
        <ele>488.49</ele>
        <time>2018-07-15T08:33:30Z</time>
      </trkpt>
      <trkpt lat="47.23275" lon="6.0767">
        <ele>488.49</ele>
        <time>2018-07-15T08:33:31Z</time>
      </trkpt>
      <trkpt lat="47.23269" lon="6.07668">
        <ele>488.49</ele>
        <time>2018-07-15T08:33:32Z</time>
      </trkpt>
      <trkpt lat="47.23263" lon="6.07666">
        <ele>488.49</ele>
        <time>2018-07-15T08:33:33Z</time>
      </trkpt>
      <trkpt lat="47.23258" lon="6.07663">
        <ele>488.49</ele>
        <time>2018-07-15T08:33:34Z</time>
      </trkpt>
      <trkpt lat="47.23183" lon="6.07633">
        <ele>488.01</ele>
        <time>2018-07-15T08:33:47Z</time>
      </trkpt>
      <trkpt lat="47.23156" lon="6.07623">
        <ele>488.97</ele>
        <time>2018-07-15T08:33:52Z</time>
      </trkpt>
      <trkpt lat="47.23151" lon="6.07621">
        <ele>488.97</ele>
        <time>2018-07-15T08:33:53Z</time>
      </trkpt>
      <trkpt lat="47.23091" lon="6.07568">
        <ele>486.08</ele>
        <time>2018-07-15T08:34:06Z</time>
      </trkpt>
      <trkpt lat="47.23067" lon="6.07541">
        <ele>483.2</ele>
        <time>2018-07-15T08:34:10Z</time>
      </trkpt>
      <trkpt lat="47.22993" lon="6.07461">
        <ele>483.68</ele>
        <time>2018-07-15T08:34:23Z</time>
      </trkpt>
      <trkpt lat="47.22958" lon="6.07435">
        <ele>484.16</ele>
        <time>2018-07-15T08:34:31Z</time>
      </trkpt>
      <trkpt lat="47.22953" lon="6.07434">
        <ele>484.16</ele>
        <time>2018-07-15T08:34:32Z</time>
      </trkpt>
      <trkpt lat="47.22948" lon="6.07434">
        <ele>484.16</ele>
        <time>2018-07-15T08:34:33Z</time>
      </trkpt>
      <trkpt lat="47.22943" lon="6.07432">
        <ele>484.16</ele>
        <time>2018-07-15T08:34:34Z</time>
      </trkpt>
      <trkpt lat="47.22938" lon="6.07429">
        <ele>483.68</ele>
        <time>2018-07-15T08:34:35Z</time>
      </trkpt>
      <trkpt lat="47.22933" lon="6.07425">
        <ele>483.2</ele>
        <time>2018-07-15T08:34:36Z</time>
      </trkpt>
      <trkpt lat="47.22928" lon="6.07421">
        <ele>483.2</ele>
        <time>2018-07-15T08:34:37Z</time>
      </trkpt>
      <trkpt lat="47.22876" lon="6.07355">
        <ele>482.24</ele>
        <time>2018-07-15T08:34:50Z</time>
      </trkpt>
      <trkpt lat="47.22871" lon="6.0735">
        <ele>482.24</ele>
        <time>2018-07-15T08:34:51Z</time>
      </trkpt>
      <trkpt lat="47.22866" lon="6.07346">
        <ele>481.76</ele>
        <time>2018-07-15T08:34:52Z</time>
      </trkpt>
      <trkpt lat="47.22861" lon="6.07342">
        <ele>481.28</ele>
        <time>2018-07-15T08:34:53Z</time>
      </trkpt>
      <trkpt lat="47.22855" lon="6.0734">
        <ele>481.28</ele>
        <time>2018-07-15T08:34:54Z</time>
      </trkpt>
      <trkpt lat="47.228" lon="6.07332">
        <ele>482.72</ele>
        <time>2018-07-15T08:35:06Z</time>
      </trkpt>
      <trkpt lat="47.22797" lon="6.07333">
        <ele>482.72</ele>
        <time>2018-07-15T08:35:07Z</time>
      </trkpt>
      <trkpt lat="47.22786" lon="6.07329">
        <ele>483.68</ele>
        <time>2018-07-15T08:35:12Z</time>
      </trkpt>
      <trkpt lat="47.22781" lon="6.07326">
        <ele>484.16</ele>
        <time>2018-07-15T08:35:15Z</time>
      </trkpt>
      <trkpt lat="47.22779" lon="6.07327">
        <ele>484.16</ele>
        <time>2018-07-15T08:35:16Z</time>
      </trkpt>
      <trkpt lat="47.22778" lon="6.07327">
        <ele>484.16</ele>
        <time>2018-07-15T08:35:17Z</time>
      </trkpt>
      <trkpt lat="47.22777" lon="6.07326">
        <ele>484.64</ele>
        <time>2018-07-15T08:35:18Z</time>
      </trkpt>
      <trkpt lat="47.22776" lon="6.07325">
        <ele>484.64</ele>
        <time>2018-07-15T08:35:19Z</time>
      </trkpt>
      <trkpt lat="47.22774" lon="6.07323">
        <ele>484.64</ele>
        <time>2018-07-15T08:35:20Z</time>
      </trkpt>
      <trkpt lat="47.22773" lon="6.07322">
        <ele>484.64</ele>
        <time>2018-07-15T08:35:21Z</time>
      </trkpt>
      <trkpt lat="47.22771" lon="6.07322">
        <ele>484.64</ele>
        <time>2018-07-15T08:35:22Z</time>
      </trkpt>
      <trkpt lat="47.22767" lon="6.07321">
        <ele>484.64</ele>
        <time>2018-07-15T08:35:24Z</time>
      </trkpt>
      <trkpt lat="47.22765" lon="6.07322">
        <ele>484.64</ele>
        <time>2018-07-15T08:35:25Z</time>
      </trkpt>
      <trkpt lat="47.22764" lon="6.07324">
        <ele>484.64</ele>
        <time>2018-07-15T08:35:26Z</time>
      </trkpt>
      <trkpt lat="47.22762" lon="6.07326">
        <ele>484.16</ele>
        <time>2018-07-15T08:35:27Z</time>
      </trkpt>
      <trkpt lat="47.2276" lon="6.07326">
        <ele>484.16</ele>
        <time>2018-07-15T08:35:28Z</time>
      </trkpt>
      <trkpt lat="47.22758" lon="6.07325">
        <ele>484.16</ele>
        <time>2018-07-15T08:35:29Z</time>
      </trkpt>
      <trkpt lat="47.22756" lon="6.07323">
        <ele>484.64</ele>
        <time>2018-07-15T08:35:30Z</time>
      </trkpt>
      <trkpt lat="47.22754" lon="6.07322">
        <ele>484.16</ele>
        <time>2018-07-15T08:35:31Z</time>
      </trkpt>
      <trkpt lat="47.22753" lon="6.07321">
        <ele>484.16</ele>
        <time>2018-07-15T08:35:32Z</time>
      </trkpt>
      <trkpt lat="47.2275" lon="6.07321">
        <ele>484.16</ele>
        <time>2018-07-15T08:35:33Z</time>
      </trkpt>
      <trkpt lat="47.22747" lon="6.07321">
        <ele>484.16</ele>
        <time>2018-07-15T08:35:34Z</time>
      </trkpt>
      <trkpt lat="47.22745" lon="6.0732">
        <ele>484.64</ele>
        <time>2018-07-15T08:35:35Z</time>
      </trkpt>
      <trkpt lat="47.22745" lon="6.07319">
        <ele>484.16</ele>
        <time>2018-07-15T08:35:37Z</time>
      </trkpt>
      <trkpt lat="47.22746" lon="6.07319">
        <ele>483.68</ele>
        <time>2018-07-15T08:35:39Z</time>
      </trkpt>
      <trkpt lat="47.22748" lon="6.0732">
        <ele>483.68</ele>
        <time>2018-07-15T08:35:40Z</time>
      </trkpt>
      <trkpt lat="47.22743" lon="6.07324">
        <ele>481.76</ele>
        <time>2018-07-15T08:35:44Z</time>
      </trkpt>
      <trkpt lat="47.22743" lon="6.07325">
        <ele>481.76</ele>
        <time>2018-07-15T08:35:45Z</time>
      </trkpt>
      <trkpt lat="47.22742" lon="6.07327">
        <ele>480.8</ele>
        <time>2018-07-15T08:35:46Z</time>
      </trkpt>
      <trkpt lat="47.22741" lon="6.0733">
        <ele>479.84</ele>
        <time>2018-07-15T08:35:47Z</time>
      </trkpt>
      <trkpt lat="47.22739" lon="6.07331">
        <ele>479.35</ele>
        <time>2018-07-15T08:35:48Z</time>
      </trkpt>
      <trkpt lat="47.22737" lon="6.07332">
        <ele>479.84</ele>
        <time>2018-07-15T08:35:49Z</time>
      </trkpt>
      <trkpt lat="47.22736" lon="6.07333">
        <ele>477.91</ele>
        <time>2018-07-15T08:35:54Z</time>
      </trkpt>
      <trkpt lat="47.22735" lon="6.07334">
        <ele>477.43</ele>
        <time>2018-07-15T08:35:57Z</time>
      </trkpt>
      <trkpt lat="47.22729" lon="6.07336">
        <ele>476.47</ele>
        <time>2018-07-15T08:36:01Z</time>
      </trkpt>
      <trkpt lat="47.22727" lon="6.07338">
        <ele>475.99</ele>
        <time>2018-07-15T08:36:02Z</time>
      </trkpt>
      <trkpt lat="47.22717" lon="6.07348">
        <ele>475.99</ele>
        <time>2018-07-15T08:36:04Z</time>
      </trkpt>
      <trkpt lat="47.22715" lon="6.0735">
        <ele>475.99</ele>
        <time>2018-07-15T08:36:05Z</time>
      </trkpt>
      <trkpt lat="47.22711" lon="6.07357">
        <ele>475.03</ele>
        <time>2018-07-15T08:36:07Z</time>
      </trkpt>
      <trkpt lat="47.2271" lon="6.07362">
        <ele>474.55</ele>
        <time>2018-07-15T08:36:08Z</time>
      </trkpt>
      <trkpt lat="47.22703" lon="6.07369">
        <ele>474.07</ele>
        <time>2018-07-15T08:36:11Z</time>
      </trkpt>
      <trkpt lat="47.227" lon="6.07371">
        <ele>474.07</ele>
        <time>2018-07-15T08:36:12Z</time>
      </trkpt>
      <trkpt lat="47.2269" lon="6.07376">
        <ele>470.7</ele>
        <time>2018-07-15T08:36:17Z</time>
      </trkpt>
      <trkpt lat="47.22686" lon="6.07379">
        <ele>470.7</ele>
        <time>2018-07-15T08:36:18Z</time>
      </trkpt>
      <trkpt lat="47.22681" lon="6.07383">
        <ele>468.78</ele>
        <time>2018-07-15T08:36:20Z</time>
      </trkpt>
      <trkpt lat="47.22676" lon="6.07393">
        <ele>464.93</ele>
        <time>2018-07-15T08:36:23Z</time>
      </trkpt>
      <trkpt lat="47.22673" lon="6.07399">
        <ele>464.93</ele>
        <time>2018-07-15T08:36:24Z</time>
      </trkpt>
      <trkpt lat="47.22661" lon="6.07413">
        <ele>460.13</ele>
        <time>2018-07-15T08:36:28Z</time>
      </trkpt>
      <trkpt lat="47.22648" lon="6.07421">
        <ele>457.72</ele>
        <time>2018-07-15T08:36:32Z</time>
      </trkpt>
      <trkpt lat="47.22565" lon="6.07506">
        <ele>454.36</ele>
        <time>2018-07-15T08:36:35Z</time>
      </trkpt>
      <trkpt lat="47.22564" lon="6.07506">
        <ele>453.88</ele>
        <time>2018-07-15T08:36:36Z</time>
      </trkpt>
      <trkpt lat="47.22543" lon="6.07494">
        <ele>450.52</ele>
        <time>2018-07-15T08:36:41Z</time>
      </trkpt>
      <trkpt lat="47.22538" lon="6.07487">
        <ele>450.03</ele>
        <time>2018-07-15T08:36:42Z</time>
      </trkpt>
      <trkpt lat="47.22524" lon="6.0747">
        <ele>450.52</ele>
        <time>2018-07-15T08:36:45Z</time>
      </trkpt>
      <trkpt lat="47.22522" lon="6.07464">
        <ele>451</ele>
        <time>2018-07-15T08:36:46Z</time>
      </trkpt>
      <trkpt lat="47.22516" lon="6.07447">
        <ele>451.48</ele>
        <time>2018-07-15T08:36:49Z</time>
      </trkpt>
      <trkpt lat="47.22515" lon="6.07442">
        <ele>451.48</ele>
        <time>2018-07-15T08:36:50Z</time>
      </trkpt>
      <trkpt lat="47.2251" lon="6.07424">
        <ele>451.96</ele>
        <time>2018-07-15T08:36:53Z</time>
      </trkpt>
      <trkpt lat="47.22505" lon="6.07413">
        <ele>451.96</ele>
        <time>2018-07-15T08:36:55Z</time>
      </trkpt>
      <trkpt lat="47.22502" lon="6.07408">
        <ele>451.48</ele>
        <time>2018-07-15T08:36:56Z</time>
      </trkpt>
      <trkpt lat="47.22498" lon="6.07404">
        <ele>451</ele>
        <time>2018-07-15T08:36:57Z</time>
      </trkpt>
      <trkpt lat="47.22493" lon="6.07401">
        <ele>451.48</ele>
        <time>2018-07-15T08:36:58Z</time>
      </trkpt>
      <trkpt lat="47.22489" lon="6.07398">
        <ele>451.48</ele>
        <time>2018-07-15T08:36:59Z</time>
      </trkpt>
      <trkpt lat="47.22485" lon="6.07396">
        <ele>451.96</ele>
        <time>2018-07-15T08:37:00Z</time>
      </trkpt>
      <trkpt lat="47.22458" lon="6.07371">
        <ele>452.92</ele>
        <time>2018-07-15T08:37:07Z</time>
      </trkpt>
      <trkpt lat="47.22454" lon="6.07367">
        <ele>452.92</ele>
        <time>2018-07-15T08:37:08Z</time>
      </trkpt>
      <trkpt lat="47.22451" lon="6.07363">
        <ele>452.92</ele>
        <time>2018-07-15T08:37:09Z</time>
      </trkpt>
      <trkpt lat="47.22447" lon="6.07359">
        <ele>452.92</ele>
        <time>2018-07-15T08:37:10Z</time>
      </trkpt>
      <trkpt lat="47.22443" lon="6.07355">
        <ele>452.92</ele>
        <time>2018-07-15T08:37:11Z</time>
      </trkpt>
      <trkpt lat="47.22439" lon="6.07351">
        <ele>452.92</ele>
        <time>2018-07-15T08:37:12Z</time>
      </trkpt>
      <trkpt lat="47.22425" lon="6.07337">
        <ele>452.44</ele>
        <time>2018-07-15T08:37:15Z</time>
      </trkpt>
      <trkpt lat="47.22422" lon="6.0733">
        <ele>452.44</ele>
        <time>2018-07-15T08:37:16Z</time>
      </trkpt>
      <trkpt lat="47.22419" lon="6.07322">
        <ele>452.44</ele>
        <time>2018-07-15T08:37:17Z</time>
      </trkpt>
      <trkpt lat="47.22414" lon="6.07309">
        <ele>453.4</ele>
        <time>2018-07-15T08:37:19Z</time>
      </trkpt>
      <trkpt lat="47.2241" lon="6.07303">
        <ele>452.92</ele>
        <time>2018-07-15T08:37:20Z</time>
      </trkpt>
      <trkpt lat="47.22366" lon="6.07244">
        <ele>451.96</ele>
        <time>2018-07-15T08:37:31Z</time>
      </trkpt>
      <trkpt lat="47.22353" lon="6.07218">
        <ele>451.48</ele>
        <time>2018-07-15T08:37:36Z</time>
      </trkpt>
      <trkpt lat="47.22349" lon="6.07215">
        <ele>451.48</ele>
        <time>2018-07-15T08:37:37Z</time>
      </trkpt>
      <trkpt lat="47.22332" lon="6.07199">
        <ele>452.44</ele>
        <time>2018-07-15T08:37:41Z</time>
      </trkpt>
      <trkpt lat="47.22329" lon="6.07194">
        <ele>452.44</ele>
        <time>2018-07-15T08:37:42Z</time>
      </trkpt>
      <trkpt lat="47.22327" lon="6.07189">
        <ele>452.92</ele>
        <time>2018-07-15T08:37:43Z</time>
      </trkpt>
      <trkpt lat="47.22324" lon="6.07185">
        <ele>453.4</ele>
        <time>2018-07-15T08:37:44Z</time>
      </trkpt>
      <trkpt lat="47.2232" lon="6.07181">
        <ele>453.4</ele>
        <time>2018-07-15T08:37:45Z</time>
      </trkpt>
      <trkpt lat="47.22302" lon="6.07148">
        <ele>455.32</ele>
        <time>2018-07-15T08:37:53Z</time>
      </trkpt>
      <trkpt lat="47.22281" lon="6.0711">
        <ele>456.28</ele>
        <time>2018-07-15T08:38:01Z</time>
      </trkpt>
      <trkpt lat="47.22278" lon="6.07105">
        <ele>456.28</ele>
        <time>2018-07-15T08:38:02Z</time>
      </trkpt>
      <trkpt lat="47.22258" lon="6.07076">
        <ele>457.24</ele>
        <time>2018-07-15T08:38:09Z</time>
      </trkpt>
      <trkpt lat="47.22255" lon="6.07071">
        <ele>457.24</ele>
        <time>2018-07-15T08:38:10Z</time>
      </trkpt>
      <trkpt lat="47.22236" lon="6.07036">
        <ele>457.72</ele>
        <time>2018-07-15T08:38:18Z</time>
      </trkpt>
      <trkpt lat="47.22218" lon="6.07021">
        <ele>460.13</ele>
        <time>2018-07-15T08:38:24Z</time>
      </trkpt>
      <trkpt lat="47.22202" lon="6.06985">
        <ele>462.05</ele>
        <time>2018-07-15T08:38:33Z</time>
      </trkpt>
      <trkpt lat="47.22201" lon="6.06981">
        <ele>462.05</ele>
        <time>2018-07-15T08:38:34Z</time>
      </trkpt>
      <trkpt lat="47.22199" lon="6.06977">
        <ele>462.53</ele>
        <time>2018-07-15T08:38:35Z</time>
      </trkpt>
      <trkpt lat="47.22198" lon="6.06973">
        <ele>463.01</ele>
        <time>2018-07-15T08:38:36Z</time>
      </trkpt>
      <trkpt lat="47.22197" lon="6.06969">
        <ele>463.01</ele>
        <time>2018-07-15T08:38:37Z</time>
      </trkpt>
      <trkpt lat="47.22194" lon="6.06965">
        <ele>463.01</ele>
        <time>2018-07-15T08:38:38Z</time>
      </trkpt>
      <trkpt lat="47.22191" lon="6.06962">
        <ele>463.49</ele>
        <time>2018-07-15T08:38:39Z</time>
      </trkpt>
      <trkpt lat="47.22174" lon="6.06936">
        <ele>465.42</ele>
        <time>2018-07-15T08:38:48Z</time>
      </trkpt>
      <trkpt lat="47.22158" lon="6.06919">
        <ele>467.82</ele>
        <time>2018-07-15T08:38:56Z</time>
      </trkpt>
      <trkpt lat="47.22154" lon="6.06915">
        <ele>468.3</ele>
        <time>2018-07-15T08:38:58Z</time>
      </trkpt>
      <trkpt lat="47.22149" lon="6.0691">
        <ele>469.26</ele>
        <time>2018-07-15T08:39:02Z</time>
      </trkpt>
      <trkpt lat="47.22148" lon="6.06909">
        <ele>469.74</ele>
        <time>2018-07-15T08:39:03Z</time>
      </trkpt>
      <trkpt lat="47.22138" lon="6.06899">
        <ele>471.66</ele>
        <time>2018-07-15T08:39:11Z</time>
      </trkpt>
      <trkpt lat="47.22136" lon="6.06897">
        <ele>472.14</ele>
        <time>2018-07-15T08:39:12Z</time>
      </trkpt>
      <trkpt lat="47.22135" lon="6.06896">
        <ele>472.14</ele>
        <time>2018-07-15T08:39:13Z</time>
      </trkpt>
      <trkpt lat="47.22133" lon="6.06894">
        <ele>472.14</ele>
        <time>2018-07-15T08:39:14Z</time>
      </trkpt>
      <trkpt lat="47.22132" lon="6.06891">
        <ele>472.63</ele>
        <time>2018-07-15T08:39:15Z</time>
      </trkpt>
      <trkpt lat="47.22125" lon="6.06884">
        <ele>473.59</ele>
        <time>2018-07-15T08:39:20Z</time>
      </trkpt>
      <trkpt lat="47.22123" lon="6.06883">
        <ele>473.59</ele>
        <time>2018-07-15T08:39:21Z</time>
      </trkpt>
      <trkpt lat="47.22108" lon="6.06866">
        <ele>473.59</ele>
        <time>2018-07-15T08:39:27Z</time>
      </trkpt>
      <trkpt lat="47.22106" lon="6.06862">
        <ele>473.59</ele>
        <time>2018-07-15T08:39:28Z</time>
      </trkpt>
      <trkpt lat="47.22104" lon="6.06859">
        <ele>474.07</ele>
        <time>2018-07-15T08:39:29Z</time>
      </trkpt>
      <trkpt lat="47.22083" lon="6.06827">
        <ele>474.55</ele>
        <time>2018-07-15T08:39:39Z</time>
      </trkpt>
      <trkpt lat="47.2206" lon="6.06802">
        <ele>477.91</ele>
        <time>2018-07-15T08:39:49Z</time>
      </trkpt>
      <trkpt lat="47.22058" lon="6.06801">
        <ele>477.91</ele>
        <time>2018-07-15T08:39:50Z</time>
      </trkpt>
      <trkpt lat="47.22053" lon="6.06799">
        <ele>479.35</ele>
        <time>2018-07-15T08:39:53Z</time>
      </trkpt>
      <trkpt lat="47.22051" lon="6.06798">
        <ele>479.84</ele>
        <time>2018-07-15T08:39:54Z</time>
      </trkpt>
      <trkpt lat="47.22049" lon="6.06797">
        <ele>480.32</ele>
        <time>2018-07-15T08:39:55Z</time>
      </trkpt>
      <trkpt lat="47.22046" lon="6.06797">
        <ele>480.32</ele>
        <time>2018-07-15T08:39:57Z</time>
      </trkpt>
      <trkpt lat="47.22044" lon="6.06795">
        <ele>480.8</ele>
        <time>2018-07-15T08:39:58Z</time>
      </trkpt>
      <trkpt lat="47.22042" lon="6.06792">
        <ele>481.28</ele>
        <time>2018-07-15T08:40:00Z</time>
      </trkpt>
      <trkpt lat="47.22041" lon="6.06791">
        <ele>481.28</ele>
        <time>2018-07-15T08:40:01Z</time>
      </trkpt>
      <trkpt lat="47.2204" lon="6.0679">
        <ele>481.28</ele>
        <time>2018-07-15T08:40:02Z</time>
      </trkpt>
      <trkpt lat="47.22038" lon="6.06789">
        <ele>481.76</ele>
        <time>2018-07-15T08:40:03Z</time>
      </trkpt>
      <trkpt lat="47.22036" lon="6.06788">
        <ele>481.28</ele>
        <time>2018-07-15T08:40:04Z</time>
      </trkpt>
      <trkpt lat="47.22034" lon="6.06787">
        <ele>481.28</ele>
        <time>2018-07-15T08:40:05Z</time>
      </trkpt>
      <trkpt lat="47.22033" lon="6.06784">
        <ele>481.28</ele>
        <time>2018-07-15T08:40:07Z</time>
      </trkpt>
      <trkpt lat="47.22032" lon="6.06781">
        <ele>481.28</ele>
        <time>2018-07-15T08:40:08Z</time>
      </trkpt>
      <trkpt lat="47.22032" lon="6.06778">
        <ele>481.76</ele>
        <time>2018-07-15T08:40:09Z</time>
      </trkpt>
      <trkpt lat="47.22031" lon="6.06776">
        <ele>481.76</ele>
        <time>2018-07-15T08:40:10Z</time>
      </trkpt>
      <trkpt lat="47.22029" lon="6.06773">
        <ele>481.76</ele>
        <time>2018-07-15T08:40:11Z</time>
      </trkpt>
      <trkpt lat="47.22027" lon="6.06771">
        <ele>481.76</ele>
        <time>2018-07-15T08:40:12Z</time>
      </trkpt>
      <trkpt lat="47.22025" lon="6.06769">
        <ele>481.76</ele>
        <time>2018-07-15T08:40:13Z</time>
      </trkpt>
      <trkpt lat="47.22023" lon="6.06766">
        <ele>482.24</ele>
        <time>2018-07-15T08:40:14Z</time>
      </trkpt>
      <trkpt lat="47.22" lon="6.06733">
        <ele>481.76</ele>
        <time>2018-07-15T08:40:23Z</time>
      </trkpt>
      <trkpt lat="47.21999" lon="6.0673">
        <ele>481.76</ele>
        <time>2018-07-15T08:40:24Z</time>
      </trkpt>
      <trkpt lat="47.2198" lon="6.06698">
        <ele>481.28</ele>
        <time>2018-07-15T08:40:33Z</time>
      </trkpt>
      <trkpt lat="47.21978" lon="6.06693">
        <ele>481.28</ele>
        <time>2018-07-15T08:40:34Z</time>
      </trkpt>
      <trkpt lat="47.21976" lon="6.06689">
        <ele>481.28</ele>
        <time>2018-07-15T08:40:35Z</time>
      </trkpt>
      <trkpt lat="47.21973" lon="6.06686">
        <ele>481.28</ele>
        <time>2018-07-15T08:40:36Z</time>
      </trkpt>
      <trkpt lat="47.2197" lon="6.06682">
        <ele>480.8</ele>
        <time>2018-07-15T08:40:37Z</time>
      </trkpt>
      <trkpt lat="47.21969" lon="6.06679">
        <ele>480.8</ele>
        <time>2018-07-15T08:40:38Z</time>
      </trkpt>
      <trkpt lat="47.21952" lon="6.06651">
        <ele>479.84</ele>
        <time>2018-07-15T08:40:46Z</time>
      </trkpt>
      <trkpt lat="47.21943" lon="6.06636">
        <ele>479.35</ele>
        <time>2018-07-15T08:40:49Z</time>
      </trkpt>
      <trkpt lat="47.2194" lon="6.06631">
        <ele>479.35</ele>
        <time>2018-07-15T08:40:50Z</time>
      </trkpt>
      <trkpt lat="47.21921" lon="6.06601">
        <ele>477.43</ele>
        <time>2018-07-15T08:40:59Z</time>
      </trkpt>
      <trkpt lat="47.21915" lon="6.06589">
        <ele>475.03</ele>
        <time>2018-07-15T08:41:03Z</time>
      </trkpt>
      <trkpt lat="47.2191" lon="6.06584">
        <ele>475.03</ele>
        <time>2018-07-15T08:41:04Z</time>
      </trkpt>
      <trkpt lat="47.21903" lon="6.06579">
        <ele>475.03</ele>
        <time>2018-07-15T08:41:06Z</time>
      </trkpt>
      <trkpt lat="47.219" lon="6.06577">
        <ele>475.03</ele>
        <time>2018-07-15T08:41:07Z</time>
      </trkpt>
      <trkpt lat="47.21886" lon="6.06575">
        <ele>472.63</ele>
        <time>2018-07-15T08:41:13Z</time>
      </trkpt>
      <trkpt lat="47.21868" lon="6.06572">
        <ele>470.7</ele>
        <time>2018-07-15T08:41:24Z</time>
      </trkpt>
      <trkpt lat="47.21866" lon="6.06571">
        <ele>470.22</ele>
        <time>2018-07-15T08:41:25Z</time>
      </trkpt>
      <trkpt lat="47.21866" lon="6.06569">
        <ele>469.74</ele>
        <time>2018-07-15T08:41:26Z</time>
      </trkpt>
      <trkpt lat="47.21866" lon="6.06566">
        <ele>469.26</ele>
        <time>2018-07-15T08:41:27Z</time>
      </trkpt>
      <trkpt lat="47.21865" lon="6.06562">
        <ele>468.78</ele>
        <time>2018-07-15T08:41:28Z</time>
      </trkpt>
      <trkpt lat="47.21864" lon="6.06561">
        <ele>470.22</ele>
        <time>2018-07-15T08:41:29Z</time>
      </trkpt>
      <trkpt lat="47.21857" lon="6.06557">
        <ele>471.18</ele>
        <time>2018-07-15T08:41:37Z</time>
      </trkpt>
      <trkpt lat="47.21853" lon="6.06551">
        <ele>471.66</ele>
        <time>2018-07-15T08:41:46Z</time>
      </trkpt>
      <trkpt lat="47.2185" lon="6.06549">
        <ele>471.18</ele>
        <time>2018-07-15T08:41:50Z</time>
      </trkpt>
      <trkpt lat="47.21849" lon="6.06549">
        <ele>471.18</ele>
        <time>2018-07-15T08:41:51Z</time>
      </trkpt>
      <trkpt lat="47.21847" lon="6.06548">
        <ele>471.18</ele>
        <time>2018-07-15T08:41:52Z</time>
      </trkpt>
      <trkpt lat="47.21846" lon="6.06546">
        <ele>471.18</ele>
        <time>2018-07-15T08:41:53Z</time>
      </trkpt>
      <trkpt lat="47.21847" lon="6.06544">
        <ele>472.14</ele>
        <time>2018-07-15T08:41:55Z</time>
      </trkpt>
      <trkpt lat="47.21848" lon="6.06542">
        <ele>472.63</ele>
        <time>2018-07-15T08:41:57Z</time>
      </trkpt>
      <trkpt lat="47.21845" lon="6.06539">
        <ele>472.63</ele>
        <time>2018-07-15T08:42:00Z</time>
      </trkpt>
      <trkpt lat="47.21844" lon="6.06537">
        <ele>472.63</ele>
        <time>2018-07-15T08:42:01Z</time>
      </trkpt>
      <trkpt lat="47.21842" lon="6.06535">
        <ele>472.63</ele>
        <time>2018-07-15T08:42:02Z</time>
      </trkpt>
      <trkpt lat="47.21841" lon="6.06533">
        <ele>472.63</ele>
        <time>2018-07-15T08:42:03Z</time>
      </trkpt>
      <trkpt lat="47.2184" lon="6.06531">
        <ele>472.63</ele>
        <time>2018-07-15T08:42:04Z</time>
      </trkpt>
      <trkpt lat="47.21838" lon="6.0653">
        <ele>473.11</ele>
        <time>2018-07-15T08:42:05Z</time>
      </trkpt>
      <trkpt lat="47.21837" lon="6.06527">
        <ele>473.11</ele>
        <time>2018-07-15T08:42:06Z</time>
      </trkpt>
      <trkpt lat="47.21836" lon="6.06525">
        <ele>473.11</ele>
        <time>2018-07-15T08:42:07Z</time>
      </trkpt>
      <trkpt lat="47.21834" lon="6.06522">
        <ele>473.11</ele>
        <time>2018-07-15T08:42:08Z</time>
      </trkpt>
      <trkpt lat="47.21831" lon="6.06514">
        <ele>474.07</ele>
        <time>2018-07-15T08:42:12Z</time>
      </trkpt>
      <trkpt lat="47.21831" lon="6.06512">
        <ele>474.07</ele>
        <time>2018-07-15T08:42:13Z</time>
      </trkpt>
      <trkpt lat="47.21828" lon="6.06505">
        <ele>475.03</ele>
        <time>2018-07-15T08:42:16Z</time>
      </trkpt>
      <trkpt lat="47.21827" lon="6.06503">
        <ele>475.03</ele>
        <time>2018-07-15T08:42:17Z</time>
      </trkpt>
      <trkpt lat="47.21819" lon="6.06481">
        <ele>475.51</ele>
        <time>2018-07-15T08:42:26Z</time>
      </trkpt>
      <trkpt lat="47.21819" lon="6.06478">
        <ele>475.51</ele>
        <time>2018-07-15T08:42:27Z</time>
      </trkpt>
      <trkpt lat="47.21818" lon="6.06474">
        <ele>475.99</ele>
        <time>2018-07-15T08:42:28Z</time>
      </trkpt>
      <trkpt lat="47.21816" lon="6.06469">
        <ele>475.99</ele>
        <time>2018-07-15T08:42:29Z</time>
      </trkpt>
      <trkpt lat="47.21814" lon="6.06465">
        <ele>476.47</ele>
        <time>2018-07-15T08:42:31Z</time>
      </trkpt>
      <trkpt lat="47.21812" lon="6.06462">
        <ele>476.47</ele>
        <time>2018-07-15T08:42:32Z</time>
      </trkpt>
      <trkpt lat="47.2181" lon="6.06458">
        <ele>476.47</ele>
        <time>2018-07-15T08:42:33Z</time>
      </trkpt>
      <trkpt lat="47.21809" lon="6.06455">
        <ele>476.47</ele>
        <time>2018-07-15T08:42:34Z</time>
      </trkpt>
      <trkpt lat="47.21807" lon="6.06452">
        <ele>476.47</ele>
        <time>2018-07-15T08:42:35Z</time>
      </trkpt>
      <trkpt lat="47.21806" lon="6.06448">
        <ele>476.47</ele>
        <time>2018-07-15T08:42:36Z</time>
      </trkpt>
      <trkpt lat="47.21805" lon="6.06446">
        <ele>476.47</ele>
        <time>2018-07-15T08:42:37Z</time>
      </trkpt>
      <trkpt lat="47.21803" lon="6.06443">
        <ele>476.47</ele>
        <time>2018-07-15T08:42:38Z</time>
      </trkpt>
      <trkpt lat="47.21797" lon="6.06437">
        <ele>476.47</ele>
        <time>2018-07-15T08:42:42Z</time>
      </trkpt>
      <trkpt lat="47.21795" lon="6.06432">
        <ele>476.47</ele>
        <time>2018-07-15T08:42:43Z</time>
      </trkpt>
      <trkpt lat="47.21793" lon="6.06428">
        <ele>476.47</ele>
        <time>2018-07-15T08:42:44Z</time>
      </trkpt>
      <trkpt lat="47.21788" lon="6.06416">
        <ele>476.47</ele>
        <time>2018-07-15T08:42:47Z</time>
      </trkpt>
      <trkpt lat="47.21787" lon="6.06412">
        <ele>476.47</ele>
        <time>2018-07-15T08:42:48Z</time>
      </trkpt>
      <trkpt lat="47.21786" lon="6.06408">
        <ele>476.47</ele>
        <time>2018-07-15T08:42:49Z</time>
      </trkpt>
      <trkpt lat="47.21785" lon="6.06405">
        <ele>476.47</ele>
        <time>2018-07-15T08:42:50Z</time>
      </trkpt>
      <trkpt lat="47.21783" lon="6.06403">
        <ele>476.47</ele>
        <time>2018-07-15T08:42:51Z</time>
      </trkpt>
      <trkpt lat="47.2178" lon="6.064">
        <ele>476.47</ele>
        <time>2018-07-15T08:42:52Z</time>
      </trkpt>
      <trkpt lat="47.21777" lon="6.06398">
        <ele>476.95</ele>
        <time>2018-07-15T08:42:53Z</time>
      </trkpt>
      <trkpt lat="47.21776" lon="6.06395">
        <ele>476.95</ele>
        <time>2018-07-15T08:42:54Z</time>
      </trkpt>
      <trkpt lat="47.21774" lon="6.06391">
        <ele>477.43</ele>
        <time>2018-07-15T08:42:55Z</time>
      </trkpt>
      <trkpt lat="47.21773" lon="6.06387">
        <ele>477.91</ele>
        <time>2018-07-15T08:42:56Z</time>
      </trkpt>
      <trkpt lat="47.21772" lon="6.06384">
        <ele>477.91</ele>
        <time>2018-07-15T08:42:57Z</time>
      </trkpt>
      <trkpt lat="47.21771" lon="6.06381">
        <ele>478.39</ele>
        <time>2018-07-15T08:42:58Z</time>
      </trkpt>
      <trkpt lat="47.21769" lon="6.06379">
        <ele>477.91</ele>
        <time>2018-07-15T08:42:59Z</time>
      </trkpt>
      <trkpt lat="47.21767" lon="6.06376">
        <ele>477.91</ele>
        <time>2018-07-15T08:43:00Z</time>
      </trkpt>
      <trkpt lat="47.21765" lon="6.06373">
        <ele>477.91</ele>
        <time>2018-07-15T08:43:01Z</time>
      </trkpt>
      <trkpt lat="47.21763" lon="6.0637">
        <ele>477.91</ele>
        <time>2018-07-15T08:43:02Z</time>
      </trkpt>
      <trkpt lat="47.21762" lon="6.06367">
        <ele>477.91</ele>
        <time>2018-07-15T08:43:03Z</time>
      </trkpt>
      <trkpt lat="47.2176" lon="6.06365">
        <ele>477.43</ele>
        <time>2018-07-15T08:43:04Z</time>
      </trkpt>
      <trkpt lat="47.21757" lon="6.0636">
        <ele>477.43</ele>
        <time>2018-07-15T08:43:06Z</time>
      </trkpt>
      <trkpt lat="47.21756" lon="6.06356">
        <ele>477.43</ele>
        <time>2018-07-15T08:43:07Z</time>
      </trkpt>
      <trkpt lat="47.21754" lon="6.06352">
        <ele>477.43</ele>
        <time>2018-07-15T08:43:08Z</time>
      </trkpt>
      <trkpt lat="47.21742" lon="6.06326">
        <ele>476.47</ele>
        <time>2018-07-15T08:43:14Z</time>
      </trkpt>
      <trkpt lat="47.2174" lon="6.06322">
        <ele>475.99</ele>
        <time>2018-07-15T08:43:15Z</time>
      </trkpt>
      <trkpt lat="47.21739" lon="6.06318">
        <ele>475.99</ele>
        <time>2018-07-15T08:43:16Z</time>
      </trkpt>
      <trkpt lat="47.21731" lon="6.06298">
        <ele>475.51</ele>
        <time>2018-07-15T08:43:20Z</time>
      </trkpt>
      <trkpt lat="47.21728" lon="6.06294">
        <ele>475.51</ele>
        <time>2018-07-15T08:43:21Z</time>
      </trkpt>
      <trkpt lat="47.21726" lon="6.06289">
        <ele>475.51</ele>
        <time>2018-07-15T08:43:22Z</time>
      </trkpt>
      <trkpt lat="47.21725" lon="6.06284">
        <ele>475.51</ele>
        <time>2018-07-15T08:43:23Z</time>
      </trkpt>
      <trkpt lat="47.21723" lon="6.0628">
        <ele>475.51</ele>
        <time>2018-07-15T08:43:24Z</time>
      </trkpt>
      <trkpt lat="47.21722" lon="6.06275">
        <ele>475.03</ele>
        <time>2018-07-15T08:43:25Z</time>
      </trkpt>
      <trkpt lat="47.21719" lon="6.0627">
        <ele>475.03</ele>
        <time>2018-07-15T08:43:26Z</time>
      </trkpt>
      <trkpt lat="47.21717" lon="6.06264">
        <ele>475.03</ele>
        <time>2018-07-15T08:43:27Z</time>
      </trkpt>
      <trkpt lat="47.21713" lon="6.06258">
        <ele>475.03</ele>
        <time>2018-07-15T08:43:28Z</time>
      </trkpt>
      <trkpt lat="47.21687" lon="6.06219">
        <ele>474.55</ele>
        <time>2018-07-15T08:43:36Z</time>
      </trkpt>
      <trkpt lat="47.21673" lon="6.06195">
        <ele>474.55</ele>
        <time>2018-07-15T08:43:41Z</time>
      </trkpt>
      <trkpt lat="47.21671" lon="6.0619">
        <ele>474.55</ele>
        <time>2018-07-15T08:43:42Z</time>
      </trkpt>
      <trkpt lat="47.21667" lon="6.06186">
        <ele>474.55</ele>
        <time>2018-07-15T08:43:43Z</time>
      </trkpt>
      <trkpt lat="47.21664" lon="6.06182">
        <ele>474.55</ele>
        <time>2018-07-15T08:43:44Z</time>
      </trkpt>
      <trkpt lat="47.2166" lon="6.06178">
        <ele>474.55</ele>
        <time>2018-07-15T08:43:45Z</time>
      </trkpt>
      <trkpt lat="47.21658" lon="6.06174">
        <ele>474.55</ele>
        <time>2018-07-15T08:43:46Z</time>
      </trkpt>
      <trkpt lat="47.21654" lon="6.06169">
        <ele>474.55</ele>
        <time>2018-07-15T08:43:47Z</time>
      </trkpt>
      <trkpt lat="47.21651" lon="6.06165">
        <ele>474.55</ele>
        <time>2018-07-15T08:43:48Z</time>
      </trkpt>
      <trkpt lat="47.21648" lon="6.06163">
        <ele>475.03</ele>
        <time>2018-07-15T08:43:49Z</time>
      </trkpt>
      <trkpt lat="47.21645" lon="6.0616">
        <ele>474.55</ele>
        <time>2018-07-15T08:43:50Z</time>
      </trkpt>
      <trkpt lat="47.21641" lon="6.06157">
        <ele>474.55</ele>
        <time>2018-07-15T08:43:51Z</time>
      </trkpt>
      <trkpt lat="47.21637" lon="6.06154">
        <ele>474.55</ele>
        <time>2018-07-15T08:43:52Z</time>
      </trkpt>
      <trkpt lat="47.21634" lon="6.06152">
        <ele>473.59</ele>
        <time>2018-07-15T08:43:53Z</time>
      </trkpt>
      <trkpt lat="47.2163" lon="6.06148">
        <ele>473.59</ele>
        <time>2018-07-15T08:43:54Z</time>
      </trkpt>
      <trkpt lat="47.21627" lon="6.06142">
        <ele>473.59</ele>
        <time>2018-07-15T08:43:55Z</time>
      </trkpt>
      <trkpt lat="47.21611" lon="6.06114">
        <ele>474.55</ele>
        <time>2018-07-15T08:44:01Z</time>
      </trkpt>
      <trkpt lat="47.2161" lon="6.06109">
        <ele>474.55</ele>
        <time>2018-07-15T08:44:02Z</time>
      </trkpt>
      <trkpt lat="47.21607" lon="6.06106">
        <ele>474.55</ele>
        <time>2018-07-15T08:44:03Z</time>
      </trkpt>
      <trkpt lat="47.21603" lon="6.06101">
        <ele>474.55</ele>
        <time>2018-07-15T08:44:05Z</time>
      </trkpt>
      <trkpt lat="47.21601" lon="6.06097">
        <ele>474.55</ele>
        <time>2018-07-15T08:44:06Z</time>
      </trkpt>
      <trkpt lat="47.21598" lon="6.06093">
        <ele>474.55</ele>
        <time>2018-07-15T08:44:07Z</time>
      </trkpt>
      <trkpt lat="47.21595" lon="6.0609">
        <ele>474.55</ele>
        <time>2018-07-15T08:44:08Z</time>
      </trkpt>
      <trkpt lat="47.21593" lon="6.06086">
        <ele>474.07</ele>
        <time>2018-07-15T08:44:09Z</time>
      </trkpt>
      <trkpt lat="47.21592" lon="6.06082">
        <ele>474.07</ele>
        <time>2018-07-15T08:44:10Z</time>
      </trkpt>
      <trkpt lat="47.21589" lon="6.06078">
        <ele>474.55</ele>
        <time>2018-07-15T08:44:11Z</time>
      </trkpt>
      <trkpt lat="47.21586" lon="6.06074">
        <ele>474.07</ele>
        <time>2018-07-15T08:44:12Z</time>
      </trkpt>
      <trkpt lat="47.21583" lon="6.06069">
        <ele>474.07</ele>
        <time>2018-07-15T08:44:13Z</time>
      </trkpt>
      <trkpt lat="47.2158" lon="6.06064">
        <ele>473.59</ele>
        <time>2018-07-15T08:44:14Z</time>
      </trkpt>
      <trkpt lat="47.21576" lon="6.06059">
        <ele>473.59</ele>
        <time>2018-07-15T08:44:15Z</time>
      </trkpt>
      <trkpt lat="47.21573" lon="6.06054">
        <ele>473.11</ele>
        <time>2018-07-15T08:44:16Z</time>
      </trkpt>
      <trkpt lat="47.2157" lon="6.06049">
        <ele>472.63</ele>
        <time>2018-07-15T08:44:17Z</time>
      </trkpt>
      <trkpt lat="47.21562" lon="6.06039">
        <ele>472.14</ele>
        <time>2018-07-15T08:44:20Z</time>
      </trkpt>
      <trkpt lat="47.21561" lon="6.06034">
        <ele>471.18</ele>
        <time>2018-07-15T08:44:21Z</time>
      </trkpt>
      <trkpt lat="47.2156" lon="6.06029">
        <ele>470.7</ele>
        <time>2018-07-15T08:44:22Z</time>
      </trkpt>
      <trkpt lat="47.21559" lon="6.06024">
        <ele>470.7</ele>
        <time>2018-07-15T08:44:23Z</time>
      </trkpt>
      <trkpt lat="47.21558" lon="6.06015">
        <ele>469.74</ele>
        <time>2018-07-15T08:44:25Z</time>
      </trkpt>
      <trkpt lat="47.21558" lon="6.06011">
        <ele>469.26</ele>
        <time>2018-07-15T08:44:26Z</time>
      </trkpt>
      <trkpt lat="47.21557" lon="6.06008">
        <ele>468.78</ele>
        <time>2018-07-15T08:44:27Z</time>
      </trkpt>
      <trkpt lat="47.21557" lon="6.06005">
        <ele>468.78</ele>
        <time>2018-07-15T08:44:28Z</time>
      </trkpt>
      <trkpt lat="47.21559" lon="6.06001">
        <ele>468.3</ele>
        <time>2018-07-15T08:44:29Z</time>
      </trkpt>
      <trkpt lat="47.21561" lon="6.05993">
        <ele>466.86</ele>
        <time>2018-07-15T08:44:32Z</time>
      </trkpt>
      <trkpt lat="47.21559" lon="6.05989">
        <ele>466.86</ele>
        <time>2018-07-15T08:44:33Z</time>
      </trkpt>
      <trkpt lat="47.21558" lon="6.05986">
        <ele>466.86</ele>
        <time>2018-07-15T08:44:34Z</time>
      </trkpt>
      <trkpt lat="47.21554" lon="6.05978">
        <ele>466.38</ele>
        <time>2018-07-15T08:44:36Z</time>
      </trkpt>
      <trkpt lat="47.2155" lon="6.05968">
        <ele>466.38</ele>
        <time>2018-07-15T08:44:37Z</time>
      </trkpt>
      <trkpt lat="47.21542" lon="6.05949">
        <ele>465.42</ele>
        <time>2018-07-15T08:44:39Z</time>
      </trkpt>
      <trkpt lat="47.21539" lon="6.05941">
        <ele>465.9</ele>
        <time>2018-07-15T08:44:40Z</time>
      </trkpt>
      <trkpt lat="47.21515" lon="6.05898">
        <ele>464.93</ele>
        <time>2018-07-15T08:44:48Z</time>
      </trkpt>
      <trkpt lat="47.21511" lon="6.05891">
        <ele>464.93</ele>
        <time>2018-07-15T08:44:49Z</time>
      </trkpt>
      <trkpt lat="47.21508" lon="6.05884">
        <ele>464.45</ele>
        <time>2018-07-15T08:44:50Z</time>
      </trkpt>
      <trkpt lat="47.21504" lon="6.05877">
        <ele>464.45</ele>
        <time>2018-07-15T08:44:51Z</time>
      </trkpt>
      <trkpt lat="47.21501" lon="6.05869">
        <ele>463.97</ele>
        <time>2018-07-15T08:44:52Z</time>
      </trkpt>
      <trkpt lat="47.21497" lon="6.05862">
        <ele>463.49</ele>
        <time>2018-07-15T08:44:53Z</time>
      </trkpt>
      <trkpt lat="47.21492" lon="6.05855">
        <ele>463.49</ele>
        <time>2018-07-15T08:44:54Z</time>
      </trkpt>
      <trkpt lat="47.21488" lon="6.05847">
        <ele>463.01</ele>
        <time>2018-07-15T08:44:55Z</time>
      </trkpt>
      <trkpt lat="47.21488" lon="6.0584">
        <ele>463.01</ele>
        <time>2018-07-15T08:44:56Z</time>
      </trkpt>
      <trkpt lat="47.21489" lon="6.05833">
        <ele>462.53</ele>
        <time>2018-07-15T08:44:57Z</time>
      </trkpt>
      <trkpt lat="47.21492" lon="6.05826">
        <ele>462.05</ele>
        <time>2018-07-15T08:44:58Z</time>
      </trkpt>
      <trkpt lat="47.21495" lon="6.05819">
        <ele>461.57</ele>
        <time>2018-07-15T08:44:59Z</time>
      </trkpt>
      <trkpt lat="47.21497" lon="6.05812">
        <ele>461.57</ele>
        <time>2018-07-15T08:45:00Z</time>
      </trkpt>
      <trkpt lat="47.21499" lon="6.05807">
        <ele>461.57</ele>
        <time>2018-07-15T08:45:01Z</time>
      </trkpt>
      <trkpt lat="47.21501" lon="6.05801">
        <ele>461.57</ele>
        <time>2018-07-15T08:45:02Z</time>
      </trkpt>
      <trkpt lat="47.21504" lon="6.05795">
        <ele>460.61</ele>
        <time>2018-07-15T08:45:03Z</time>
      </trkpt>
      <trkpt lat="47.21517" lon="6.05763">
        <ele>458.69</ele>
        <time>2018-07-15T08:45:07Z</time>
      </trkpt>
      <trkpt lat="47.21525" lon="6.05734">
        <ele>456.76</ele>
        <time>2018-07-15T08:45:10Z</time>
      </trkpt>
      <trkpt lat="47.21526" lon="6.05725">
        <ele>456.76</ele>
        <time>2018-07-15T08:45:11Z</time>
      </trkpt>
      <trkpt lat="47.21527" lon="6.05715">
        <ele>457.24</ele>
        <time>2018-07-15T08:45:12Z</time>
      </trkpt>
      <trkpt lat="47.21529" lon="6.05681">
        <ele>456.76</ele>
        <time>2018-07-15T08:45:16Z</time>
      </trkpt>
      <trkpt lat="47.21529" lon="6.05672">
        <ele>456.28</ele>
        <time>2018-07-15T08:45:17Z</time>
      </trkpt>
      <trkpt lat="47.21528" lon="6.05664">
        <ele>455.8</ele>
        <time>2018-07-15T08:45:18Z</time>
      </trkpt>
      <trkpt lat="47.21528" lon="6.05636">
        <ele>454.84</ele>
        <time>2018-07-15T08:45:21Z</time>
      </trkpt>
      <trkpt lat="47.21532" lon="6.05591">
        <ele>452.44</ele>
        <time>2018-07-15T08:45:25Z</time>
      </trkpt>
      <trkpt lat="47.2156" lon="6.05505">
        <ele>449.55</ele>
        <time>2018-07-15T08:45:33Z</time>
      </trkpt>
      <trkpt lat="47.21572" lon="6.05477">
        <ele>450.03</ele>
        <time>2018-07-15T08:45:36Z</time>
      </trkpt>
      <trkpt lat="47.21577" lon="6.05471">
        <ele>450.52</ele>
        <time>2018-07-15T08:45:37Z</time>
      </trkpt>
      <trkpt lat="47.21612" lon="6.05414">
        <ele>451.96</ele>
        <time>2018-07-15T08:45:46Z</time>
      </trkpt>
      <trkpt lat="47.21615" lon="6.05408">
        <ele>451.96</ele>
        <time>2018-07-15T08:45:47Z</time>
      </trkpt>
      <trkpt lat="47.21618" lon="6.05402">
        <ele>452.44</ele>
        <time>2018-07-15T08:45:48Z</time>
      </trkpt>
      <trkpt lat="47.21621" lon="6.05396">
        <ele>452.44</ele>
        <time>2018-07-15T08:45:49Z</time>
      </trkpt>
      <trkpt lat="47.21624" lon="6.0539">
        <ele>452.44</ele>
        <time>2018-07-15T08:45:50Z</time>
      </trkpt>
      <trkpt lat="47.21627" lon="6.05384">
        <ele>452.44</ele>
        <time>2018-07-15T08:45:51Z</time>
      </trkpt>
      <trkpt lat="47.21648" lon="6.05343">
        <ele>452.92</ele>
        <time>2018-07-15T08:45:58Z</time>
      </trkpt>
      <trkpt lat="47.21652" lon="6.05339">
        <ele>453.4</ele>
        <time>2018-07-15T08:45:59Z</time>
      </trkpt>
      <trkpt lat="47.21656" lon="6.05335">
        <ele>453.4</ele>
        <time>2018-07-15T08:46:00Z</time>
      </trkpt>
      <trkpt lat="47.2166" lon="6.05332">
        <ele>453.4</ele>
        <time>2018-07-15T08:46:01Z</time>
      </trkpt>
      <trkpt lat="47.21664" lon="6.0533">
        <ele>453.88</ele>
        <time>2018-07-15T08:46:02Z</time>
      </trkpt>
      <trkpt lat="47.21669" lon="6.05328">
        <ele>453.88</ele>
        <time>2018-07-15T08:46:03Z</time>
      </trkpt>
      <trkpt lat="47.21673" lon="6.05326">
        <ele>454.36</ele>
        <time>2018-07-15T08:46:04Z</time>
      </trkpt>
      <trkpt lat="47.21677" lon="6.05325">
        <ele>454.84</ele>
        <time>2018-07-15T08:46:05Z</time>
      </trkpt>
      <trkpt lat="47.21732" lon="6.05314">
        <ele>456.28</ele>
        <time>2018-07-15T08:46:18Z</time>
      </trkpt>
      <trkpt lat="47.21776" lon="6.0531">
        <ele>458.69</ele>
        <time>2018-07-15T08:46:31Z</time>
      </trkpt>
      <trkpt lat="47.21805" lon="6.05308">
        <ele>460.13</ele>
        <time>2018-07-15T08:46:42Z</time>
      </trkpt>
      <trkpt lat="47.2184" lon="6.05284">
        <ele>459.17</ele>
        <time>2018-07-15T08:46:54Z</time>
      </trkpt>
      <trkpt lat="47.21865" lon="6.05264">
        <ele>458.69</ele>
        <time>2018-07-15T08:47:00Z</time>
      </trkpt>
      <trkpt lat="47.2187" lon="6.05261">
        <ele>458.69</ele>
        <time>2018-07-15T08:47:01Z</time>
      </trkpt>
      <trkpt lat="47.21889" lon="6.05251">
        <ele>459.17</ele>
        <time>2018-07-15T08:47:05Z</time>
      </trkpt>
      <trkpt lat="47.21893" lon="6.05249">
        <ele>459.65</ele>
        <time>2018-07-15T08:47:06Z</time>
      </trkpt>
      <trkpt lat="47.21897" lon="6.05247">
        <ele>459.65</ele>
        <time>2018-07-15T08:47:07Z</time>
      </trkpt>
      <trkpt lat="47.21925" lon="6.05244">
        <ele>463.01</ele>
        <time>2018-07-15T08:47:16Z</time>
      </trkpt>
      <trkpt lat="47.21951" lon="6.05251">
        <ele>466.38</ele>
        <time>2018-07-15T08:47:26Z</time>
      </trkpt>
      <trkpt lat="47.21964" lon="6.05262">
        <ele>469.26</ele>
        <time>2018-07-15T08:47:36Z</time>
      </trkpt>
      <trkpt lat="47.21977" lon="6.05264">
        <ele>468.78</ele>
        <time>2018-07-15T08:47:41Z</time>
      </trkpt>
      <trkpt lat="47.22012" lon="6.05277">
        <ele>468.3</ele>
        <time>2018-07-15T08:47:51Z</time>
      </trkpt>
      <trkpt lat="47.22034" lon="6.05297">
        <ele>470.22</ele>
        <time>2018-07-15T08:48:02Z</time>
      </trkpt>
      <trkpt lat="47.22045" lon="6.05304">
        <ele>473.11</ele>
        <time>2018-07-15T08:48:09Z</time>
      </trkpt>
      <trkpt lat="47.22047" lon="6.05304">
        <ele>473.11</ele>
        <time>2018-07-15T08:48:10Z</time>
      </trkpt>
      <trkpt lat="47.22048" lon="6.05303">
        <ele>473.59</ele>
        <time>2018-07-15T08:48:11Z</time>
      </trkpt>
      <trkpt lat="47.2205" lon="6.05303">
        <ele>473.59</ele>
        <time>2018-07-15T08:48:12Z</time>
      </trkpt>
      <trkpt lat="47.22053" lon="6.05303">
        <ele>473.59</ele>
        <time>2018-07-15T08:48:13Z</time>
      </trkpt>
      <trkpt lat="47.2206" lon="6.05304">
        <ele>474.07</ele>
        <time>2018-07-15T08:48:16Z</time>
      </trkpt>
      <trkpt lat="47.22062" lon="6.05305">
        <ele>474.07</ele>
        <time>2018-07-15T08:48:17Z</time>
      </trkpt>
      <trkpt lat="47.22065" lon="6.05306">
        <ele>474.07</ele>
        <time>2018-07-15T08:48:18Z</time>
      </trkpt>
      <trkpt lat="47.22075" lon="6.05309">
        <ele>473.59</ele>
        <time>2018-07-15T08:48:21Z</time>
      </trkpt>
      <trkpt lat="47.22079" lon="6.05311">
        <ele>473.59</ele>
        <time>2018-07-15T08:48:22Z</time>
      </trkpt>
      <trkpt lat="47.22082" lon="6.05314">
        <ele>473.11</ele>
        <time>2018-07-15T08:48:23Z</time>
      </trkpt>
      <trkpt lat="47.22084" lon="6.05316">
        <ele>473.11</ele>
        <time>2018-07-15T08:48:24Z</time>
      </trkpt>
      <trkpt lat="47.22088" lon="6.05319">
        <ele>473.11</ele>
        <time>2018-07-15T08:48:25Z</time>
      </trkpt>
      <trkpt lat="47.22096" lon="6.05327">
        <ele>472.63</ele>
        <time>2018-07-15T08:48:27Z</time>
      </trkpt>
      <trkpt lat="47.22101" lon="6.05331">
        <ele>471.66</ele>
        <time>2018-07-15T08:48:28Z</time>
      </trkpt>
      <trkpt lat="47.22105" lon="6.05336">
        <ele>471.66</ele>
        <time>2018-07-15T08:48:29Z</time>
      </trkpt>
      <trkpt lat="47.22113" lon="6.05346">
        <ele>471.18</ele>
        <time>2018-07-15T08:48:31Z</time>
      </trkpt>
      <trkpt lat="47.22119" lon="6.05357">
        <ele>471.18</ele>
        <time>2018-07-15T08:48:33Z</time>
      </trkpt>
      <trkpt lat="47.22122" lon="6.05362">
        <ele>471.18</ele>
        <time>2018-07-15T08:48:34Z</time>
      </trkpt>
      <trkpt lat="47.22126" lon="6.05367">
        <ele>471.18</ele>
        <time>2018-07-15T08:48:35Z</time>
      </trkpt>
      <trkpt lat="47.22129" lon="6.05372">
        <ele>471.18</ele>
        <time>2018-07-15T08:48:36Z</time>
      </trkpt>
      <trkpt lat="47.22133" lon="6.05377">
        <ele>471.18</ele>
        <time>2018-07-15T08:48:37Z</time>
      </trkpt>
      <trkpt lat="47.22164" lon="6.05434">
        <ele>471.18</ele>
        <time>2018-07-15T08:48:49Z</time>
      </trkpt>
      <trkpt lat="47.22166" lon="6.05439">
        <ele>471.18</ele>
        <time>2018-07-15T08:48:50Z</time>
      </trkpt>
      <trkpt lat="47.2217" lon="6.05444">
        <ele>470.7</ele>
        <time>2018-07-15T08:48:51Z</time>
      </trkpt>
      <trkpt lat="47.22177" lon="6.05452">
        <ele>469.26</ele>
        <time>2018-07-15T08:48:53Z</time>
      </trkpt>
      <trkpt lat="47.22182" lon="6.05456">
        <ele>468.78</ele>
        <time>2018-07-15T08:48:54Z</time>
      </trkpt>
      <trkpt lat="47.22187" lon="6.0546">
        <ele>467.34</ele>
        <time>2018-07-15T08:48:55Z</time>
      </trkpt>
      <trkpt lat="47.22192" lon="6.05464">
        <ele>466.38</ele>
        <time>2018-07-15T08:48:56Z</time>
      </trkpt>
      <trkpt lat="47.22197" lon="6.05468">
        <ele>465.9</ele>
        <time>2018-07-15T08:48:57Z</time>
      </trkpt>
      <trkpt lat="47.22214" lon="6.05483">
        <ele>463.49</ele>
        <time>2018-07-15T08:49:00Z</time>
      </trkpt>
      <trkpt lat="47.2222" lon="6.05487">
        <ele>462.53</ele>
        <time>2018-07-15T08:49:01Z</time>
      </trkpt>
      <trkpt lat="47.22231" lon="6.05496">
        <ele>460.61</ele>
        <time>2018-07-15T08:49:03Z</time>
      </trkpt>
      <trkpt lat="47.22248" lon="6.05511">
        <ele>457.24</ele>
        <time>2018-07-15T08:49:06Z</time>
      </trkpt>
      <trkpt lat="47.22252" lon="6.05517">
        <ele>456.76</ele>
        <time>2018-07-15T08:49:07Z</time>
      </trkpt>
      <trkpt lat="47.22256" lon="6.05523">
        <ele>456.76</ele>
        <time>2018-07-15T08:49:08Z</time>
      </trkpt>
      <trkpt lat="47.22259" lon="6.0553">
        <ele>456.28</ele>
        <time>2018-07-15T08:49:09Z</time>
      </trkpt>
      <trkpt lat="47.22262" lon="6.05538">
        <ele>454.84</ele>
        <time>2018-07-15T08:49:10Z</time>
      </trkpt>
      <trkpt lat="47.22265" lon="6.05547">
        <ele>453.88</ele>
        <time>2018-07-15T08:49:11Z</time>
      </trkpt>
      <trkpt lat="47.22268" lon="6.05556">
        <ele>451.96</ele>
        <time>2018-07-15T08:49:12Z</time>
      </trkpt>
      <trkpt lat="47.22272" lon="6.05564">
        <ele>451</ele>
        <time>2018-07-15T08:49:13Z</time>
      </trkpt>
      <trkpt lat="47.22277" lon="6.05571">
        <ele>450.52</ele>
        <time>2018-07-15T08:49:14Z</time>
      </trkpt>
      <trkpt lat="47.22284" lon="6.05577">
        <ele>449.55</ele>
        <time>2018-07-15T08:49:15Z</time>
      </trkpt>
      <trkpt lat="47.2229" lon="6.05582">
        <ele>448.59</ele>
        <time>2018-07-15T08:49:16Z</time>
      </trkpt>
      <trkpt lat="47.22297" lon="6.05585">
        <ele>447.63</ele>
        <time>2018-07-15T08:49:17Z</time>
      </trkpt>
      <trkpt lat="47.22304" lon="6.05585">
        <ele>447.15</ele>
        <time>2018-07-15T08:49:18Z</time>
      </trkpt>
      <trkpt lat="47.22311" lon="6.05584">
        <ele>446.19</ele>
        <time>2018-07-15T08:49:19Z</time>
      </trkpt>
      <trkpt lat="47.22318" lon="6.05582">
        <ele>446.19</ele>
        <time>2018-07-15T08:49:20Z</time>
      </trkpt>
      <trkpt lat="47.22326" lon="6.0558">
        <ele>445.71</ele>
        <time>2018-07-15T08:49:21Z</time>
      </trkpt>
      <trkpt lat="47.22332" lon="6.05576">
        <ele>445.71</ele>
        <time>2018-07-15T08:49:22Z</time>
      </trkpt>
      <trkpt lat="47.22337" lon="6.05571">
        <ele>446.19</ele>
        <time>2018-07-15T08:49:23Z</time>
      </trkpt>
      <trkpt lat="47.22342" lon="6.05567">
        <ele>446.19</ele>
        <time>2018-07-15T08:49:24Z</time>
      </trkpt>
      <trkpt lat="47.22347" lon="6.05562">
        <ele>446.19</ele>
        <time>2018-07-15T08:49:25Z</time>
      </trkpt>
      <trkpt lat="47.2235" lon="6.05558">
        <ele>446.19</ele>
        <time>2018-07-15T08:49:26Z</time>
      </trkpt>
      <trkpt lat="47.22352" lon="6.05553">
        <ele>446.19</ele>
        <time>2018-07-15T08:49:27Z</time>
      </trkpt>
      <trkpt lat="47.22359" lon="6.05532">
        <ele>446.19</ele>
        <time>2018-07-15T08:49:31Z</time>
      </trkpt>
      <trkpt lat="47.22358" lon="6.05526">
        <ele>445.71</ele>
        <time>2018-07-15T08:49:32Z</time>
      </trkpt>
      <trkpt lat="47.22356" lon="6.05521">
        <ele>445.71</ele>
        <time>2018-07-15T08:49:33Z</time>
      </trkpt>
      <trkpt lat="47.22355" lon="6.05515">
        <ele>445.23</ele>
        <time>2018-07-15T08:49:34Z</time>
      </trkpt>
      <trkpt lat="47.22353" lon="6.05509">
        <ele>445.23</ele>
        <time>2018-07-15T08:49:35Z</time>
      </trkpt>
      <trkpt lat="47.22351" lon="6.05497">
        <ele>444.75</ele>
        <time>2018-07-15T08:49:37Z</time>
      </trkpt>
      <trkpt lat="47.2235" lon="6.0549">
        <ele>444.75</ele>
        <time>2018-07-15T08:49:38Z</time>
      </trkpt>
      <trkpt lat="47.2235" lon="6.05433">
        <ele>443.31</ele>
        <time>2018-07-15T08:49:47Z</time>
      </trkpt>
      <trkpt lat="47.22349" lon="6.05425">
        <ele>443.31</ele>
        <time>2018-07-15T08:49:48Z</time>
      </trkpt>
      <trkpt lat="47.22349" lon="6.05408">
        <ele>442.34</ele>
        <time>2018-07-15T08:49:50Z</time>
      </trkpt>
      <trkpt lat="47.22348" lon="6.054">
        <ele>442.34</ele>
        <time>2018-07-15T08:49:51Z</time>
      </trkpt>
      <trkpt lat="47.22346" lon="6.05392">
        <ele>442.34</ele>
        <time>2018-07-15T08:49:52Z</time>
      </trkpt>
      <trkpt lat="47.22344" lon="6.05385">
        <ele>441.86</ele>
        <time>2018-07-15T08:49:53Z</time>
      </trkpt>
      <trkpt lat="47.22342" lon="6.05377">
        <ele>441.86</ele>
        <time>2018-07-15T08:49:54Z</time>
      </trkpt>
      <trkpt lat="47.2234" lon="6.05368">
        <ele>441.38</ele>
        <time>2018-07-15T08:49:55Z</time>
      </trkpt>
      <trkpt lat="47.22338" lon="6.05358">
        <ele>440.9</ele>
        <time>2018-07-15T08:49:56Z</time>
      </trkpt>
      <trkpt lat="47.22335" lon="6.0535">
        <ele>440.9</ele>
        <time>2018-07-15T08:49:57Z</time>
      </trkpt>
      <trkpt lat="47.22333" lon="6.05342">
        <ele>440.9</ele>
        <time>2018-07-15T08:49:58Z</time>
      </trkpt>
      <trkpt lat="47.22326" lon="6.05305">
        <ele>439.94</ele>
        <time>2018-07-15T08:50:04Z</time>
      </trkpt>
      <trkpt lat="47.22327" lon="6.05303">
        <ele>439.94</ele>
        <time>2018-07-15T08:50:05Z</time>
      </trkpt>
      <trkpt lat="47.22327" lon="6.05302">
        <ele>439.94</ele>
        <time>2018-07-15T08:50:06Z</time>
      </trkpt>
      <trkpt lat="47.22328" lon="6.05303">
        <ele>439.94</ele>
        <time>2018-07-15T08:50:07Z</time>
      </trkpt>
      <trkpt lat="47.22329" lon="6.05304">
        <ele>439.94</ele>
        <time>2018-07-15T08:50:08Z</time>
      </trkpt>
      <trkpt lat="47.2233" lon="6.05306">
        <ele>439.46</ele>
        <time>2018-07-15T08:50:09Z</time>
      </trkpt>
      <trkpt lat="47.22332" lon="6.05309">
        <ele>439.46</ele>
        <time>2018-07-15T08:50:10Z</time>
      </trkpt>
      <trkpt lat="47.22334" lon="6.05312">
        <ele>438.98</ele>
        <time>2018-07-15T08:50:11Z</time>
      </trkpt>
      <trkpt lat="47.22337" lon="6.05316">
        <ele>438.98</ele>
        <time>2018-07-15T08:50:12Z</time>
      </trkpt>
      <trkpt lat="47.22347" lon="6.05327">
        <ele>438.98</ele>
        <time>2018-07-15T08:50:16Z</time>
      </trkpt>
      <trkpt lat="47.2235" lon="6.05329">
        <ele>438.5</ele>
        <time>2018-07-15T08:50:17Z</time>
      </trkpt>
      <trkpt lat="47.22353" lon="6.05333">
        <ele>438.02</ele>
        <time>2018-07-15T08:50:18Z</time>
      </trkpt>
      <trkpt lat="47.22356" lon="6.05338">
        <ele>437.54</ele>
        <time>2018-07-15T08:50:19Z</time>
      </trkpt>
      <trkpt lat="47.22359" lon="6.05343">
        <ele>437.06</ele>
        <time>2018-07-15T08:50:20Z</time>
      </trkpt>
      <trkpt lat="47.22362" lon="6.05349">
        <ele>437.06</ele>
        <time>2018-07-15T08:50:21Z</time>
      </trkpt>
      <trkpt lat="47.22364" lon="6.05355">
        <ele>437.06</ele>
        <time>2018-07-15T08:50:22Z</time>
      </trkpt>
      <trkpt lat="47.22366" lon="6.0536">
        <ele>437.54</ele>
        <time>2018-07-15T08:50:23Z</time>
      </trkpt>
      <trkpt lat="47.22369" lon="6.05371">
        <ele>437.54</ele>
        <time>2018-07-15T08:50:25Z</time>
      </trkpt>
      <trkpt lat="47.2237" lon="6.05376">
        <ele>437.54</ele>
        <time>2018-07-15T08:50:26Z</time>
      </trkpt>
      <trkpt lat="47.22374" lon="6.05387">
        <ele>437.54</ele>
        <time>2018-07-15T08:50:28Z</time>
      </trkpt>
      <trkpt lat="47.22375" lon="6.05392">
        <ele>437.54</ele>
        <time>2018-07-15T08:50:29Z</time>
      </trkpt>
      <trkpt lat="47.22389" lon="6.05429">
        <ele>437.54</ele>
        <time>2018-07-15T08:50:37Z</time>
      </trkpt>
      <trkpt lat="47.22397" lon="6.05446">
        <ele>436.1</ele>
        <time>2018-07-15T08:50:40Z</time>
      </trkpt>
      <trkpt lat="47.22401" lon="6.05451">
        <ele>434.17</ele>
        <time>2018-07-15T08:50:41Z</time>
      </trkpt>
      <trkpt lat="47.22406" lon="6.05457">
        <ele>432.25</ele>
        <time>2018-07-15T08:50:42Z</time>
      </trkpt>
      <trkpt lat="47.22415" lon="6.05472">
        <ele>430.33</ele>
        <time>2018-07-15T08:50:44Z</time>
      </trkpt>
      <trkpt lat="47.22421" lon="6.05478">
        <ele>430.33</ele>
        <time>2018-07-15T08:50:45Z</time>
      </trkpt>
      <trkpt lat="47.22432" lon="6.05488">
        <ele>430.81</ele>
        <time>2018-07-15T08:50:47Z</time>
      </trkpt>
      <trkpt lat="47.22438" lon="6.05493">
        <ele>431.29</ele>
        <time>2018-07-15T08:50:48Z</time>
      </trkpt>
      <trkpt lat="47.22442" lon="6.05499">
        <ele>431.77</ele>
        <time>2018-07-15T08:50:49Z</time>
      </trkpt>
      <trkpt lat="47.22447" lon="6.05505">
        <ele>431.77</ele>
        <time>2018-07-15T08:50:50Z</time>
      </trkpt>
      <trkpt lat="47.2245" lon="6.05511">
        <ele>432.25</ele>
        <time>2018-07-15T08:50:51Z</time>
      </trkpt>
      <trkpt lat="47.22452" lon="6.05517">
        <ele>432.73</ele>
        <time>2018-07-15T08:50:52Z</time>
      </trkpt>
      <trkpt lat="47.22453" lon="6.05523">
        <ele>433.21</ele>
        <time>2018-07-15T08:50:53Z</time>
      </trkpt>
      <trkpt lat="47.22454" lon="6.05529">
        <ele>433.69</ele>
        <time>2018-07-15T08:50:54Z</time>
      </trkpt>
      <trkpt lat="47.22454" lon="6.05534">
        <ele>434.17</ele>
        <time>2018-07-15T08:50:55Z</time>
      </trkpt>
      <trkpt lat="47.22455" lon="6.05539">
        <ele>435.13</ele>
        <time>2018-07-15T08:50:56Z</time>
      </trkpt>
      <trkpt lat="47.22456" lon="6.05544">
        <ele>435.13</ele>
        <time>2018-07-15T08:50:57Z</time>
      </trkpt>
      <trkpt lat="47.22457" lon="6.05549">
        <ele>435.61</ele>
        <time>2018-07-15T08:50:58Z</time>
      </trkpt>
      <trkpt lat="47.22458" lon="6.05554">
        <ele>435.61</ele>
        <time>2018-07-15T08:50:59Z</time>
      </trkpt>
      <trkpt lat="47.2246" lon="6.05559">
        <ele>436.1</ele>
        <time>2018-07-15T08:51:00Z</time>
      </trkpt>
      <trkpt lat="47.22462" lon="6.05563">
        <ele>436.58</ele>
        <time>2018-07-15T08:51:01Z</time>
      </trkpt>
      <trkpt lat="47.22465" lon="6.05567">
        <ele>437.06</ele>
        <time>2018-07-15T08:51:02Z</time>
      </trkpt>
      <trkpt lat="47.22467" lon="6.05571">
        <ele>437.06</ele>
        <time>2018-07-15T08:51:03Z</time>
      </trkpt>
      <trkpt lat="47.2247" lon="6.05576">
        <ele>437.54</ele>
        <time>2018-07-15T08:51:04Z</time>
      </trkpt>
      <trkpt lat="47.22472" lon="6.0558">
        <ele>437.54</ele>
        <time>2018-07-15T08:51:05Z</time>
      </trkpt>
      <trkpt lat="47.22475" lon="6.05585">
        <ele>437.54</ele>
        <time>2018-07-15T08:51:06Z</time>
      </trkpt>
      <trkpt lat="47.2248" lon="6.05599">
        <ele>438.02</ele>
        <time>2018-07-15T08:51:09Z</time>
      </trkpt>
      <trkpt lat="47.22483" lon="6.05603">
        <ele>438.5</ele>
        <time>2018-07-15T08:51:10Z</time>
      </trkpt>
      <trkpt lat="47.22486" lon="6.05607">
        <ele>438.5</ele>
        <time>2018-07-15T08:51:11Z</time>
      </trkpt>
      <trkpt lat="47.22488" lon="6.05612">
        <ele>438.5</ele>
        <time>2018-07-15T08:51:12Z</time>
      </trkpt>
      <trkpt lat="47.22491" lon="6.05616">
        <ele>438.5</ele>
        <time>2018-07-15T08:51:13Z</time>
      </trkpt>
      <trkpt lat="47.22494" lon="6.0562">
        <ele>438.98</ele>
        <time>2018-07-15T08:51:14Z</time>
      </trkpt>
      <trkpt lat="47.22497" lon="6.05624">
        <ele>438.98</ele>
        <time>2018-07-15T08:51:15Z</time>
      </trkpt>
      <trkpt lat="47.225" lon="6.05629">
        <ele>438.98</ele>
        <time>2018-07-15T08:51:16Z</time>
      </trkpt>
      <trkpt lat="47.22504" lon="6.05634">
        <ele>438.98</ele>
        <time>2018-07-15T08:51:17Z</time>
      </trkpt>
      <trkpt lat="47.22507" lon="6.05638">
        <ele>438.98</ele>
        <time>2018-07-15T08:51:18Z</time>
      </trkpt>
      <trkpt lat="47.2251" lon="6.05643">
        <ele>439.46</ele>
        <time>2018-07-15T08:51:19Z</time>
      </trkpt>
      <trkpt lat="47.22512" lon="6.05648">
        <ele>439.94</ele>
        <time>2018-07-15T08:51:20Z</time>
      </trkpt>
      <trkpt lat="47.22515" lon="6.05659">
        <ele>440.42</ele>
        <time>2018-07-15T08:51:23Z</time>
      </trkpt>
      <trkpt lat="47.22515" lon="6.05663">
        <ele>440.42</ele>
        <time>2018-07-15T08:51:24Z</time>
      </trkpt>
      <trkpt lat="47.22516" lon="6.05668">
        <ele>440.9</ele>
        <time>2018-07-15T08:51:25Z</time>
      </trkpt>
      <trkpt lat="47.22518" lon="6.05677">
        <ele>440.9</ele>
        <time>2018-07-15T08:51:27Z</time>
      </trkpt>
      <trkpt lat="47.22517" lon="6.05682">
        <ele>440.9</ele>
        <time>2018-07-15T08:51:28Z</time>
      </trkpt>
      <trkpt lat="47.22515" lon="6.05686">
        <ele>441.38</ele>
        <time>2018-07-15T08:51:29Z</time>
      </trkpt>
      <trkpt lat="47.22515" lon="6.05689">
        <ele>441.86</ele>
        <time>2018-07-15T08:51:30Z</time>
      </trkpt>
      <trkpt lat="47.22515" lon="6.05693">
        <ele>441.86</ele>
        <time>2018-07-15T08:51:31Z</time>
      </trkpt>
      <trkpt lat="47.22516" lon="6.05697">
        <ele>442.34</ele>
        <time>2018-07-15T08:51:32Z</time>
      </trkpt>
      <trkpt lat="47.22518" lon="6.057">
        <ele>442.82</ele>
        <time>2018-07-15T08:51:33Z</time>
      </trkpt>
      <trkpt lat="47.22519" lon="6.05703">
        <ele>443.31</ele>
        <time>2018-07-15T08:51:34Z</time>
      </trkpt>
      <trkpt lat="47.22522" lon="6.05705">
        <ele>443.31</ele>
        <time>2018-07-15T08:51:35Z</time>
      </trkpt>
      <trkpt lat="47.22524" lon="6.05707">
        <ele>443.31</ele>
        <time>2018-07-15T08:51:36Z</time>
      </trkpt>
      <trkpt lat="47.22526" lon="6.0571">
        <ele>443.31</ele>
        <time>2018-07-15T08:51:37Z</time>
      </trkpt>
      <trkpt lat="47.22528" lon="6.05712">
        <ele>443.79</ele>
        <time>2018-07-15T08:51:38Z</time>
      </trkpt>
      <trkpt lat="47.22531" lon="6.05715">
        <ele>444.27</ele>
        <time>2018-07-15T08:51:39Z</time>
      </trkpt>
      <trkpt lat="47.22533" lon="6.05717">
        <ele>444.27</ele>
        <time>2018-07-15T08:51:40Z</time>
      </trkpt>
      <trkpt lat="47.22535" lon="6.05721">
        <ele>444.75</ele>
        <time>2018-07-15T08:51:41Z</time>
      </trkpt>
      <trkpt lat="47.22536" lon="6.05724">
        <ele>445.23</ele>
        <time>2018-07-15T08:51:42Z</time>
      </trkpt>
      <trkpt lat="47.22538" lon="6.05729">
        <ele>445.71</ele>
        <time>2018-07-15T08:51:44Z</time>
      </trkpt>
      <trkpt lat="47.22534" lon="6.0574">
        <ele>447.15</ele>
        <time>2018-07-15T08:51:48Z</time>
      </trkpt>
      <trkpt lat="47.22556" lon="6.05772">
        <ele>449.07</ele>
        <time>2018-07-15T08:51:58Z</time>
      </trkpt>
      <trkpt lat="47.22575" lon="6.05803">
        <ele>450.52</ele>
        <time>2018-07-15T08:52:06Z</time>
      </trkpt>
      <trkpt lat="47.22577" lon="6.05806">
        <ele>450.52</ele>
        <time>2018-07-15T08:52:07Z</time>
      </trkpt>
      <trkpt lat="47.22592" lon="6.05826">
        <ele>451.96</ele>
        <time>2018-07-15T08:52:13Z</time>
      </trkpt>
      <trkpt lat="47.22603" lon="6.05858">
        <ele>452.44</ele>
        <time>2018-07-15T08:52:22Z</time>
      </trkpt>
      <trkpt lat="47.22604" lon="6.05862">
        <ele>452.44</ele>
        <time>2018-07-15T08:52:23Z</time>
      </trkpt>
      <trkpt lat="47.22607" lon="6.05902">
        <ele>452.44</ele>
        <time>2018-07-15T08:52:33Z</time>
      </trkpt>
      <trkpt lat="47.22608" lon="6.05915">
        <ele>452.44</ele>
        <time>2018-07-15T08:52:41Z</time>
      </trkpt>
      <trkpt lat="47.22607" lon="6.0592">
        <ele>451.96</ele>
        <time>2018-07-15T08:52:43Z</time>
      </trkpt>
      <trkpt lat="47.22607" lon="6.05928">
        <ele>451.48</ele>
        <time>2018-07-15T08:52:45Z</time>
      </trkpt>
      <trkpt lat="47.22609" lon="6.0593">
        <ele>451.48</ele>
        <time>2018-07-15T08:52:46Z</time>
      </trkpt>
      <trkpt lat="47.22611" lon="6.05933">
        <ele>450.52</ele>
        <time>2018-07-15T08:52:47Z</time>
      </trkpt>
      <trkpt lat="47.22613" lon="6.05937">
        <ele>450.52</ele>
        <time>2018-07-15T08:52:48Z</time>
      </trkpt>
      <trkpt lat="47.22615" lon="6.05941">
        <ele>450.03</ele>
        <time>2018-07-15T08:52:49Z</time>
      </trkpt>
      <trkpt lat="47.22616" lon="6.05945">
        <ele>449.55</ele>
        <time>2018-07-15T08:52:50Z</time>
      </trkpt>
      <trkpt lat="47.22621" lon="6.05965">
        <ele>446.67</ele>
        <time>2018-07-15T08:52:56Z</time>
      </trkpt>
      <trkpt lat="47.22615" lon="6.0599">
        <ele>444.75</ele>
        <time>2018-07-15T08:53:03Z</time>
      </trkpt>
      <trkpt lat="47.22626" lon="6.05996">
        <ele>439.94</ele>
        <time>2018-07-15T08:53:11Z</time>
      </trkpt>
      <trkpt lat="47.22638" lon="6.05996">
        <ele>437.06</ele>
        <time>2018-07-15T08:53:22Z</time>
      </trkpt>
      <trkpt lat="47.22641" lon="6.05999">
        <ele>436.58</ele>
        <time>2018-07-15T08:53:28Z</time>
      </trkpt>
      <trkpt lat="47.22642" lon="6.06004">
        <ele>434.65</ele>
        <time>2018-07-15T08:53:31Z</time>
      </trkpt>
      <trkpt lat="47.22641" lon="6.06012">
        <ele>434.17</ele>
        <time>2018-07-15T08:53:34Z</time>
      </trkpt>
      <trkpt lat="47.22641" lon="6.06017">
        <ele>434.17</ele>
        <time>2018-07-15T08:53:36Z</time>
      </trkpt>
      <trkpt lat="47.22641" lon="6.06024">
        <ele>433.69</ele>
        <time>2018-07-15T08:53:39Z</time>
      </trkpt>
      <trkpt lat="47.22642" lon="6.06037">
        <ele>432.73</ele>
        <time>2018-07-15T08:53:43Z</time>
      </trkpt>
      <trkpt lat="47.22643" lon="6.0604">
        <ele>432.25</ele>
        <time>2018-07-15T08:53:44Z</time>
      </trkpt>
      <trkpt lat="47.22648" lon="6.06042">
        <ele>431.29</ele>
        <time>2018-07-15T08:53:48Z</time>
      </trkpt>
      <trkpt lat="47.22649" lon="6.06041">
        <ele>428.89</ele>
        <time>2018-07-15T08:53:52Z</time>
      </trkpt>
      <trkpt lat="47.22657" lon="6.06035">
        <ele>427.92</ele>
        <time>2018-07-15T08:54:01Z</time>
      </trkpt>
      <trkpt lat="47.22658" lon="6.06035">
        <ele>427.92</ele>
        <time>2018-07-15T08:54:03Z</time>
      </trkpt>
      <trkpt lat="47.22662" lon="6.06025">
        <ele>426.96</ele>
        <time>2018-07-15T08:54:12Z</time>
      </trkpt>
      <trkpt lat="47.22667" lon="6.06028">
        <ele>423.12</ele>
        <time>2018-07-15T08:54:19Z</time>
      </trkpt>
      <trkpt lat="47.22664" lon="6.06034">
        <ele>422.16</ele>
        <time>2018-07-15T08:54:23Z</time>
      </trkpt>
      <trkpt lat="47.22663" lon="6.06046">
        <ele>421.19</ele>
        <time>2018-07-15T08:54:26Z</time>
      </trkpt>
      <trkpt lat="47.22664" lon="6.06054">
        <ele>420.23</ele>
        <time>2018-07-15T08:54:28Z</time>
      </trkpt>
      <trkpt lat="47.22663" lon="6.06058">
        <ele>420.23</ele>
        <time>2018-07-15T08:54:29Z</time>
      </trkpt>
      <trkpt lat="47.22658" lon="6.06069">
        <ele>420.23</ele>
        <time>2018-07-15T08:54:38Z</time>
      </trkpt>
      <trkpt lat="47.2266" lon="6.06071">
        <ele>419.27</ele>
        <time>2018-07-15T08:54:43Z</time>
      </trkpt>
      <trkpt lat="47.22658" lon="6.06069">
        <ele>419.27</ele>
        <time>2018-07-15T08:54:47Z</time>
      </trkpt>
      <trkpt lat="47.22668" lon="6.06065">
        <ele>415.91</ele>
        <time>2018-07-15T08:54:56Z</time>
      </trkpt>
      <trkpt lat="47.22671" lon="6.06078">
        <ele>413.5</ele>
        <time>2018-07-15T08:55:01Z</time>
      </trkpt>
      <trkpt lat="47.22674" lon="6.06083">
        <ele>412.06</ele>
        <time>2018-07-15T08:55:05Z</time>
      </trkpt>
      <trkpt lat="47.22673" lon="6.06091">
        <ele>410.62</ele>
        <time>2018-07-15T08:55:07Z</time>
      </trkpt>
      <trkpt lat="47.22674" lon="6.06092">
        <ele>410.14</ele>
        <time>2018-07-15T08:55:08Z</time>
      </trkpt>
      <trkpt lat="47.22674" lon="6.061">
        <ele>408.7</ele>
        <time>2018-07-15T08:55:10Z</time>
      </trkpt>
      <trkpt lat="47.22676" lon="6.06102">
        <ele>408.22</ele>
        <time>2018-07-15T08:55:11Z</time>
      </trkpt>
      <trkpt lat="47.22677" lon="6.06109">
        <ele>407.74</ele>
        <time>2018-07-15T08:55:13Z</time>
      </trkpt>
      <trkpt lat="47.22674" lon="6.06126">
        <ele>405.33</ele>
        <time>2018-07-15T08:55:17Z</time>
      </trkpt>
      <trkpt lat="47.2267" lon="6.06134">
        <ele>405.81</ele>
        <time>2018-07-15T08:55:20Z</time>
      </trkpt>
      <trkpt lat="47.22673" lon="6.06145">
        <ele>403.89</ele>
        <time>2018-07-15T08:55:24Z</time>
      </trkpt>
      <trkpt lat="47.22677" lon="6.06163">
        <ele>401.01</ele>
        <time>2018-07-15T08:55:28Z</time>
      </trkpt>
      <trkpt lat="47.22678" lon="6.06204">
        <ele>397.64</ele>
        <time>2018-07-15T08:55:36Z</time>
      </trkpt>
      <trkpt lat="47.22679" lon="6.06212">
        <ele>397.64</ele>
        <time>2018-07-15T08:55:38Z</time>
      </trkpt>
      <trkpt lat="47.2268" lon="6.06217">
        <ele>397.16</ele>
        <time>2018-07-15T08:55:39Z</time>
      </trkpt>
      <trkpt lat="47.22681" lon="6.06225">
        <ele>396.68</ele>
        <time>2018-07-15T08:55:40Z</time>
      </trkpt>
      <trkpt lat="47.22683" lon="6.06232">
        <ele>396.2</ele>
        <time>2018-07-15T08:55:41Z</time>
      </trkpt>
      <trkpt lat="47.22685" lon="6.0624">
        <ele>395.72</ele>
        <time>2018-07-15T08:55:42Z</time>
      </trkpt>
      <trkpt lat="47.22686" lon="6.06246">
        <ele>395.24</ele>
        <time>2018-07-15T08:55:43Z</time>
      </trkpt>
      <trkpt lat="47.22694" lon="6.06281">
        <ele>391.87</ele>
        <time>2018-07-15T08:55:50Z</time>
      </trkpt>
      <trkpt lat="47.22696" lon="6.06297">
        <ele>389.47</ele>
        <time>2018-07-15T08:55:53Z</time>
      </trkpt>
      <trkpt lat="47.22695" lon="6.06301">
        <ele>388.99</ele>
        <time>2018-07-15T08:55:54Z</time>
      </trkpt>
      <trkpt lat="47.22693" lon="6.06306">
        <ele>388.51</ele>
        <time>2018-07-15T08:55:55Z</time>
      </trkpt>
      <trkpt lat="47.22691" lon="6.06311">
        <ele>388.03</ele>
        <time>2018-07-15T08:55:56Z</time>
      </trkpt>
      <trkpt lat="47.22689" lon="6.06317">
        <ele>388.03</ele>
        <time>2018-07-15T08:55:57Z</time>
      </trkpt>
      <trkpt lat="47.22689" lon="6.06321">
        <ele>388.51</ele>
        <time>2018-07-15T08:55:58Z</time>
      </trkpt>
      <trkpt lat="47.22689" lon="6.06326">
        <ele>388.99</ele>
        <time>2018-07-15T08:55:59Z</time>
      </trkpt>
      <trkpt lat="47.22688" lon="6.0633">
        <ele>388.99</ele>
        <time>2018-07-15T08:56:00Z</time>
      </trkpt>
      <trkpt lat="47.22684" lon="6.06336">
        <ele>388.99</ele>
        <time>2018-07-15T08:56:03Z</time>
      </trkpt>
      <trkpt lat="47.22682" lon="6.06337">
        <ele>388.51</ele>
        <time>2018-07-15T08:56:05Z</time>
      </trkpt>
      <trkpt lat="47.22678" lon="6.06343">
        <ele>386.59</ele>
        <time>2018-07-15T08:56:09Z</time>
      </trkpt>
      <trkpt lat="47.22677" lon="6.06346">
        <ele>386.11</ele>
        <time>2018-07-15T08:56:10Z</time>
      </trkpt>
      <trkpt lat="47.22672" lon="6.06349">
        <ele>384.66</ele>
        <time>2018-07-15T08:56:13Z</time>
      </trkpt>
      <trkpt lat="47.2267" lon="6.0635">
        <ele>384.18</ele>
        <time>2018-07-15T08:56:14Z</time>
      </trkpt>
      <trkpt lat="47.22665" lon="6.0635">
        <ele>382.74</ele>
        <time>2018-07-15T08:56:17Z</time>
      </trkpt>
      <trkpt lat="47.22663" lon="6.06349">
        <ele>382.74</ele>
        <time>2018-07-15T08:56:18Z</time>
      </trkpt>
      <trkpt lat="47.2266" lon="6.06349">
        <ele>382.26</ele>
        <time>2018-07-15T08:56:19Z</time>
      </trkpt>
      <trkpt lat="47.22657" lon="6.06348">
        <ele>380.82</ele>
        <time>2018-07-15T08:56:20Z</time>
      </trkpt>
      <trkpt lat="47.22655" lon="6.06346">
        <ele>380.34</ele>
        <time>2018-07-15T08:56:21Z</time>
      </trkpt>
      <trkpt lat="47.22642" lon="6.06351">
        <ele>378.42</ele>
        <time>2018-07-15T08:56:26Z</time>
      </trkpt>
      <trkpt lat="47.22641" lon="6.06352">
        <ele>377.94</ele>
        <time>2018-07-15T08:56:27Z</time>
      </trkpt>
      <trkpt lat="47.2264" lon="6.06355">
        <ele>376.97</ele>
        <time>2018-07-15T08:56:29Z</time>
      </trkpt>
      <trkpt lat="47.22641" lon="6.06358">
        <ele>376.01</ele>
        <time>2018-07-15T08:56:30Z</time>
      </trkpt>
      <trkpt lat="47.22642" lon="6.06361">
        <ele>374.57</ele>
        <time>2018-07-15T08:56:31Z</time>
      </trkpt>
      <trkpt lat="47.22643" lon="6.06364">
        <ele>373.61</ele>
        <time>2018-07-15T08:56:32Z</time>
      </trkpt>
      <trkpt lat="47.22644" lon="6.06369">
        <ele>373.13</ele>
        <time>2018-07-15T08:56:33Z</time>
      </trkpt>
      <trkpt lat="47.22648" lon="6.06376">
        <ele>371.21</ele>
        <time>2018-07-15T08:56:35Z</time>
      </trkpt>
      <trkpt lat="47.22651" lon="6.06379">
        <ele>370.24</ele>
        <time>2018-07-15T08:56:36Z</time>
      </trkpt>
      <trkpt lat="47.22653" lon="6.06382">
        <ele>369.28</ele>
        <time>2018-07-15T08:56:37Z</time>
      </trkpt>
      <trkpt lat="47.22654" lon="6.06385">
        <ele>368.32</ele>
        <time>2018-07-15T08:56:38Z</time>
      </trkpt>
      <trkpt lat="47.22653" lon="6.06388">
        <ele>367.36</ele>
        <time>2018-07-15T08:56:40Z</time>
      </trkpt>
      <trkpt lat="47.22652" lon="6.06389">
        <ele>366.88</ele>
        <time>2018-07-15T08:56:41Z</time>
      </trkpt>
      <trkpt lat="47.2265" lon="6.0639">
        <ele>365.92</ele>
        <time>2018-07-15T08:56:42Z</time>
      </trkpt>
      <trkpt lat="47.22645" lon="6.06391">
        <ele>365.44</ele>
        <time>2018-07-15T08:56:43Z</time>
      </trkpt>
      <trkpt lat="47.2264" lon="6.06391">
        <ele>365.44</ele>
        <time>2018-07-15T08:56:44Z</time>
      </trkpt>
      <trkpt lat="47.22634" lon="6.0639">
        <ele>364.48</ele>
        <time>2018-07-15T08:56:45Z</time>
      </trkpt>
      <trkpt lat="47.22611" lon="6.0639">
        <ele>364</ele>
        <time>2018-07-15T08:56:50Z</time>
      </trkpt>
      <trkpt lat="47.22607" lon="6.06389">
        <ele>364</ele>
        <time>2018-07-15T08:56:51Z</time>
      </trkpt>
      <trkpt lat="47.22573" lon="6.06382">
        <ele>365.92</ele>
        <time>2018-07-15T08:57:01Z</time>
      </trkpt>
      <trkpt lat="47.22538" lon="6.06373">
        <ele>366.88</ele>
        <time>2018-07-15T08:57:11Z</time>
      </trkpt>
      <trkpt lat="47.2252" lon="6.06369">
        <ele>369.28</ele>
        <time>2018-07-15T08:57:17Z</time>
      </trkpt>
      <trkpt lat="47.22514" lon="6.06372">
        <ele>369.76</ele>
        <time>2018-07-15T08:57:19Z</time>
      </trkpt>
      <trkpt lat="47.22511" lon="6.06374">
        <ele>369.28</ele>
        <time>2018-07-15T08:57:20Z</time>
      </trkpt>
      <trkpt lat="47.22508" lon="6.06377">
        <ele>369.28</ele>
        <time>2018-07-15T08:57:21Z</time>
      </trkpt>
      <trkpt lat="47.22505" lon="6.0638">
        <ele>369.28</ele>
        <time>2018-07-15T08:57:22Z</time>
      </trkpt>
      <trkpt lat="47.22501" lon="6.06384">
        <ele>368.8</ele>
        <time>2018-07-15T08:57:23Z</time>
      </trkpt>
      <trkpt lat="47.22497" lon="6.06388">
        <ele>368.8</ele>
        <time>2018-07-15T08:57:24Z</time>
      </trkpt>
      <trkpt lat="47.22491" lon="6.06392">
        <ele>368.8</ele>
        <time>2018-07-15T08:57:25Z</time>
      </trkpt>
      <trkpt lat="47.22487" lon="6.06397">
        <ele>368.32</ele>
        <time>2018-07-15T08:57:26Z</time>
      </trkpt>
      <trkpt lat="47.22456" lon="6.06457">
        <ele>364.96</ele>
        <time>2018-07-15T08:57:34Z</time>
      </trkpt>
      <trkpt lat="47.22455" lon="6.06472">
        <ele>364</ele>
        <time>2018-07-15T08:57:36Z</time>
      </trkpt>
      <trkpt lat="47.22455" lon="6.0648">
        <ele>363.52</ele>
        <time>2018-07-15T08:57:37Z</time>
      </trkpt>
      <trkpt lat="47.22456" lon="6.06487">
        <ele>363.52</ele>
        <time>2018-07-15T08:57:38Z</time>
      </trkpt>
      <trkpt lat="47.22457" lon="6.06495">
        <ele>363.04</ele>
        <time>2018-07-15T08:57:39Z</time>
      </trkpt>
      <trkpt lat="47.2246" lon="6.06501">
        <ele>363.04</ele>
        <time>2018-07-15T08:57:40Z</time>
      </trkpt>
      <trkpt lat="47.22464" lon="6.06506">
        <ele>362.55</ele>
        <time>2018-07-15T08:57:41Z</time>
      </trkpt>
      <trkpt lat="47.22508" lon="6.06562">
        <ele>359.67</ele>
        <time>2018-07-15T08:57:51Z</time>
      </trkpt>
      <trkpt lat="47.22533" lon="6.06581">
        <ele>357.75</ele>
        <time>2018-07-15T08:57:55Z</time>
      </trkpt>
      <trkpt lat="47.22539" lon="6.06585">
        <ele>357.75</ele>
        <time>2018-07-15T08:57:56Z</time>
      </trkpt>
      <trkpt lat="47.22546" lon="6.06587">
        <ele>357.27</ele>
        <time>2018-07-15T08:57:57Z</time>
      </trkpt>
      <trkpt lat="47.22552" lon="6.06587">
        <ele>356.31</ele>
        <time>2018-07-15T08:57:58Z</time>
      </trkpt>
      <trkpt lat="47.22559" lon="6.06587">
        <ele>356.31</ele>
        <time>2018-07-15T08:57:59Z</time>
      </trkpt>
      <trkpt lat="47.22566" lon="6.06586">
        <ele>355.83</ele>
        <time>2018-07-15T08:58:00Z</time>
      </trkpt>
      <trkpt lat="47.22574" lon="6.06584">
        <ele>355.34</ele>
        <time>2018-07-15T08:58:01Z</time>
      </trkpt>
      <trkpt lat="47.22581" lon="6.06582">
        <ele>355.34</ele>
        <time>2018-07-15T08:58:02Z</time>
      </trkpt>
      <trkpt lat="47.22588" lon="6.06579">
        <ele>354.86</ele>
        <time>2018-07-15T08:58:03Z</time>
      </trkpt>
      <trkpt lat="47.22606" lon="6.06569">
        <ele>354.86</ele>
        <time>2018-07-15T08:58:06Z</time>
      </trkpt>
      <trkpt lat="47.22612" lon="6.06563">
        <ele>354.86</ele>
        <time>2018-07-15T08:58:07Z</time>
      </trkpt>
      <trkpt lat="47.22617" lon="6.06557">
        <ele>353.9</ele>
        <time>2018-07-15T08:58:08Z</time>
      </trkpt>
      <trkpt lat="47.22628" lon="6.06544">
        <ele>353.42</ele>
        <time>2018-07-15T08:58:10Z</time>
      </trkpt>
      <trkpt lat="47.22632" lon="6.06536">
        <ele>353.42</ele>
        <time>2018-07-15T08:58:11Z</time>
      </trkpt>
      <trkpt lat="47.22644" lon="6.065">
        <ele>351.5</ele>
        <time>2018-07-15T08:58:15Z</time>
      </trkpt>
      <trkpt lat="47.22646" lon="6.0649">
        <ele>351.5</ele>
        <time>2018-07-15T08:58:16Z</time>
      </trkpt>
      <trkpt lat="47.22661" lon="6.06443">
        <ele>350.54</ele>
        <time>2018-07-15T08:58:22Z</time>
      </trkpt>
      <trkpt lat="47.22664" lon="6.06444">
        <ele>350.06</ele>
        <time>2018-07-15T08:58:23Z</time>
      </trkpt>
      <trkpt lat="47.22667" lon="6.06446">
        <ele>350.54</ele>
        <time>2018-07-15T08:58:24Z</time>
      </trkpt>
      <trkpt lat="47.22671" lon="6.06448">
        <ele>351.02</ele>
        <time>2018-07-15T08:58:25Z</time>
      </trkpt>
      <trkpt lat="47.22673" lon="6.06449">
        <ele>351.5</ele>
        <time>2018-07-15T08:58:26Z</time>
      </trkpt>
      <trkpt lat="47.22679" lon="6.06449">
        <ele>352.46</ele>
        <time>2018-07-15T08:58:29Z</time>
      </trkpt>
      <trkpt lat="47.22682" lon="6.06451">
        <ele>352.94</ele>
        <time>2018-07-15T08:58:30Z</time>
      </trkpt>
      <trkpt lat="47.22684" lon="6.06454">
        <ele>352.94</ele>
        <time>2018-07-15T08:58:31Z</time>
      </trkpt>
      <trkpt lat="47.22699" lon="6.06475">
        <ele>354.86</ele>
        <time>2018-07-15T08:58:38Z</time>
      </trkpt>
      <trkpt lat="47.227" lon="6.06479">
        <ele>354.86</ele>
        <time>2018-07-15T08:58:39Z</time>
      </trkpt>
      <trkpt lat="47.22701" lon="6.06481">
        <ele>355.34</ele>
        <time>2018-07-15T08:58:40Z</time>
      </trkpt>
      <trkpt lat="47.22704" lon="6.06488">
        <ele>355.83</ele>
        <time>2018-07-15T08:58:42Z</time>
      </trkpt>
      <trkpt lat="47.22706" lon="6.0649">
        <ele>355.83</ele>
        <time>2018-07-15T08:58:43Z</time>
      </trkpt>
      <trkpt lat="47.22721" lon="6.06543">
        <ele>359.19</ele>
        <time>2018-07-15T08:58:59Z</time>
      </trkpt>
      <trkpt lat="47.22724" lon="6.06591">
        <ele>360.63</ele>
        <time>2018-07-15T08:59:12Z</time>
      </trkpt>
      <trkpt lat="47.22751" lon="6.06617">
        <ele>363.04</ele>
        <time>2018-07-15T08:59:25Z</time>
      </trkpt>
      <trkpt lat="47.22777" lon="6.06625">
        <ele>364.96</ele>
        <time>2018-07-15T08:59:36Z</time>
      </trkpt>
      <trkpt lat="47.22804" lon="6.06618">
        <ele>362.55</ele>
        <time>2018-07-15T08:59:43Z</time>
      </trkpt>
      <trkpt lat="47.22809" lon="6.06615">
        <ele>362.07</ele>
        <time>2018-07-15T08:59:44Z</time>
      </trkpt>
      <trkpt lat="47.22829" lon="6.066">
        <ele>358.71</ele>
        <time>2018-07-15T08:59:47Z</time>
      </trkpt>
      <trkpt lat="47.22855" lon="6.06575">
        <ele>355.83</ele>
        <time>2018-07-15T08:59:51Z</time>
      </trkpt>
      <trkpt lat="47.22866" lon="6.06567">
        <ele>355.83</ele>
        <time>2018-07-15T08:59:53Z</time>
      </trkpt>
      <trkpt lat="47.2287" lon="6.06565">
        <ele>355.83</ele>
        <time>2018-07-15T08:59:54Z</time>
      </trkpt>
      <trkpt lat="47.22879" lon="6.06563">
        <ele>355.34</ele>
        <time>2018-07-15T08:59:56Z</time>
      </trkpt>
      <trkpt lat="47.22884" lon="6.0656">
        <ele>354.38</ele>
        <time>2018-07-15T08:59:57Z</time>
      </trkpt>
      <trkpt lat="47.22889" lon="6.06558">
        <ele>352.94</ele>
        <time>2018-07-15T08:59:58Z</time>
      </trkpt>
      <trkpt lat="47.22894" lon="6.06558">
        <ele>352.46</ele>
        <time>2018-07-15T08:59:59Z</time>
      </trkpt>
      <trkpt lat="47.229" lon="6.06559">
        <ele>351.5</ele>
        <time>2018-07-15T09:00:00Z</time>
      </trkpt>
      <trkpt lat="47.22906" lon="6.06561">
        <ele>351.02</ele>
        <time>2018-07-15T09:00:01Z</time>
      </trkpt>
      <trkpt lat="47.22919" lon="6.06564">
        <ele>349.1</ele>
        <time>2018-07-15T09:00:03Z</time>
      </trkpt>
      <trkpt lat="47.22926" lon="6.06562">
        <ele>348.13</ele>
        <time>2018-07-15T09:00:04Z</time>
      </trkpt>
      <trkpt lat="47.22932" lon="6.0656">
        <ele>347.65</ele>
        <time>2018-07-15T09:00:05Z</time>
      </trkpt>
      <trkpt lat="47.22937" lon="6.06557">
        <ele>347.17</ele>
        <time>2018-07-15T09:00:06Z</time>
      </trkpt>
      <trkpt lat="47.22943" lon="6.06555">
        <ele>346.69</ele>
        <time>2018-07-15T09:00:07Z</time>
      </trkpt>
      <trkpt lat="47.22949" lon="6.06554">
        <ele>346.21</ele>
        <time>2018-07-15T09:00:08Z</time>
      </trkpt>
      <trkpt lat="47.22969" lon="6.06552">
        <ele>343.81</ele>
        <time>2018-07-15T09:00:11Z</time>
      </trkpt>
      <trkpt lat="47.23012" lon="6.06544">
        <ele>340.44</ele>
        <time>2018-07-15T09:00:16Z</time>
      </trkpt>
      <trkpt lat="47.23048" lon="6.06543">
        <ele>338.52</ele>
        <time>2018-07-15T09:00:20Z</time>
      </trkpt>
      <trkpt lat="47.23057" lon="6.06545">
        <ele>337.56</ele>
        <time>2018-07-15T09:00:21Z</time>
      </trkpt>
      <trkpt lat="47.2309" lon="6.06556">
        <ele>335.64</ele>
        <time>2018-07-15T09:00:25Z</time>
      </trkpt>
      <trkpt lat="47.23104" lon="6.06561">
        <ele>333.23</ele>
        <time>2018-07-15T09:00:27Z</time>
      </trkpt>
      <trkpt lat="47.23109" lon="6.06564">
        <ele>332.27</ele>
        <time>2018-07-15T09:00:28Z</time>
      </trkpt>
      <trkpt lat="47.23113" lon="6.06568">
        <ele>331.31</ele>
        <time>2018-07-15T09:00:29Z</time>
      </trkpt>
      <trkpt lat="47.23116" lon="6.06572">
        <ele>330.83</ele>
        <time>2018-07-15T09:00:30Z</time>
      </trkpt>
      <trkpt lat="47.23118" lon="6.06577">
        <ele>330.35</ele>
        <time>2018-07-15T09:00:31Z</time>
      </trkpt>
      <trkpt lat="47.23121" lon="6.06591">
        <ele>327.47</ele>
        <time>2018-07-15T09:00:34Z</time>
      </trkpt>
      <trkpt lat="47.23122" lon="6.06592">
        <ele>326.99</ele>
        <time>2018-07-15T09:00:35Z</time>
      </trkpt>
      <trkpt lat="47.23131" lon="6.06589">
        <ele>325.06</ele>
        <time>2018-07-15T09:00:38Z</time>
      </trkpt>
      <trkpt lat="47.23134" lon="6.06584">
        <ele>324.1</ele>
        <time>2018-07-15T09:00:39Z</time>
      </trkpt>
      <trkpt lat="47.23137" lon="6.06579">
        <ele>322.66</ele>
        <time>2018-07-15T09:00:40Z</time>
      </trkpt>
      <trkpt lat="47.23139" lon="6.06572">
        <ele>321.7</ele>
        <time>2018-07-15T09:00:41Z</time>
      </trkpt>
      <trkpt lat="47.23141" lon="6.06565">
        <ele>320.26</ele>
        <time>2018-07-15T09:00:42Z</time>
      </trkpt>
      <trkpt lat="47.23143" lon="6.06558">
        <ele>318.81</ele>
        <time>2018-07-15T09:00:43Z</time>
      </trkpt>
      <trkpt lat="47.23144" lon="6.0655">
        <ele>317.85</ele>
        <time>2018-07-15T09:00:44Z</time>
      </trkpt>
      <trkpt lat="47.23145" lon="6.06542">
        <ele>316.41</ele>
        <time>2018-07-15T09:00:45Z</time>
      </trkpt>
      <trkpt lat="47.23146" lon="6.06534">
        <ele>314.97</ele>
        <time>2018-07-15T09:00:46Z</time>
      </trkpt>
      <trkpt lat="47.23147" lon="6.06525">
        <ele>314.01</ele>
        <time>2018-07-15T09:00:47Z</time>
      </trkpt>
      <trkpt lat="47.23146" lon="6.06516">
        <ele>313.05</ele>
        <time>2018-07-15T09:00:48Z</time>
      </trkpt>
      <trkpt lat="47.23146" lon="6.06507">
        <ele>311.6</ele>
        <time>2018-07-15T09:00:49Z</time>
      </trkpt>
      <trkpt lat="47.23146" lon="6.06491">
        <ele>310.16</ele>
        <time>2018-07-15T09:00:51Z</time>
      </trkpt>
      <trkpt lat="47.23146" lon="6.0648">
        <ele>307.28</ele>
        <time>2018-07-15T09:00:53Z</time>
      </trkpt>
      <trkpt lat="47.23147" lon="6.06475">
        <ele>305.84</ele>
        <time>2018-07-15T09:00:54Z</time>
      </trkpt>
      <trkpt lat="47.23151" lon="6.06448">
        <ele>302.95</ele>
        <time>2018-07-15T09:00:58Z</time>
      </trkpt>
      <trkpt lat="47.23152" lon="6.06442">
        <ele>301.99</ele>
        <time>2018-07-15T09:00:59Z</time>
      </trkpt>
      <trkpt lat="47.23155" lon="6.06435">
        <ele>301.03</ele>
        <time>2018-07-15T09:01:00Z</time>
      </trkpt>
      <trkpt lat="47.23157" lon="6.06429">
        <ele>300.55</ele>
        <time>2018-07-15T09:01:01Z</time>
      </trkpt>
      <trkpt lat="47.23161" lon="6.06423">
        <ele>299.59</ele>
        <time>2018-07-15T09:01:02Z</time>
      </trkpt>
      <trkpt lat="47.23165" lon="6.06417">
        <ele>298.15</ele>
        <time>2018-07-15T09:01:03Z</time>
      </trkpt>
      <trkpt lat="47.2317" lon="6.0641">
        <ele>297.18</ele>
        <time>2018-07-15T09:01:04Z</time>
      </trkpt>
      <trkpt lat="47.23178" lon="6.064">
        <ele>296.22</ele>
        <time>2018-07-15T09:01:06Z</time>
      </trkpt>
      <trkpt lat="47.2319" lon="6.0638">
        <ele>294.3</ele>
        <time>2018-07-15T09:01:09Z</time>
      </trkpt>
      <trkpt lat="47.23193" lon="6.0637">
        <ele>293.34</ele>
        <time>2018-07-15T09:01:10Z</time>
      </trkpt>
      <trkpt lat="47.23197" lon="6.06361">
        <ele>292.86</ele>
        <time>2018-07-15T09:01:11Z</time>
      </trkpt>
      <trkpt lat="47.232" lon="6.0635">
        <ele>292.38</ele>
        <time>2018-07-15T09:01:12Z</time>
      </trkpt>
      <trkpt lat="47.23203" lon="6.06339">
        <ele>291.9</ele>
        <time>2018-07-15T09:01:13Z</time>
      </trkpt>
      <trkpt lat="47.23204" lon="6.06328">
        <ele>290.94</ele>
        <time>2018-07-15T09:01:14Z</time>
      </trkpt>
      <trkpt lat="47.23205" lon="6.06318">
        <ele>290.46</ele>
        <time>2018-07-15T09:01:15Z</time>
      </trkpt>
      <trkpt lat="47.23206" lon="6.0631">
        <ele>289.97</ele>
        <time>2018-07-15T09:01:16Z</time>
      </trkpt>
      <trkpt lat="47.23208" lon="6.06295">
        <ele>289.49</ele>
        <time>2018-07-15T09:01:19Z</time>
      </trkpt>
      <trkpt lat="47.23209" lon="6.0629">
        <ele>288.53</ele>
        <time>2018-07-15T09:01:28Z</time>
      </trkpt>
      <trkpt lat="47.2321" lon="6.06288">
        <ele>288.53</ele>
        <time>2018-07-15T09:01:29Z</time>
      </trkpt>
      <trkpt lat="47.2321" lon="6.06287">
        <ele>288.53</ele>
        <time>2018-07-15T09:01:30Z</time>
      </trkpt>
      <trkpt lat="47.23211" lon="6.06285">
        <ele>288.05</ele>
        <time>2018-07-15T09:01:31Z</time>
      </trkpt>
      <trkpt lat="47.23211" lon="6.06283">
        <ele>287.57</ele>
        <time>2018-07-15T09:01:32Z</time>
      </trkpt>
      <trkpt lat="47.23211" lon="6.0628">
        <ele>287.57</ele>
        <time>2018-07-15T09:01:34Z</time>
      </trkpt>
      <trkpt lat="47.23219" lon="6.06252">
        <ele>284.21</ele>
        <time>2018-07-15T09:01:41Z</time>
      </trkpt>
      <trkpt lat="47.23223" lon="6.06233">
        <ele>280.36</ele>
        <time>2018-07-15T09:01:43Z</time>
      </trkpt>
      <trkpt lat="47.23225" lon="6.06224">
        <ele>278.44</ele>
        <time>2018-07-15T09:01:44Z</time>
      </trkpt>
      <trkpt lat="47.23229" lon="6.06215">
        <ele>277.48</ele>
        <time>2018-07-15T09:01:45Z</time>
      </trkpt>
      <trkpt lat="47.23234" lon="6.06207">
        <ele>276.52</ele>
        <time>2018-07-15T09:01:46Z</time>
      </trkpt>
      <trkpt lat="47.23243" lon="6.06192">
        <ele>275.07</ele>
        <time>2018-07-15T09:01:48Z</time>
      </trkpt>
      <trkpt lat="47.23245" lon="6.06184">
        <ele>274.11</ele>
        <time>2018-07-15T09:01:49Z</time>
      </trkpt>
      <trkpt lat="47.23246" lon="6.06175">
        <ele>273.15</ele>
        <time>2018-07-15T09:01:50Z</time>
      </trkpt>
      <trkpt lat="47.23245" lon="6.06154">
        <ele>270.27</ele>
        <time>2018-07-15T09:01:52Z</time>
      </trkpt>
      <trkpt lat="47.23243" lon="6.06142">
        <ele>269.31</ele>
        <time>2018-07-15T09:01:53Z</time>
      </trkpt>
      <trkpt lat="47.23241" lon="6.06131">
        <ele>268.35</ele>
        <time>2018-07-15T09:01:54Z</time>
      </trkpt>
      <trkpt lat="47.23239" lon="6.06122">
        <ele>268.35</ele>
        <time>2018-07-15T09:01:55Z</time>
      </trkpt>
      <trkpt lat="47.23237" lon="6.06113">
        <ele>267.86</ele>
        <time>2018-07-15T09:01:56Z</time>
      </trkpt>
      <trkpt lat="47.23234" lon="6.06094">
        <ele>266.9</ele>
        <time>2018-07-15T09:01:58Z</time>
      </trkpt>
      <trkpt lat="47.23233" lon="6.06085">
        <ele>265.94</ele>
        <time>2018-07-15T09:01:59Z</time>
      </trkpt>
      <trkpt lat="47.23231" lon="6.0607">
        <ele>264.98</ele>
        <time>2018-07-15T09:02:01Z</time>
      </trkpt>
      <trkpt lat="47.23229" lon="6.06062">
        <ele>264.98</ele>
        <time>2018-07-15T09:02:02Z</time>
      </trkpt>
      <trkpt lat="47.23226" lon="6.06056">
        <ele>264.5</ele>
        <time>2018-07-15T09:02:03Z</time>
      </trkpt>
      <trkpt lat="47.23202" lon="6.05999">
        <ele>263.54</ele>
        <time>2018-07-15T09:02:11Z</time>
      </trkpt>
      <trkpt lat="47.23198" lon="6.05994">
        <ele>263.54</ele>
        <time>2018-07-15T09:02:12Z</time>
      </trkpt>
      <trkpt lat="47.23183" lon="6.0597">
        <ele>263.54</ele>
        <time>2018-07-15T09:02:16Z</time>
      </trkpt>
      <trkpt lat="47.23178" lon="6.05965">
        <ele>263.06</ele>
        <time>2018-07-15T09:02:17Z</time>
      </trkpt>
      <trkpt lat="47.23158" lon="6.05935">
        <ele>262.58</ele>
        <time>2018-07-15T09:02:23Z</time>
      </trkpt>
      <trkpt lat="47.23122" lon="6.05886">
        <ele>263.06</ele>
        <time>2018-07-15T09:02:35Z</time>
      </trkpt>
      <trkpt lat="47.23123" lon="6.05882">
        <ele>263.06</ele>
        <time>2018-07-15T09:02:36Z</time>
      </trkpt>
      <trkpt lat="47.23127" lon="6.05869">
        <ele>263.06</ele>
        <time>2018-07-15T09:02:39Z</time>
      </trkpt>
      <trkpt lat="47.23126" lon="6.05864">
        <ele>263.06</ele>
        <time>2018-07-15T09:02:40Z</time>
      </trkpt>
      <trkpt lat="47.23124" lon="6.05861">
        <ele>262.58</ele>
        <time>2018-07-15T09:02:41Z</time>
      </trkpt>
      <trkpt lat="47.2312" lon="6.05859">
        <ele>262.58</ele>
        <time>2018-07-15T09:02:42Z</time>
      </trkpt>
      <trkpt lat="47.23117" lon="6.05857">
        <ele>262.58</ele>
        <time>2018-07-15T09:02:43Z</time>
      </trkpt>
      <trkpt lat="47.23114" lon="6.05855">
        <ele>262.58</ele>
        <time>2018-07-15T09:02:44Z</time>
      </trkpt>
      <trkpt lat="47.23078" lon="6.0582">
        <ele>263.54</ele>
        <time>2018-07-15T09:02:56Z</time>
      </trkpt>
      <trkpt lat="47.23076" lon="6.05817">
        <ele>263.54</ele>
        <time>2018-07-15T09:02:57Z</time>
      </trkpt>
      <trkpt lat="47.23074" lon="6.05814">
        <ele>263.54</ele>
        <time>2018-07-15T09:02:58Z</time>
      </trkpt>
      <trkpt lat="47.23071" lon="6.05812">
        <ele>264.02</ele>
        <time>2018-07-15T09:02:59Z</time>
      </trkpt>
      <trkpt lat="47.23069" lon="6.05811">
        <ele>264.02</ele>
        <time>2018-07-15T09:03:00Z</time>
      </trkpt>
      <trkpt lat="47.23067" lon="6.05809">
        <ele>264.5</ele>
        <time>2018-07-15T09:03:01Z</time>
      </trkpt>
      <trkpt lat="47.23065" lon="6.05808">
        <ele>264.5</ele>
        <time>2018-07-15T09:03:02Z</time>
      </trkpt>
      <trkpt lat="47.23064" lon="6.05805">
        <ele>264.5</ele>
        <time>2018-07-15T09:03:03Z</time>
      </trkpt>
      <trkpt lat="47.23064" lon="6.05803">
        <ele>264.98</ele>
        <time>2018-07-15T09:03:04Z</time>
      </trkpt>
      <trkpt lat="47.23064" lon="6.05799">
        <ele>264.98</ele>
        <time>2018-07-15T09:03:05Z</time>
      </trkpt>
      <trkpt lat="47.23066" lon="6.05796">
        <ele>264.98</ele>
        <time>2018-07-15T09:03:06Z</time>
      </trkpt>
      <trkpt lat="47.23069" lon="6.0579">
        <ele>264.98</ele>
        <time>2018-07-15T09:03:08Z</time>
      </trkpt>
      <trkpt lat="47.23071" lon="6.05791">
        <ele>264.98</ele>
        <time>2018-07-15T09:03:09Z</time>
      </trkpt>
      <trkpt lat="47.23074" lon="6.05793">
        <ele>264.98</ele>
        <time>2018-07-15T09:03:10Z</time>
      </trkpt>
      <trkpt lat="47.23076" lon="6.05795">
        <ele>265.46</ele>
        <time>2018-07-15T09:03:11Z</time>
      </trkpt>
      <trkpt lat="47.23078" lon="6.05797">
        <ele>265.46</ele>
        <time>2018-07-15T09:03:12Z</time>
      </trkpt>
      <trkpt lat="47.23108" lon="6.05822">
        <ele>267.38</ele>
        <time>2018-07-15T09:03:24Z</time>
      </trkpt>
      <trkpt lat="47.2311" lon="6.05821">
        <ele>267.86</ele>
        <time>2018-07-15T09:03:25Z</time>
      </trkpt>
      <trkpt lat="47.23112" lon="6.05819">
        <ele>267.38</ele>
        <time>2018-07-15T09:03:26Z</time>
      </trkpt>
      <trkpt lat="47.23114" lon="6.05815">
        <ele>267.86</ele>
        <time>2018-07-15T09:03:27Z</time>
      </trkpt>
      <trkpt lat="47.23115" lon="6.05813">
        <ele>267.38</ele>
        <time>2018-07-15T09:03:28Z</time>
      </trkpt>
      <trkpt lat="47.23139" lon="6.05758">
        <ele>267.38</ele>
        <time>2018-07-15T09:03:40Z</time>
      </trkpt>
      <trkpt lat="47.23141" lon="6.05753">
        <ele>267.38</ele>
        <time>2018-07-15T09:03:41Z</time>
      </trkpt>
      <trkpt lat="47.23156" lon="6.05718">
        <ele>267.38</ele>
        <time>2018-07-15T09:03:49Z</time>
      </trkpt>
      <trkpt lat="47.23154" lon="6.05715">
        <ele>267.38</ele>
        <time>2018-07-15T09:03:50Z</time>
      </trkpt>
      <trkpt lat="47.23151" lon="6.05714">
        <ele>266.9</ele>
        <time>2018-07-15T09:03:51Z</time>
      </trkpt>
      <trkpt lat="47.23148" lon="6.05712">
        <ele>266.9</ele>
        <time>2018-07-15T09:03:52Z</time>
      </trkpt>
      <trkpt lat="47.23145" lon="6.05709">
        <ele>266.42</ele>
        <time>2018-07-15T09:03:53Z</time>
      </trkpt>
      <trkpt lat="47.23127" lon="6.05695">
        <ele>264.98</ele>
        <time>2018-07-15T09:03:57Z</time>
      </trkpt>
      <trkpt lat="47.23102" lon="6.05677">
        <ele>263.06</ele>
        <time>2018-07-15T09:04:02Z</time>
      </trkpt>
      <trkpt lat="47.23098" lon="6.05672">
        <ele>263.06</ele>
        <time>2018-07-15T09:04:03Z</time>
      </trkpt>
      <trkpt lat="47.23095" lon="6.05668">
        <ele>263.06</ele>
        <time>2018-07-15T09:04:04Z</time>
      </trkpt>
      <trkpt lat="47.2309" lon="6.05616">
        <ele>263.06</ele>
        <time>2018-07-15T09:04:14Z</time>
      </trkpt>
      <trkpt lat="47.23082" lon="6.05598">
        <ele>263.06</ele>
        <time>2018-07-15T09:04:18Z</time>
      </trkpt>
      <trkpt lat="47.23078" lon="6.05596">
        <ele>262.58</ele>
        <time>2018-07-15T09:04:19Z</time>
      </trkpt>
      <trkpt lat="47.23074" lon="6.05596">
        <ele>262.58</ele>
        <time>2018-07-15T09:04:20Z</time>
      </trkpt>
      <trkpt lat="47.2307" lon="6.05596">
        <ele>263.06</ele>
        <time>2018-07-15T09:04:21Z</time>
      </trkpt>
      <trkpt lat="47.23066" lon="6.05596">
        <ele>263.54</ele>
        <time>2018-07-15T09:04:22Z</time>
      </trkpt>
      <trkpt lat="47.23048" lon="6.05593">
        <ele>263.06</ele>
        <time>2018-07-15T09:04:27Z</time>
      </trkpt>
      <trkpt lat="47.23044" lon="6.05589">
        <ele>263.06</ele>
        <time>2018-07-15T09:04:28Z</time>
      </trkpt>
      <trkpt lat="47.23041" lon="6.05585">
        <ele>263.06</ele>
        <time>2018-07-15T09:04:29Z</time>
      </trkpt>
      <trkpt lat="47.23038" lon="6.05581">
        <ele>263.54</ele>
        <time>2018-07-15T09:04:30Z</time>
      </trkpt>
      <trkpt lat="47.23035" lon="6.05577">
        <ele>263.54</ele>
        <time>2018-07-15T09:04:31Z</time>
      </trkpt>
      <trkpt lat="47.2301" lon="6.05535">
        <ele>263.54</ele>
        <time>2018-07-15T09:04:41Z</time>
      </trkpt>
      <trkpt lat="47.23004" lon="6.05524">
        <ele>263.06</ele>
        <time>2018-07-15T09:04:43Z</time>
      </trkpt>
      <trkpt lat="47.22984" lon="6.05498">
        <ele>263.06</ele>
        <time>2018-07-15T09:04:48Z</time>
      </trkpt>
      <trkpt lat="47.22968" lon="6.05477">
        <ele>262.58</ele>
        <time>2018-07-15T09:04:52Z</time>
      </trkpt>
      <trkpt lat="47.22964" lon="6.05471">
        <ele>262.58</ele>
        <time>2018-07-15T09:04:53Z</time>
      </trkpt>
      <trkpt lat="47.22961" lon="6.05466">
        <ele>262.58</ele>
        <time>2018-07-15T09:04:54Z</time>
      </trkpt>
      <trkpt lat="47.22959" lon="6.0546">
        <ele>262.58</ele>
        <time>2018-07-15T09:04:55Z</time>
      </trkpt>
      <trkpt lat="47.22956" lon="6.05456">
        <ele>262.58</ele>
        <time>2018-07-15T09:04:56Z</time>
      </trkpt>
      <trkpt lat="47.22927" lon="6.05411">
        <ele>262.58</ele>
        <time>2018-07-15T09:05:06Z</time>
      </trkpt>
      <trkpt lat="47.22914" lon="6.05403">
        <ele>262.1</ele>
        <time>2018-07-15T09:05:09Z</time>
      </trkpt>
      <trkpt lat="47.22907" lon="6.05397">
        <ele>261.62</ele>
        <time>2018-07-15T09:05:10Z</time>
      </trkpt>
      <trkpt lat="47.22901" lon="6.05392">
        <ele>261.62</ele>
        <time>2018-07-15T09:05:11Z</time>
      </trkpt>
      <trkpt lat="47.22896" lon="6.05386">
        <ele>261.62</ele>
        <time>2018-07-15T09:05:12Z</time>
      </trkpt>
      <trkpt lat="47.22892" lon="6.05381">
        <ele>261.62</ele>
        <time>2018-07-15T09:05:13Z</time>
      </trkpt>
      <trkpt lat="47.2288" lon="6.05364">
        <ele>262.1</ele>
        <time>2018-07-15T09:05:17Z</time>
      </trkpt>
      <trkpt lat="47.22875" lon="6.05362">
        <ele>262.1</ele>
        <time>2018-07-15T09:05:19Z</time>
      </trkpt>
      <trkpt lat="47.22871" lon="6.05362">
        <ele>260.65</ele>
        <time>2018-07-15T09:05:20Z</time>
      </trkpt>
      <trkpt lat="47.22868" lon="6.05361">
        <ele>259.69</ele>
        <time>2018-07-15T09:05:21Z</time>
      </trkpt>
      <trkpt lat="47.22865" lon="6.05357">
        <ele>259.21</ele>
        <time>2018-07-15T09:05:22Z</time>
      </trkpt>
      <trkpt lat="47.22862" lon="6.05352">
        <ele>259.21</ele>
        <time>2018-07-15T09:05:23Z</time>
      </trkpt>
      <trkpt lat="47.22846" lon="6.05321">
        <ele>258.73</ele>
        <time>2018-07-15T09:05:28Z</time>
      </trkpt>
      <trkpt lat="47.22835" lon="6.05301">
        <ele>258.25</ele>
        <time>2018-07-15T09:05:31Z</time>
      </trkpt>
      <trkpt lat="47.22826" lon="6.05284">
        <ele>258.25</ele>
        <time>2018-07-15T09:05:34Z</time>
      </trkpt>
      <trkpt lat="47.22823" lon="6.05278">
        <ele>257.77</ele>
        <time>2018-07-15T09:05:35Z</time>
      </trkpt>
      <trkpt lat="47.22806" lon="6.05239">
        <ele>258.73</ele>
        <time>2018-07-15T09:05:42Z</time>
      </trkpt>
      <trkpt lat="47.22803" lon="6.0523">
        <ele>258.73</ele>
        <time>2018-07-15T09:05:44Z</time>
      </trkpt>
      <trkpt lat="47.22794" lon="6.05197">
        <ele>257.77</ele>
        <time>2018-07-15T09:05:49Z</time>
      </trkpt>
      <trkpt lat="47.22781" lon="6.0514">
        <ele>258.25</ele>
        <time>2018-07-15T09:05:57Z</time>
      </trkpt>
      <trkpt lat="47.22776" lon="6.0512">
        <ele>258.25</ele>
        <time>2018-07-15T09:06:00Z</time>
      </trkpt>
      <trkpt lat="47.22766" lon="6.05096">
        <ele>258.25</ele>
        <time>2018-07-15T09:06:04Z</time>
      </trkpt>
      <trkpt lat="47.22759" lon="6.05076">
        <ele>258.25</ele>
        <time>2018-07-15T09:06:07Z</time>
      </trkpt>
      <trkpt lat="47.22753" lon="6.05041">
        <ele>258.73</ele>
        <time>2018-07-15T09:06:12Z</time>
      </trkpt>
      <trkpt lat="47.22736" lon="6.04981">
        <ele>258.73</ele>
        <time>2018-07-15T09:06:21Z</time>
      </trkpt>
      <trkpt lat="47.22732" lon="6.04957">
        <ele>258.25</ele>
        <time>2018-07-15T09:06:24Z</time>
      </trkpt>
      <trkpt lat="47.22727" lon="6.04934">
        <ele>258.73</ele>
        <time>2018-07-15T09:06:27Z</time>
      </trkpt>
      <trkpt lat="47.2272" lon="6.04905">
        <ele>258.73</ele>
        <time>2018-07-15T09:06:31Z</time>
      </trkpt>
      <trkpt lat="47.22711" lon="6.04884">
        <ele>258.73</ele>
        <time>2018-07-15T09:06:34Z</time>
      </trkpt>
      <trkpt lat="47.22704" lon="6.04862">
        <ele>258.25</ele>
        <time>2018-07-15T09:06:37Z</time>
      </trkpt>
      <trkpt lat="47.22692" lon="6.04808">
        <ele>258.25</ele>
        <time>2018-07-15T09:06:44Z</time>
      </trkpt>
      <trkpt lat="47.22692" lon="6.04792">
        <ele>258.73</ele>
        <time>2018-07-15T09:06:46Z</time>
      </trkpt>
      <trkpt lat="47.22692" lon="6.04739">
        <ele>259.21</ele>
        <time>2018-07-15T09:06:54Z</time>
      </trkpt>
      <trkpt lat="47.22687" lon="6.04719">
        <ele>259.21</ele>
        <time>2018-07-15T09:06:57Z</time>
      </trkpt>
      <trkpt lat="47.22684" lon="6.0468">
        <ele>260.65</ele>
        <time>2018-07-15T09:07:03Z</time>
      </trkpt>
      <trkpt lat="47.22687" lon="6.04642">
        <ele>262.1</ele>
        <time>2018-07-15T09:07:10Z</time>
      </trkpt>
      <trkpt lat="47.22689" lon="6.04602">
        <ele>262.1</ele>
        <time>2018-07-15T09:07:16Z</time>
      </trkpt>
      <trkpt lat="47.2269" lon="6.04586">
        <ele>260.17</ele>
        <time>2018-07-15T09:07:18Z</time>
      </trkpt>
      <trkpt lat="47.22677" lon="6.04555">
        <ele>258.25</ele>
        <time>2018-07-15T09:07:24Z</time>
      </trkpt>
      <trkpt lat="47.22673" lon="6.04496">
        <ele>258.73</ele>
        <time>2018-07-15T09:07:32Z</time>
      </trkpt>
      <trkpt lat="47.22674" lon="6.04417">
        <ele>257.29</ele>
        <time>2018-07-15T09:07:43Z</time>
      </trkpt>
      <trkpt lat="47.22682" lon="6.04356">
        <ele>257.77</ele>
        <time>2018-07-15T09:07:52Z</time>
      </trkpt>
      <trkpt lat="47.22687" lon="6.04314">
        <ele>258.73</ele>
        <time>2018-07-15T09:07:59Z</time>
      </trkpt>
      <trkpt lat="47.22694" lon="6.04292">
        <ele>258.73</ele>
        <time>2018-07-15T09:08:03Z</time>
      </trkpt>
      <trkpt lat="47.22707" lon="6.04246">
        <ele>258.73</ele>
        <time>2018-07-15T09:08:09Z</time>
      </trkpt>
      <trkpt lat="47.22708" lon="6.04238">
        <ele>258.73</ele>
        <time>2018-07-15T09:08:10Z</time>
      </trkpt>
      <trkpt lat="47.22713" lon="6.04219">
        <ele>257.77</ele>
        <time>2018-07-15T09:08:13Z</time>
      </trkpt>
      <trkpt lat="47.22721" lon="6.04188">
        <ele>257.77</ele>
        <time>2018-07-15T09:08:17Z</time>
      </trkpt>
      <trkpt lat="47.22737" lon="6.0414">
        <ele>257.77</ele>
        <time>2018-07-15T09:08:24Z</time>
      </trkpt>
      <trkpt lat="47.2274" lon="6.04134">
        <ele>257.77</ele>
        <time>2018-07-15T09:08:25Z</time>
      </trkpt>
      <trkpt lat="47.22746" lon="6.04124">
        <ele>257.77</ele>
        <time>2018-07-15T09:08:27Z</time>
      </trkpt>
      <trkpt lat="47.22748" lon="6.04119">
        <ele>258.25</ele>
        <time>2018-07-15T09:08:28Z</time>
      </trkpt>
      <trkpt lat="47.22755" lon="6.04106">
        <ele>258.25</ele>
        <time>2018-07-15T09:08:30Z</time>
      </trkpt>
      <trkpt lat="47.22763" lon="6.04088">
        <ele>258.25</ele>
        <time>2018-07-15T09:08:33Z</time>
      </trkpt>
      <trkpt lat="47.22767" lon="6.04084">
        <ele>258.73</ele>
        <time>2018-07-15T09:08:34Z</time>
      </trkpt>
      <trkpt lat="47.22778" lon="6.04072">
        <ele>259.21</ele>
        <time>2018-07-15T09:08:37Z</time>
      </trkpt>
      <trkpt lat="47.22808" lon="6.04043">
        <ele>259.21</ele>
        <time>2018-07-15T09:08:45Z</time>
      </trkpt>
      <trkpt lat="47.22813" lon="6.04046">
        <ele>259.21</ele>
        <time>2018-07-15T09:08:46Z</time>
      </trkpt>
      <trkpt lat="47.22817" lon="6.0405">
        <ele>259.21</ele>
        <time>2018-07-15T09:08:47Z</time>
      </trkpt>
      <trkpt lat="47.2282" lon="6.04054">
        <ele>259.21</ele>
        <time>2018-07-15T09:08:48Z</time>
      </trkpt>
      <trkpt lat="47.22823" lon="6.04058">
        <ele>259.69</ele>
        <time>2018-07-15T09:08:49Z</time>
      </trkpt>
      <trkpt lat="47.22826" lon="6.04062">
        <ele>259.69</ele>
        <time>2018-07-15T09:08:50Z</time>
      </trkpt>
      <trkpt lat="47.22866" lon="6.04114">
        <ele>261.14</ele>
        <time>2018-07-15T09:09:04Z</time>
      </trkpt>
      <trkpt lat="47.22892" lon="6.04163">
        <ele>261.14</ele>
        <time>2018-07-15T09:09:15Z</time>
      </trkpt>
      <trkpt lat="47.2291" lon="6.04214">
        <ele>262.58</ele>
        <time>2018-07-15T09:09:27Z</time>
      </trkpt>
      <trkpt lat="47.22911" lon="6.04218">
        <ele>262.1</ele>
        <time>2018-07-15T09:09:28Z</time>
      </trkpt>
      <trkpt lat="47.22913" lon="6.04219">
        <ele>262.58</ele>
        <time>2018-07-15T09:09:29Z</time>
      </trkpt>
      <trkpt lat="47.22915" lon="6.04218">
        <ele>262.58</ele>
        <time>2018-07-15T09:09:30Z</time>
      </trkpt>
      <trkpt lat="47.22916" lon="6.04215">
        <ele>263.06</ele>
        <time>2018-07-15T09:09:31Z</time>
      </trkpt>
      <trkpt lat="47.22917" lon="6.04212">
        <ele>263.54</ele>
        <time>2018-07-15T09:09:32Z</time>
      </trkpt>
      <trkpt lat="47.22919" lon="6.0421">
        <ele>263.54</ele>
        <time>2018-07-15T09:09:33Z</time>
      </trkpt>
      <trkpt lat="47.22921" lon="6.04209">
        <ele>264.02</ele>
        <time>2018-07-15T09:09:34Z</time>
      </trkpt>
      <trkpt lat="47.22922" lon="6.04209">
        <ele>264.02</ele>
        <time>2018-07-15T09:09:35Z</time>
      </trkpt>
      <trkpt lat="47.22924" lon="6.04211">
        <ele>264.98</ele>
        <time>2018-07-15T09:09:36Z</time>
      </trkpt>
      <trkpt lat="47.22924" lon="6.04213">
        <ele>264.98</ele>
        <time>2018-07-15T09:09:37Z</time>
      </trkpt>
      <trkpt lat="47.22924" lon="6.04215">
        <ele>265.46</ele>
        <time>2018-07-15T09:09:38Z</time>
      </trkpt>
      <trkpt lat="47.22924" lon="6.04218">
        <ele>265.46</ele>
        <time>2018-07-15T09:09:39Z</time>
      </trkpt>
      <trkpt lat="47.22924" lon="6.0422">
        <ele>265.46</ele>
        <time>2018-07-15T09:09:40Z</time>
      </trkpt>
      <trkpt lat="47.22909" lon="6.04255">
        <ele>267.38</ele>
        <time>2018-07-15T09:09:54Z</time>
      </trkpt>
      <trkpt lat="47.22903" lon="6.04281">
        <ele>268.83</ele>
        <time>2018-07-15T09:10:03Z</time>
      </trkpt>
      <trkpt lat="47.22903" lon="6.04283">
        <ele>268.83</ele>
        <time>2018-07-15T09:10:04Z</time>
      </trkpt>
      <trkpt lat="47.22904" lon="6.04285">
        <ele>269.31</ele>
        <time>2018-07-15T09:10:05Z</time>
      </trkpt>
      <trkpt lat="47.22905" lon="6.04287">
        <ele>269.31</ele>
        <time>2018-07-15T09:10:06Z</time>
      </trkpt>
      <trkpt lat="47.22906" lon="6.04288">
        <ele>269.31</ele>
        <time>2018-07-15T09:10:07Z</time>
      </trkpt>
      <trkpt lat="47.22907" lon="6.0429">
        <ele>269.79</ele>
        <time>2018-07-15T09:10:08Z</time>
      </trkpt>
      <trkpt lat="47.22925" lon="6.04314">
        <ele>272.19</ele>
        <time>2018-07-15T09:10:23Z</time>
      </trkpt>
      <trkpt lat="47.22939" lon="6.0433">
        <ele>275.07</ele>
        <time>2018-07-15T09:10:35Z</time>
      </trkpt>
      <trkpt lat="47.2294" lon="6.04332">
        <ele>275.07</ele>
        <time>2018-07-15T09:10:36Z</time>
      </trkpt>
      <trkpt lat="47.22944" lon="6.04339">
        <ele>275.56</ele>
        <time>2018-07-15T09:10:40Z</time>
      </trkpt>
      <trkpt lat="47.22962" lon="6.04365">
        <ele>277.96</ele>
        <time>2018-07-15T09:10:55Z</time>
      </trkpt>
      <trkpt lat="47.22979" lon="6.04394">
        <ele>280.36</ele>
        <time>2018-07-15T09:11:10Z</time>
      </trkpt>
      <trkpt lat="47.22988" lon="6.04412">
        <ele>281.8</ele>
        <time>2018-07-15T09:11:19Z</time>
      </trkpt>
      <trkpt lat="47.22989" lon="6.04414">
        <ele>282.28</ele>
        <time>2018-07-15T09:11:20Z</time>
      </trkpt>
      <trkpt lat="47.2299" lon="6.04415">
        <ele>282.28</ele>
        <time>2018-07-15T09:11:21Z</time>
      </trkpt>
      <trkpt lat="47.22991" lon="6.04418">
        <ele>282.28</ele>
        <time>2018-07-15T09:11:22Z</time>
      </trkpt>
      <trkpt lat="47.22992" lon="6.0442">
        <ele>282.28</ele>
        <time>2018-07-15T09:11:23Z</time>
      </trkpt>
      <trkpt lat="47.22992" lon="6.04422">
        <ele>282.77</ele>
        <time>2018-07-15T09:11:24Z</time>
      </trkpt>
      <trkpt lat="47.22993" lon="6.04424">
        <ele>282.77</ele>
        <time>2018-07-15T09:11:25Z</time>
      </trkpt>
      <trkpt lat="47.22994" lon="6.04426">
        <ele>282.77</ele>
        <time>2018-07-15T09:11:26Z</time>
      </trkpt>
      <trkpt lat="47.22999" lon="6.04435">
        <ele>283.73</ele>
        <time>2018-07-15T09:11:31Z</time>
      </trkpt>
      <trkpt lat="47.23" lon="6.04437">
        <ele>284.21</ele>
        <time>2018-07-15T09:11:32Z</time>
      </trkpt>
      <trkpt lat="47.23008" lon="6.04456">
        <ele>286.13</ele>
        <time>2018-07-15T09:11:42Z</time>
      </trkpt>
      <trkpt lat="47.2302" lon="6.04481">
        <ele>289.01</ele>
        <time>2018-07-15T09:11:55Z</time>
      </trkpt>
      <trkpt lat="47.23024" lon="6.04487">
        <ele>289.49</ele>
        <time>2018-07-15T09:11:59Z</time>
      </trkpt>
      <trkpt lat="47.23024" lon="6.04489">
        <ele>289.97</ele>
        <time>2018-07-15T09:12:00Z</time>
      </trkpt>
      <trkpt lat="47.23025" lon="6.0449">
        <ele>289.97</ele>
        <time>2018-07-15T09:12:01Z</time>
      </trkpt>
      <trkpt lat="47.23026" lon="6.04492">
        <ele>289.97</ele>
        <time>2018-07-15T09:12:02Z</time>
      </trkpt>
      <trkpt lat="47.23026" lon="6.04494">
        <ele>290.46</ele>
        <time>2018-07-15T09:12:03Z</time>
      </trkpt>
      <trkpt lat="47.23028" lon="6.04495">
        <ele>290.94</ele>
        <time>2018-07-15T09:12:04Z</time>
      </trkpt>
      <trkpt lat="47.23029" lon="6.04497">
        <ele>290.94</ele>
        <time>2018-07-15T09:12:05Z</time>
      </trkpt>
      <trkpt lat="47.2303" lon="6.04498">
        <ele>291.42</ele>
        <time>2018-07-15T09:12:06Z</time>
      </trkpt>
      <trkpt lat="47.23031" lon="6.045">
        <ele>291.42</ele>
        <time>2018-07-15T09:12:07Z</time>
      </trkpt>
      <trkpt lat="47.23032" lon="6.04502">
        <ele>291.42</ele>
        <time>2018-07-15T09:12:08Z</time>
      </trkpt>
      <trkpt lat="47.23033" lon="6.04503">
        <ele>291.9</ele>
        <time>2018-07-15T09:12:09Z</time>
      </trkpt>
      <trkpt lat="47.23034" lon="6.04505">
        <ele>291.9</ele>
        <time>2018-07-15T09:12:10Z</time>
      </trkpt>
      <trkpt lat="47.23035" lon="6.04507">
        <ele>292.38</ele>
        <time>2018-07-15T09:12:11Z</time>
      </trkpt>
      <trkpt lat="47.23035" lon="6.04509">
        <ele>292.38</ele>
        <time>2018-07-15T09:12:12Z</time>
      </trkpt>
      <trkpt lat="47.23036" lon="6.04511">
        <ele>292.86</ele>
        <time>2018-07-15T09:12:13Z</time>
      </trkpt>
      <trkpt lat="47.23037" lon="6.04513">
        <ele>292.86</ele>
        <time>2018-07-15T09:12:14Z</time>
      </trkpt>
      <trkpt lat="47.23038" lon="6.04514">
        <ele>292.86</ele>
        <time>2018-07-15T09:12:15Z</time>
      </trkpt>
      <trkpt lat="47.23038" lon="6.04516">
        <ele>293.34</ele>
        <time>2018-07-15T09:12:16Z</time>
      </trkpt>
      <trkpt lat="47.23039" lon="6.04518">
        <ele>293.82</ele>
        <time>2018-07-15T09:12:17Z</time>
      </trkpt>
      <trkpt lat="47.2304" lon="6.04519">
        <ele>293.34</ele>
        <time>2018-07-15T09:12:18Z</time>
      </trkpt>
      <trkpt lat="47.23041" lon="6.04521">
        <ele>293.82</ele>
        <time>2018-07-15T09:12:19Z</time>
      </trkpt>
      <trkpt lat="47.23041" lon="6.04523">
        <ele>293.82</ele>
        <time>2018-07-15T09:12:20Z</time>
      </trkpt>
      <trkpt lat="47.2305" lon="6.04544">
        <ele>296.7</ele>
        <time>2018-07-15T09:12:32Z</time>
      </trkpt>
      <trkpt lat="47.23051" lon="6.04547">
        <ele>297.18</ele>
        <time>2018-07-15T09:12:34Z</time>
      </trkpt>
      <trkpt lat="47.23053" lon="6.04552">
        <ele>297.67</ele>
        <time>2018-07-15T09:12:37Z</time>
      </trkpt>
      <trkpt lat="47.23053" lon="6.04553">
        <ele>297.67</ele>
        <time>2018-07-15T09:12:38Z</time>
      </trkpt>
      <trkpt lat="47.23059" lon="6.04565">
        <ele>299.59</ele>
        <time>2018-07-15T09:12:46Z</time>
      </trkpt>
      <trkpt lat="47.2306" lon="6.04569">
        <ele>300.07</ele>
        <time>2018-07-15T09:12:48Z</time>
      </trkpt>
      <trkpt lat="47.2306" lon="6.04571">
        <ele>300.55</ele>
        <time>2018-07-15T09:12:49Z</time>
      </trkpt>
      <trkpt lat="47.23061" lon="6.04572">
        <ele>300.55</ele>
        <time>2018-07-15T09:12:50Z</time>
      </trkpt>
      <trkpt lat="47.23061" lon="6.04574">
        <ele>301.03</ele>
        <time>2018-07-15T09:12:51Z</time>
      </trkpt>
      <trkpt lat="47.23062" lon="6.04576">
        <ele>301.03</ele>
        <time>2018-07-15T09:12:52Z</time>
      </trkpt>
      <trkpt lat="47.23068" lon="6.04587">
        <ele>302.95</ele>
        <time>2018-07-15T09:12:59Z</time>
      </trkpt>
      <trkpt lat="47.23068" lon="6.04588">
        <ele>303.43</ele>
        <time>2018-07-15T09:13:00Z</time>
      </trkpt>
      <trkpt lat="47.23069" lon="6.0459">
        <ele>303.43</ele>
        <time>2018-07-15T09:13:01Z</time>
      </trkpt>
      <trkpt lat="47.2307" lon="6.04591">
        <ele>303.91</ele>
        <time>2018-07-15T09:13:02Z</time>
      </trkpt>
      <trkpt lat="47.2307" lon="6.04593">
        <ele>303.91</ele>
        <time>2018-07-15T09:13:03Z</time>
      </trkpt>
      <trkpt lat="47.23071" lon="6.04595">
        <ele>304.39</ele>
        <time>2018-07-15T09:13:04Z</time>
      </trkpt>
      <trkpt lat="47.23071" lon="6.04597">
        <ele>304.39</ele>
        <time>2018-07-15T09:13:05Z</time>
      </trkpt>
      <trkpt lat="47.23075" lon="6.04604">
        <ele>305.84</ele>
        <time>2018-07-15T09:13:11Z</time>
      </trkpt>
      <trkpt lat="47.23076" lon="6.04606">
        <ele>306.32</ele>
        <time>2018-07-15T09:13:12Z</time>
      </trkpt>
      <trkpt lat="47.23077" lon="6.04608">
        <ele>306.32</ele>
        <time>2018-07-15T09:13:13Z</time>
      </trkpt>
      <trkpt lat="47.23086" lon="6.04626">
        <ele>309.68</ele>
        <time>2018-07-15T09:13:24Z</time>
      </trkpt>
      <trkpt lat="47.23087" lon="6.04627">
        <ele>309.68</ele>
        <time>2018-07-15T09:13:25Z</time>
      </trkpt>
      <trkpt lat="47.23088" lon="6.04629">
        <ele>310.16</ele>
        <time>2018-07-15T09:13:26Z</time>
      </trkpt>
      <trkpt lat="47.23088" lon="6.04631">
        <ele>310.16</ele>
        <time>2018-07-15T09:13:27Z</time>
      </trkpt>
      <trkpt lat="47.23089" lon="6.04632">
        <ele>310.64</ele>
        <time>2018-07-15T09:13:28Z</time>
      </trkpt>
      <trkpt lat="47.23098" lon="6.04654">
        <ele>313.53</ele>
        <time>2018-07-15T09:13:41Z</time>
      </trkpt>
      <trkpt lat="47.231" lon="6.04658">
        <ele>314.49</ele>
        <time>2018-07-15T09:13:44Z</time>
      </trkpt>
      <trkpt lat="47.23101" lon="6.0466">
        <ele>314.97</ele>
        <time>2018-07-15T09:13:45Z</time>
      </trkpt>
      <trkpt lat="47.23101" lon="6.04662">
        <ele>314.97</ele>
        <time>2018-07-15T09:13:46Z</time>
      </trkpt>
      <trkpt lat="47.23102" lon="6.04665">
        <ele>315.45</ele>
        <time>2018-07-15T09:13:47Z</time>
      </trkpt>
      <trkpt lat="47.23102" lon="6.04666">
        <ele>315.93</ele>
        <time>2018-07-15T09:13:48Z</time>
      </trkpt>
      <trkpt lat="47.23103" lon="6.04668">
        <ele>315.93</ele>
        <time>2018-07-15T09:13:49Z</time>
      </trkpt>
      <trkpt lat="47.23104" lon="6.0467">
        <ele>316.41</ele>
        <time>2018-07-15T09:13:50Z</time>
      </trkpt>
      <trkpt lat="47.23104" lon="6.04672">
        <ele>316.41</ele>
        <time>2018-07-15T09:13:51Z</time>
      </trkpt>
      <trkpt lat="47.23105" lon="6.04673">
        <ele>316.89</ele>
        <time>2018-07-15T09:13:52Z</time>
      </trkpt>
      <trkpt lat="47.23107" lon="6.04675">
        <ele>316.89</ele>
        <time>2018-07-15T09:13:53Z</time>
      </trkpt>
      <trkpt lat="47.23108" lon="6.04677">
        <ele>317.37</ele>
        <time>2018-07-15T09:13:54Z</time>
      </trkpt>
      <trkpt lat="47.23109" lon="6.04678">
        <ele>317.37</ele>
        <time>2018-07-15T09:13:55Z</time>
      </trkpt>
      <trkpt lat="47.23109" lon="6.0468">
        <ele>317.85</ele>
        <time>2018-07-15T09:13:56Z</time>
      </trkpt>
      <trkpt lat="47.2311" lon="6.04681">
        <ele>318.33</ele>
        <time>2018-07-15T09:13:57Z</time>
      </trkpt>
      <trkpt lat="47.23111" lon="6.04683">
        <ele>318.33</ele>
        <time>2018-07-15T09:13:58Z</time>
      </trkpt>
      <trkpt lat="47.23118" lon="6.04705">
        <ele>321.22</ele>
        <time>2018-07-15T09:14:10Z</time>
      </trkpt>
      <trkpt lat="47.23125" lon="6.04718">
        <ele>323.14</ele>
        <time>2018-07-15T09:14:18Z</time>
      </trkpt>
      <trkpt lat="47.23126" lon="6.0472">
        <ele>323.62</ele>
        <time>2018-07-15T09:14:19Z</time>
      </trkpt>
      <trkpt lat="47.23134" lon="6.04733">
        <ele>325.54</ele>
        <time>2018-07-15T09:14:27Z</time>
      </trkpt>
      <trkpt lat="47.23134" lon="6.04735">
        <ele>325.54</ele>
        <time>2018-07-15T09:14:28Z</time>
      </trkpt>
      <trkpt lat="47.23135" lon="6.04737">
        <ele>326.02</ele>
        <time>2018-07-15T09:14:29Z</time>
      </trkpt>
      <trkpt lat="47.23145" lon="6.04758">
        <ele>329.39</ele>
        <time>2018-07-15T09:14:41Z</time>
      </trkpt>
      <trkpt lat="47.23153" lon="6.04778">
        <ele>332.27</ele>
        <time>2018-07-15T09:14:53Z</time>
      </trkpt>
      <trkpt lat="47.23154" lon="6.04779">
        <ele>332.27</ele>
        <time>2018-07-15T09:14:54Z</time>
      </trkpt>
      <trkpt lat="47.23154" lon="6.0478">
        <ele>332.27</ele>
        <time>2018-07-15T09:14:55Z</time>
      </trkpt>
      <trkpt lat="47.23156" lon="6.04781">
        <ele>332.75</ele>
        <time>2018-07-15T09:14:56Z</time>
      </trkpt>
      <trkpt lat="47.23157" lon="6.04783">
        <ele>332.75</ele>
        <time>2018-07-15T09:14:57Z</time>
      </trkpt>
      <trkpt lat="47.23158" lon="6.04784">
        <ele>333.23</ele>
        <time>2018-07-15T09:14:58Z</time>
      </trkpt>
      <trkpt lat="47.23159" lon="6.04785">
        <ele>333.71</ele>
        <time>2018-07-15T09:14:59Z</time>
      </trkpt>
      <trkpt lat="47.2316" lon="6.04787">
        <ele>333.71</ele>
        <time>2018-07-15T09:15:00Z</time>
      </trkpt>
      <trkpt lat="47.23159" lon="6.0479">
        <ele>334.2</ele>
        <time>2018-07-15T09:15:03Z</time>
      </trkpt>
      <trkpt lat="47.23158" lon="6.04794">
        <ele>334.68</ele>
        <time>2018-07-15T09:15:06Z</time>
      </trkpt>
      <trkpt lat="47.23159" lon="6.04797">
        <ele>334.68</ele>
        <time>2018-07-15T09:15:10Z</time>
      </trkpt>
      <trkpt lat="47.23162" lon="6.04797">
        <ele>334.68</ele>
        <time>2018-07-15T09:15:13Z</time>
      </trkpt>
      <trkpt lat="47.23161" lon="6.04794">
        <ele>334.68</ele>
        <time>2018-07-15T09:15:15Z</time>
      </trkpt>
      <trkpt lat="47.2316" lon="6.04793">
        <ele>334.68</ele>
        <time>2018-07-15T09:15:16Z</time>
      </trkpt>
      <trkpt lat="47.23159" lon="6.04792">
        <ele>334.68</ele>
        <time>2018-07-15T09:15:17Z</time>
      </trkpt>
      <trkpt lat="47.23158" lon="6.04792">
        <ele>334.2</ele>
        <time>2018-07-15T09:15:18Z</time>
      </trkpt>
      <trkpt lat="47.23155" lon="6.04792">
        <ele>334.2</ele>
        <time>2018-07-15T09:15:22Z</time>
      </trkpt>
      <trkpt lat="47.23154" lon="6.04791">
        <ele>334.68</ele>
        <time>2018-07-15T09:15:23Z</time>
      </trkpt>
      <trkpt lat="47.23153" lon="6.04791">
        <ele>335.16</ele>
        <time>2018-07-15T09:15:24Z</time>
      </trkpt>
      <trkpt lat="47.23152" lon="6.0479">
        <ele>335.64</ele>
        <time>2018-07-15T09:15:25Z</time>
      </trkpt>
      <trkpt lat="47.2315" lon="6.04791">
        <ele>336.12</ele>
        <time>2018-07-15T09:15:26Z</time>
      </trkpt>
      <trkpt lat="47.23145" lon="6.04793">
        <ele>337.56</ele>
        <time>2018-07-15T09:15:37Z</time>
      </trkpt>
      <trkpt lat="47.23147" lon="6.04796">
        <ele>338.52</ele>
        <time>2018-07-15T09:15:47Z</time>
      </trkpt>
      <trkpt lat="47.23149" lon="6.04803">
        <ele>340.44</ele>
        <time>2018-07-15T09:16:00Z</time>
      </trkpt>
      <trkpt lat="47.23151" lon="6.04809">
        <ele>341.89</ele>
        <time>2018-07-15T09:16:11Z</time>
      </trkpt>
      <trkpt lat="47.23152" lon="6.04812">
        <ele>342.85</ele>
        <time>2018-07-15T09:16:23Z</time>
      </trkpt>
      <trkpt lat="47.23154" lon="6.04821">
        <ele>344.29</ele>
        <time>2018-07-15T09:16:36Z</time>
      </trkpt>
      <trkpt lat="47.23151" lon="6.04831">
        <ele>346.21</ele>
        <time>2018-07-15T09:16:48Z</time>
      </trkpt>
      <trkpt lat="47.23153" lon="6.04839">
        <ele>348.13</ele>
        <time>2018-07-15T09:16:57Z</time>
      </trkpt>
      <trkpt lat="47.23154" lon="6.04849">
        <ele>351.02</ele>
        <time>2018-07-15T09:17:09Z</time>
      </trkpt>
      <trkpt lat="47.23157" lon="6.04858">
        <ele>352.94</ele>
        <time>2018-07-15T09:17:21Z</time>
      </trkpt>
      <trkpt lat="47.23158" lon="6.04867">
        <ele>354.86</ele>
        <time>2018-07-15T09:17:34Z</time>
      </trkpt>
      <trkpt lat="47.23162" lon="6.04883">
        <ele>357.27</ele>
        <time>2018-07-15T09:17:49Z</time>
      </trkpt>
      <trkpt lat="47.23167" lon="6.04897">
        <ele>359.19</ele>
        <time>2018-07-15T09:18:02Z</time>
      </trkpt>
      <trkpt lat="47.2317" lon="6.04909">
        <ele>361.11</ele>
        <time>2018-07-15T09:18:14Z</time>
      </trkpt>
      <trkpt lat="47.23176" lon="6.04925">
        <ele>363.04</ele>
        <time>2018-07-15T09:18:27Z</time>
      </trkpt>
      <trkpt lat="47.23177" lon="6.04929">
        <ele>363.52</ele>
        <time>2018-07-15T09:18:30Z</time>
      </trkpt>
      <trkpt lat="47.23178" lon="6.04932">
        <ele>363.52</ele>
        <time>2018-07-15T09:18:32Z</time>
      </trkpt>
      <trkpt lat="47.23179" lon="6.04934">
        <ele>363.52</ele>
        <time>2018-07-15T09:18:33Z</time>
      </trkpt>
      <trkpt lat="47.2318" lon="6.04935">
        <ele>363.52</ele>
        <time>2018-07-15T09:18:34Z</time>
      </trkpt>
      <trkpt lat="47.23181" lon="6.04937">
        <ele>363.52</ele>
        <time>2018-07-15T09:18:35Z</time>
      </trkpt>
      <trkpt lat="47.23182" lon="6.04939">
        <ele>363.52</ele>
        <time>2018-07-15T09:18:36Z</time>
      </trkpt>
      <trkpt lat="47.23182" lon="6.04942">
        <ele>363.52</ele>
        <time>2018-07-15T09:18:37Z</time>
      </trkpt>
      <trkpt lat="47.23186" lon="6.04949">
        <ele>364</ele>
        <time>2018-07-15T09:18:41Z</time>
      </trkpt>
      <trkpt lat="47.23188" lon="6.04951">
        <ele>364</ele>
        <time>2018-07-15T09:18:42Z</time>
      </trkpt>
      <trkpt lat="47.23189" lon="6.04953">
        <ele>364</ele>
        <time>2018-07-15T09:18:43Z</time>
      </trkpt>
      <trkpt lat="47.2319" lon="6.04955">
        <ele>364</ele>
        <time>2018-07-15T09:18:44Z</time>
      </trkpt>
      <trkpt lat="47.23191" lon="6.04957">
        <ele>364</ele>
        <time>2018-07-15T09:18:45Z</time>
      </trkpt>
      <trkpt lat="47.23211" lon="6.04983">
        <ele>364.96</ele>
        <time>2018-07-15T09:18:58Z</time>
      </trkpt>
      <trkpt lat="47.23229" lon="6.05001">
        <ele>365.92</ele>
        <time>2018-07-15T09:19:09Z</time>
      </trkpt>
      <trkpt lat="47.2323" lon="6.05003">
        <ele>366.4</ele>
        <time>2018-07-15T09:19:10Z</time>
      </trkpt>
      <trkpt lat="47.2323" lon="6.05006">
        <ele>366.4</ele>
        <time>2018-07-15T09:19:11Z</time>
      </trkpt>
      <trkpt lat="47.2323" lon="6.05008">
        <ele>366.4</ele>
        <time>2018-07-15T09:19:12Z</time>
      </trkpt>
      <trkpt lat="47.2323" lon="6.05011">
        <ele>366.4</ele>
        <time>2018-07-15T09:19:13Z</time>
      </trkpt>
      <trkpt lat="47.2323" lon="6.05013">
        <ele>366.4</ele>
        <time>2018-07-15T09:19:14Z</time>
      </trkpt>
      <trkpt lat="47.2323" lon="6.05016">
        <ele>366.4</ele>
        <time>2018-07-15T09:19:15Z</time>
      </trkpt>
      <trkpt lat="47.2323" lon="6.05019">
        <ele>366.4</ele>
        <time>2018-07-15T09:19:16Z</time>
      </trkpt>
      <trkpt lat="47.23231" lon="6.05023">
        <ele>365.92</ele>
        <time>2018-07-15T09:19:17Z</time>
      </trkpt>
      <trkpt lat="47.23231" lon="6.05027">
        <ele>365.92</ele>
        <time>2018-07-15T09:19:18Z</time>
      </trkpt>
      <trkpt lat="47.23231" lon="6.05031">
        <ele>365.92</ele>
        <time>2018-07-15T09:19:19Z</time>
      </trkpt>
      <trkpt lat="47.23232" lon="6.05034">
        <ele>365.92</ele>
        <time>2018-07-15T09:19:20Z</time>
      </trkpt>
      <trkpt lat="47.23233" lon="6.05043">
        <ele>365.92</ele>
        <time>2018-07-15T09:19:26Z</time>
      </trkpt>
      <trkpt lat="47.23233" lon="6.05043">
        <ele>365.92</ele>
        <time>2018-07-15T09:19:27Z</time>
      </trkpt>
      <trkpt lat="47.23234" lon="6.05041">
        <ele>365.92</ele>
        <time>2018-07-15T09:19:28Z</time>
      </trkpt>
      <trkpt lat="47.23234" lon="6.05039">
        <ele>365.92</ele>
        <time>2018-07-15T09:19:29Z</time>
      </trkpt>
      <trkpt lat="47.23233" lon="6.05037">
        <ele>365.44</ele>
        <time>2018-07-15T09:19:30Z</time>
      </trkpt>
      <trkpt lat="47.2324" lon="6.04999">
        <ele>366.4</ele>
        <time>2018-07-15T09:19:43Z</time>
      </trkpt>
      <trkpt lat="47.2327" lon="6.04966">
        <ele>365.44</ele>
        <time>2018-07-15T09:19:54Z</time>
      </trkpt>
      <trkpt lat="47.23301" lon="6.04917">
        <ele>367.36</ele>
        <time>2018-07-15T09:20:09Z</time>
      </trkpt>
      <trkpt lat="47.23317" lon="6.04888">
        <ele>369.76</ele>
        <time>2018-07-15T09:20:20Z</time>
      </trkpt>
      <trkpt lat="47.23325" lon="6.0487">
        <ele>371.69</ele>
        <time>2018-07-15T09:20:28Z</time>
      </trkpt>
      <trkpt lat="47.23327" lon="6.0487">
        <ele>371.69</ele>
        <time>2018-07-15T09:20:29Z</time>
      </trkpt>
      <trkpt lat="47.23329" lon="6.04871">
        <ele>372.17</ele>
        <time>2018-07-15T09:20:30Z</time>
      </trkpt>
      <trkpt lat="47.23329" lon="6.04872">
        <ele>372.17</ele>
        <time>2018-07-15T09:20:31Z</time>
      </trkpt>
      <trkpt lat="47.23329" lon="6.04874">
        <ele>372.65</ele>
        <time>2018-07-15T09:20:32Z</time>
      </trkpt>
      <trkpt lat="47.23329" lon="6.04875">
        <ele>372.65</ele>
        <time>2018-07-15T09:20:33Z</time>
      </trkpt>
      <trkpt lat="47.23328" lon="6.04877">
        <ele>373.13</ele>
        <time>2018-07-15T09:20:34Z</time>
      </trkpt>
      <trkpt lat="47.23328" lon="6.04879">
        <ele>373.13</ele>
        <time>2018-07-15T09:20:35Z</time>
      </trkpt>
      <trkpt lat="47.23328" lon="6.04906">
        <ele>375.53</ele>
        <time>2018-07-15T09:20:48Z</time>
      </trkpt>
      <trkpt lat="47.23328" lon="6.04908">
        <ele>376.01</ele>
        <time>2018-07-15T09:20:49Z</time>
      </trkpt>
      <trkpt lat="47.23325" lon="6.04922">
        <ele>377.45</ele>
        <time>2018-07-15T09:20:55Z</time>
      </trkpt>
      <trkpt lat="47.23325" lon="6.04924">
        <ele>377.45</ele>
        <time>2018-07-15T09:20:56Z</time>
      </trkpt>
      <trkpt lat="47.23325" lon="6.04926">
        <ele>377.45</ele>
        <time>2018-07-15T09:20:57Z</time>
      </trkpt>
      <trkpt lat="47.23325" lon="6.04929">
        <ele>377.94</ele>
        <time>2018-07-15T09:20:58Z</time>
      </trkpt>
      <trkpt lat="47.23325" lon="6.04931">
        <ele>377.94</ele>
        <time>2018-07-15T09:20:59Z</time>
      </trkpt>
      <trkpt lat="47.23324" lon="6.04934">
        <ele>377.94</ele>
        <time>2018-07-15T09:21:00Z</time>
      </trkpt>
      <trkpt lat="47.23324" lon="6.04936">
        <ele>378.42</ele>
        <time>2018-07-15T09:21:01Z</time>
      </trkpt>
      <trkpt lat="47.23324" lon="6.04938">
        <ele>378.42</ele>
        <time>2018-07-15T09:21:02Z</time>
      </trkpt>
      <trkpt lat="47.23323" lon="6.0494">
        <ele>378.9</ele>
        <time>2018-07-15T09:21:03Z</time>
      </trkpt>
      <trkpt lat="47.23323" lon="6.04942">
        <ele>378.9</ele>
        <time>2018-07-15T09:21:04Z</time>
      </trkpt>
      <trkpt lat="47.2332" lon="6.04977">
        <ele>381.3</ele>
        <time>2018-07-15T09:21:19Z</time>
      </trkpt>
      <trkpt lat="47.23322" lon="6.04997">
        <ele>382.74</ele>
        <time>2018-07-15T09:21:29Z</time>
      </trkpt>
      <trkpt lat="47.23326" lon="6.05">
        <ele>383.7</ele>
        <time>2018-07-15T09:21:32Z</time>
      </trkpt>
      <trkpt lat="47.2334" lon="6.04998">
        <ele>386.59</ele>
        <time>2018-07-15T09:21:43Z</time>
      </trkpt>
      <trkpt lat="47.23357" lon="6.05001">
        <ele>389.47</ele>
        <time>2018-07-15T09:21:54Z</time>
      </trkpt>
      <trkpt lat="47.23361" lon="6.05006">
        <ele>390.43</ele>
        <time>2018-07-15T09:21:57Z</time>
      </trkpt>
      <trkpt lat="47.23362" lon="6.05008">
        <ele>390.43</ele>
        <time>2018-07-15T09:21:58Z</time>
      </trkpt>
      <trkpt lat="47.23364" lon="6.0501">
        <ele>390.91</ele>
        <time>2018-07-15T09:21:59Z</time>
      </trkpt>
      <trkpt lat="47.23365" lon="6.05012">
        <ele>390.91</ele>
        <time>2018-07-15T09:22:00Z</time>
      </trkpt>
      <trkpt lat="47.23366" lon="6.05013">
        <ele>391.39</ele>
        <time>2018-07-15T09:22:01Z</time>
      </trkpt>
      <trkpt lat="47.23367" lon="6.05015">
        <ele>391.39</ele>
        <time>2018-07-15T09:22:02Z</time>
      </trkpt>
      <trkpt lat="47.23368" lon="6.05017">
        <ele>391.87</ele>
        <time>2018-07-15T09:22:03Z</time>
      </trkpt>
      <trkpt lat="47.23368" lon="6.05019">
        <ele>391.87</ele>
        <time>2018-07-15T09:22:04Z</time>
      </trkpt>
      <trkpt lat="47.23369" lon="6.05021">
        <ele>392.36</ele>
        <time>2018-07-15T09:22:05Z</time>
      </trkpt>
      <trkpt lat="47.2337" lon="6.05023">
        <ele>392.36</ele>
        <time>2018-07-15T09:22:06Z</time>
      </trkpt>
      <trkpt lat="47.23371" lon="6.05025">
        <ele>392.36</ele>
        <time>2018-07-15T09:22:07Z</time>
      </trkpt>
      <trkpt lat="47.23372" lon="6.05027">
        <ele>392.36</ele>
        <time>2018-07-15T09:22:08Z</time>
      </trkpt>
      <trkpt lat="47.23373" lon="6.05029">
        <ele>392.36</ele>
        <time>2018-07-15T09:22:09Z</time>
      </trkpt>
      <trkpt lat="47.23374" lon="6.05031">
        <ele>392.84</ele>
        <time>2018-07-15T09:22:10Z</time>
      </trkpt>
      <trkpt lat="47.23375" lon="6.05033">
        <ele>392.84</ele>
        <time>2018-07-15T09:22:11Z</time>
      </trkpt>
      <trkpt lat="47.23376" lon="6.05035">
        <ele>392.84</ele>
        <time>2018-07-15T09:22:12Z</time>
      </trkpt>
      <trkpt lat="47.23377" lon="6.05038">
        <ele>393.32</ele>
        <time>2018-07-15T09:22:13Z</time>
      </trkpt>
      <trkpt lat="47.23388" lon="6.05061">
        <ele>394.28</ele>
        <time>2018-07-15T09:22:24Z</time>
      </trkpt>
      <trkpt lat="47.23393" lon="6.0507">
        <ele>395.24</ele>
        <time>2018-07-15T09:22:29Z</time>
      </trkpt>
      <trkpt lat="47.23393" lon="6.05072">
        <ele>395.24</ele>
        <time>2018-07-15T09:22:30Z</time>
      </trkpt>
      <trkpt lat="47.23395" lon="6.05075">
        <ele>395.24</ele>
        <time>2018-07-15T09:22:31Z</time>
      </trkpt>
      <trkpt lat="47.23397" lon="6.05077">
        <ele>395.72</ele>
        <time>2018-07-15T09:22:32Z</time>
      </trkpt>
      <trkpt lat="47.23399" lon="6.05079">
        <ele>395.72</ele>
        <time>2018-07-15T09:22:33Z</time>
      </trkpt>
      <trkpt lat="47.234" lon="6.0508">
        <ele>395.72</ele>
        <time>2018-07-15T09:22:34Z</time>
      </trkpt>
      <trkpt lat="47.23401" lon="6.05082">
        <ele>395.72</ele>
        <time>2018-07-15T09:22:35Z</time>
      </trkpt>
      <trkpt lat="47.23402" lon="6.05083">
        <ele>396.2</ele>
        <time>2018-07-15T09:22:36Z</time>
      </trkpt>
      <trkpt lat="47.23404" lon="6.05085">
        <ele>396.2</ele>
        <time>2018-07-15T09:22:37Z</time>
      </trkpt>
      <trkpt lat="47.23406" lon="6.05086">
        <ele>396.68</ele>
        <time>2018-07-15T09:22:38Z</time>
      </trkpt>
      <trkpt lat="47.23406" lon="6.05077">
        <ele>397.16</ele>
        <time>2018-07-15T09:22:43Z</time>
      </trkpt>
      <trkpt lat="47.23403" lon="6.05074">
        <ele>397.16</ele>
        <time>2018-07-15T09:22:45Z</time>
      </trkpt>
      <trkpt lat="47.23392" lon="6.05038">
        <ele>397.64</ele>
        <time>2018-07-15T09:22:57Z</time>
      </trkpt>
      <trkpt lat="47.23394" lon="6.05016">
        <ele>398.12</ele>
        <time>2018-07-15T09:23:04Z</time>
      </trkpt>
      <trkpt lat="47.2341" lon="6.04989">
        <ele>401.97</ele>
        <time>2018-07-15T09:23:18Z</time>
      </trkpt>
      <trkpt lat="47.23411" lon="6.04959">
        <ele>404.85</ele>
        <time>2018-07-15T09:23:30Z</time>
      </trkpt>
      <trkpt lat="47.2341" lon="6.04951">
        <ele>404.85</ele>
        <time>2018-07-15T09:23:35Z</time>
      </trkpt>
      <trkpt lat="47.23414" lon="6.04948">
        <ele>405.81</ele>
        <time>2018-07-15T09:23:39Z</time>
      </trkpt>
      <trkpt lat="47.23429" lon="6.04943">
        <ele>409.18</ele>
        <time>2018-07-15T09:23:50Z</time>
      </trkpt>
      <trkpt lat="47.23435" lon="6.04937">
        <ele>410.14</ele>
        <time>2018-07-15T09:23:55Z</time>
      </trkpt>
      <trkpt lat="47.23438" lon="6.04932">
        <ele>411.1</ele>
        <time>2018-07-15T09:23:59Z</time>
      </trkpt>
      <trkpt lat="47.23444" lon="6.04927">
        <ele>412.54</ele>
        <time>2018-07-15T09:24:05Z</time>
      </trkpt>
      <trkpt lat="47.23457" lon="6.04915">
        <ele>414.47</ele>
        <time>2018-07-15T09:24:17Z</time>
      </trkpt>
      <trkpt lat="47.23465" lon="6.04908">
        <ele>415.43</ele>
        <time>2018-07-15T09:24:22Z</time>
      </trkpt>
      <trkpt lat="47.23466" lon="6.04906">
        <ele>415.91</ele>
        <time>2018-07-15T09:24:23Z</time>
      </trkpt>
      <trkpt lat="47.23473" lon="6.04898">
        <ele>416.39</ele>
        <time>2018-07-15T09:24:28Z</time>
      </trkpt>
      <trkpt lat="47.23476" lon="6.04889">
        <ele>416.87</ele>
        <time>2018-07-15T09:24:31Z</time>
      </trkpt>
      <trkpt lat="47.23483" lon="6.0488">
        <ele>419.75</ele>
        <time>2018-07-15T09:24:42Z</time>
      </trkpt>
      <trkpt lat="47.2349" lon="6.04875">
        <ele>420.71</ele>
        <time>2018-07-15T09:24:47Z</time>
      </trkpt>
      <trkpt lat="47.23493" lon="6.04871">
        <ele>421.19</ele>
        <time>2018-07-15T09:24:50Z</time>
      </trkpt>
      <trkpt lat="47.23511" lon="6.04871">
        <ele>423.6</ele>
        <time>2018-07-15T09:25:03Z</time>
      </trkpt>
      <trkpt lat="47.2352" lon="6.04871">
        <ele>424.56</ele>
        <time>2018-07-15T09:25:07Z</time>
      </trkpt>
      <trkpt lat="47.23541" lon="6.04879">
        <ele>427.44</ele>
        <time>2018-07-15T09:25:20Z</time>
      </trkpt>
      <trkpt lat="47.23566" lon="6.04875">
        <ele>429.37</ele>
        <time>2018-07-15T09:25:33Z</time>
      </trkpt>
      <trkpt lat="47.23574" lon="6.04871">
        <ele>430.33</ele>
        <time>2018-07-15T09:25:38Z</time>
      </trkpt>
      <trkpt lat="47.23578" lon="6.04895">
        <ele>429.85</ele>
        <time>2018-07-15T09:25:47Z</time>
      </trkpt>
      <trkpt lat="47.23572" lon="6.0497">
        <ele>429.37</ele>
        <time>2018-07-15T09:26:02Z</time>
      </trkpt>
      <trkpt lat="47.2357" lon="6.05043">
        <ele>428.89</ele>
        <time>2018-07-15T09:26:17Z</time>
      </trkpt>
      <trkpt lat="47.2357" lon="6.05046">
        <ele>428.89</ele>
        <time>2018-07-15T09:26:20Z</time>
      </trkpt>
      <trkpt lat="47.23563" lon="6.05079">
        <ele>426.96</ele>
        <time>2018-07-15T09:26:29Z</time>
      </trkpt>
      <trkpt lat="47.2357" lon="6.05141">
        <ele>425.52</ele>
        <time>2018-07-15T09:26:39Z</time>
      </trkpt>
      <trkpt lat="47.23571" lon="6.05175">
        <ele>424.56</ele>
        <time>2018-07-15T09:26:44Z</time>
      </trkpt>
      <trkpt lat="47.23573" lon="6.05184">
        <ele>424.56</ele>
        <time>2018-07-15T09:26:45Z</time>
      </trkpt>
      <trkpt lat="47.23577" lon="6.05215">
        <ele>423.6</ele>
        <time>2018-07-15T09:26:49Z</time>
      </trkpt>
      <trkpt lat="47.23581" lon="6.05232">
        <ele>423.12</ele>
        <time>2018-07-15T09:26:51Z</time>
      </trkpt>
      <trkpt lat="47.23585" lon="6.05258">
        <ele>422.16</ele>
        <time>2018-07-15T09:26:54Z</time>
      </trkpt>
      <trkpt lat="47.23586" lon="6.05268">
        <ele>421.68</ele>
        <time>2018-07-15T09:26:55Z</time>
      </trkpt>
      <trkpt lat="47.2359" lon="6.05288">
        <ele>421.19</ele>
        <time>2018-07-15T09:26:57Z</time>
      </trkpt>
      <trkpt lat="47.23591" lon="6.05297">
        <ele>421.19</ele>
        <time>2018-07-15T09:26:58Z</time>
      </trkpt>
      <trkpt lat="47.23592" lon="6.05307">
        <ele>420.71</ele>
        <time>2018-07-15T09:26:59Z</time>
      </trkpt>
      <trkpt lat="47.23594" lon="6.05317">
        <ele>419.75</ele>
        <time>2018-07-15T09:27:00Z</time>
      </trkpt>
      <trkpt lat="47.23594" lon="6.05327">
        <ele>419.27</ele>
        <time>2018-07-15T09:27:01Z</time>
      </trkpt>
      <trkpt lat="47.23595" lon="6.05337">
        <ele>418.79</ele>
        <time>2018-07-15T09:27:02Z</time>
      </trkpt>
      <trkpt lat="47.23595" lon="6.05345">
        <ele>417.35</ele>
        <time>2018-07-15T09:27:03Z</time>
      </trkpt>
      <trkpt lat="47.23603" lon="6.05373">
        <ele>416.87</ele>
        <time>2018-07-15T09:27:06Z</time>
      </trkpt>
      <trkpt lat="47.23615" lon="6.05395">
        <ele>417.83</ele>
        <time>2018-07-15T09:27:09Z</time>
      </trkpt>
      <trkpt lat="47.23621" lon="6.05403">
        <ele>418.31</ele>
        <time>2018-07-15T09:27:10Z</time>
      </trkpt>
      <trkpt lat="47.23678" lon="6.05453">
        <ele>421.68</ele>
        <time>2018-07-15T09:27:20Z</time>
      </trkpt>
      <trkpt lat="47.23692" lon="6.05464">
        <ele>421.68</ele>
        <time>2018-07-15T09:27:22Z</time>
      </trkpt>
      <trkpt lat="47.23697" lon="6.05468">
        <ele>421.68</ele>
        <time>2018-07-15T09:27:23Z</time>
      </trkpt>
      <trkpt lat="47.23703" lon="6.05472">
        <ele>421.68</ele>
        <time>2018-07-15T09:27:24Z</time>
      </trkpt>
      <trkpt lat="47.23708" lon="6.05476">
        <ele>421.68</ele>
        <time>2018-07-15T09:27:25Z</time>
      </trkpt>
      <trkpt lat="47.23712" lon="6.0548">
        <ele>421.68</ele>
        <time>2018-07-15T09:27:26Z</time>
      </trkpt>
      <trkpt lat="47.23716" lon="6.05485">
        <ele>421.68</ele>
        <time>2018-07-15T09:27:27Z</time>
      </trkpt>
      <trkpt lat="47.2372" lon="6.0549">
        <ele>421.68</ele>
        <time>2018-07-15T09:27:28Z</time>
      </trkpt>
      <trkpt lat="47.2373" lon="6.05503">
        <ele>422.16</ele>
        <time>2018-07-15T09:27:31Z</time>
      </trkpt>
      <trkpt lat="47.23769" lon="6.05536">
        <ele>423.12</ele>
        <time>2018-07-15T09:27:42Z</time>
      </trkpt>
      <trkpt lat="47.23812" lon="6.05557">
        <ele>424.56</ele>
        <time>2018-07-15T09:27:55Z</time>
      </trkpt>
      <trkpt lat="47.23865" lon="6.05584">
        <ele>425.04</ele>
        <time>2018-07-15T09:28:08Z</time>
      </trkpt>
      <trkpt lat="47.23891" lon="6.05595">
        <ele>425.04</ele>
        <time>2018-07-15T09:28:14Z</time>
      </trkpt>
      <trkpt lat="47.23932" lon="6.05599">
        <ele>425.52</ele>
        <time>2018-07-15T09:28:23Z</time>
      </trkpt>
      <trkpt lat="47.23952" lon="6.05598">
        <ele>425.52</ele>
        <time>2018-07-15T09:28:27Z</time>
      </trkpt>
      <trkpt lat="47.23957" lon="6.05599">
        <ele>425.52</ele>
        <time>2018-07-15T09:28:28Z</time>
      </trkpt>
      <trkpt lat="47.23962" lon="6.056">
        <ele>425.52</ele>
        <time>2018-07-15T09:28:29Z</time>
      </trkpt>
      <trkpt lat="47.23967" lon="6.05601">
        <ele>425.04</ele>
        <time>2018-07-15T09:28:30Z</time>
      </trkpt>
      <trkpt lat="47.23971" lon="6.056">
        <ele>425.04</ele>
        <time>2018-07-15T09:28:31Z</time>
      </trkpt>
      <trkpt lat="47.23975" lon="6.056">
        <ele>424.56</ele>
        <time>2018-07-15T09:28:32Z</time>
      </trkpt>
      <trkpt lat="47.2398" lon="6.056">
        <ele>425.04</ele>
        <time>2018-07-15T09:28:33Z</time>
      </trkpt>
      <trkpt lat="47.23985" lon="6.05601">
        <ele>424.56</ele>
        <time>2018-07-15T09:28:34Z</time>
      </trkpt>
      <trkpt lat="47.23995" lon="6.05604">
        <ele>425.04</ele>
        <time>2018-07-15T09:28:36Z</time>
      </trkpt>
      <trkpt lat="47.24005" lon="6.05609">
        <ele>425.04</ele>
        <time>2018-07-15T09:28:38Z</time>
      </trkpt>
      <trkpt lat="47.2401" lon="6.05613">
        <ele>425.04</ele>
        <time>2018-07-15T09:28:39Z</time>
      </trkpt>
      <trkpt lat="47.24014" lon="6.05616">
        <ele>424.56</ele>
        <time>2018-07-15T09:28:40Z</time>
      </trkpt>
      <trkpt lat="47.24041" lon="6.05635">
        <ele>423.6</ele>
        <time>2018-07-15T09:28:46Z</time>
      </trkpt>
      <trkpt lat="47.24063" lon="6.05646">
        <ele>423.12</ele>
        <time>2018-07-15T09:28:50Z</time>
      </trkpt>
      <trkpt lat="47.24084" lon="6.05653">
        <ele>423.12</ele>
        <time>2018-07-15T09:28:54Z</time>
      </trkpt>
      <trkpt lat="47.24089" lon="6.05655">
        <ele>423.12</ele>
        <time>2018-07-15T09:28:55Z</time>
      </trkpt>
      <trkpt lat="47.24155" lon="6.05686">
        <ele>421.19</ele>
        <time>2018-07-15T09:29:07Z</time>
      </trkpt>
      <trkpt lat="47.24172" lon="6.05694">
        <ele>419.75</ele>
        <time>2018-07-15T09:29:10Z</time>
      </trkpt>
      <trkpt lat="47.2419" lon="6.05703">
        <ele>418.31</ele>
        <time>2018-07-15T09:29:13Z</time>
      </trkpt>
      <trkpt lat="47.24196" lon="6.05703">
        <ele>417.83</ele>
        <time>2018-07-15T09:29:14Z</time>
      </trkpt>
      <trkpt lat="47.24202" lon="6.05701">
        <ele>417.35</ele>
        <time>2018-07-15T09:29:15Z</time>
      </trkpt>
      <trkpt lat="47.24208" lon="6.057">
        <ele>416.87</ele>
        <time>2018-07-15T09:29:16Z</time>
      </trkpt>
      <trkpt lat="47.24214" lon="6.057">
        <ele>416.87</ele>
        <time>2018-07-15T09:29:17Z</time>
      </trkpt>
      <trkpt lat="47.2422" lon="6.05701">
        <ele>416.39</ele>
        <time>2018-07-15T09:29:18Z</time>
      </trkpt>
      <trkpt lat="47.24223" lon="6.05705">
        <ele>416.39</ele>
        <time>2018-07-15T09:29:19Z</time>
      </trkpt>
      <trkpt lat="47.24226" lon="6.05711">
        <ele>415.91</ele>
        <time>2018-07-15T09:29:20Z</time>
      </trkpt>
      <trkpt lat="47.24231" lon="6.05721">
        <ele>416.39</ele>
        <time>2018-07-15T09:29:22Z</time>
      </trkpt>
      <trkpt lat="47.24234" lon="6.05726">
        <ele>415.91</ele>
        <time>2018-07-15T09:29:23Z</time>
      </trkpt>
      <trkpt lat="47.24238" lon="6.0573">
        <ele>415.43</ele>
        <time>2018-07-15T09:29:24Z</time>
      </trkpt>
      <trkpt lat="47.24246" lon="6.05738">
        <ele>414.95</ele>
        <time>2018-07-15T09:29:26Z</time>
      </trkpt>
      <trkpt lat="47.2425" lon="6.05742">
        <ele>414.47</ele>
        <time>2018-07-15T09:29:27Z</time>
      </trkpt>
      <trkpt lat="47.24254" lon="6.05746">
        <ele>413.98</ele>
        <time>2018-07-15T09:29:28Z</time>
      </trkpt>
      <trkpt lat="47.24259" lon="6.0575">
        <ele>413.98</ele>
        <time>2018-07-15T09:29:29Z</time>
      </trkpt>
      <trkpt lat="47.24264" lon="6.05754">
        <ele>413.5</ele>
        <time>2018-07-15T09:29:30Z</time>
      </trkpt>
      <trkpt lat="47.243" lon="6.0578">
        <ele>411.58</ele>
        <time>2018-07-15T09:29:36Z</time>
      </trkpt>
      <trkpt lat="47.24349" lon="6.05816">
        <ele>408.22</ele>
        <time>2018-07-15T09:29:44Z</time>
      </trkpt>
      <trkpt lat="47.24358" lon="6.05824">
        <ele>407.74</ele>
        <time>2018-07-15T09:29:46Z</time>
      </trkpt>
      <trkpt lat="47.2436" lon="6.05829">
        <ele>407.74</ele>
        <time>2018-07-15T09:29:47Z</time>
      </trkpt>
      <trkpt lat="47.2436" lon="6.05833">
        <ele>408.22</ele>
        <time>2018-07-15T09:29:48Z</time>
      </trkpt>
      <trkpt lat="47.24361" lon="6.05836">
        <ele>407.74</ele>
        <time>2018-07-15T09:29:49Z</time>
      </trkpt>
      <trkpt lat="47.24362" lon="6.05839">
        <ele>407.74</ele>
        <time>2018-07-15T09:29:50Z</time>
      </trkpt>
      <trkpt lat="47.24363" lon="6.05842">
        <ele>407.74</ele>
        <time>2018-07-15T09:29:51Z</time>
      </trkpt>
      <trkpt lat="47.24366" lon="6.05845">
        <ele>406.77</ele>
        <time>2018-07-15T09:29:52Z</time>
      </trkpt>
      <trkpt lat="47.24369" lon="6.05847">
        <ele>406.29</ele>
        <time>2018-07-15T09:29:53Z</time>
      </trkpt>
      <trkpt lat="47.2438" lon="6.05854">
        <ele>403.89</ele>
        <time>2018-07-15T09:29:56Z</time>
      </trkpt>
      <trkpt lat="47.24383" lon="6.05859">
        <ele>402.93</ele>
        <time>2018-07-15T09:29:57Z</time>
      </trkpt>
      <trkpt lat="47.2439" lon="6.05865">
        <ele>401.97</ele>
        <time>2018-07-15T09:29:58Z</time>
      </trkpt>
      <trkpt lat="47.24397" lon="6.0587">
        <ele>401.97</ele>
        <time>2018-07-15T09:29:59Z</time>
      </trkpt>
      <trkpt lat="47.24403" lon="6.05874">
        <ele>401.49</ele>
        <time>2018-07-15T09:30:00Z</time>
      </trkpt>
      <trkpt lat="47.24409" lon="6.05878">
        <ele>401.01</ele>
        <time>2018-07-15T09:30:01Z</time>
      </trkpt>
      <trkpt lat="47.24431" lon="6.05895">
        <ele>398.6</ele>
        <time>2018-07-15T09:30:06Z</time>
      </trkpt>
      <trkpt lat="47.24437" lon="6.05902">
        <ele>398.6</ele>
        <time>2018-07-15T09:30:07Z</time>
      </trkpt>
      <trkpt lat="47.24454" lon="6.05918">
        <ele>398.12</ele>
        <time>2018-07-15T09:30:10Z</time>
      </trkpt>
      <trkpt lat="47.24458" lon="6.05921">
        <ele>397.64</ele>
        <time>2018-07-15T09:30:11Z</time>
      </trkpt>
      <trkpt lat="47.24469" lon="6.05927">
        <ele>398.6</ele>
        <time>2018-07-15T09:30:19Z</time>
      </trkpt>
      <trkpt lat="47.24476" lon="6.05933">
        <ele>397.64</ele>
        <time>2018-07-15T09:30:25Z</time>
      </trkpt>
      <trkpt lat="47.24478" lon="6.05935">
        <ele>397.16</ele>
        <time>2018-07-15T09:30:27Z</time>
      </trkpt>
      <trkpt lat="47.24499" lon="6.05944">
        <ele>395.24</ele>
        <time>2018-07-15T09:30:36Z</time>
      </trkpt>
      <trkpt lat="47.245" lon="6.05946">
        <ele>395.24</ele>
        <time>2018-07-15T09:30:37Z</time>
      </trkpt>
      <trkpt lat="47.24502" lon="6.05948">
        <ele>395.24</ele>
        <time>2018-07-15T09:30:38Z</time>
      </trkpt>
      <trkpt lat="47.24505" lon="6.05952">
        <ele>395.24</ele>
        <time>2018-07-15T09:30:40Z</time>
      </trkpt>
      <trkpt lat="47.24509" lon="6.05956">
        <ele>395.24</ele>
        <time>2018-07-15T09:30:43Z</time>
      </trkpt>
      <trkpt lat="47.2451" lon="6.05959">
        <ele>395.24</ele>
        <time>2018-07-15T09:30:44Z</time>
      </trkpt>
      <trkpt lat="47.24514" lon="6.05963">
        <ele>395.24</ele>
        <time>2018-07-15T09:30:47Z</time>
      </trkpt>
      <trkpt lat="47.24516" lon="6.05964">
        <ele>395.24</ele>
        <time>2018-07-15T09:30:48Z</time>
      </trkpt>
      <trkpt lat="47.24521" lon="6.05968">
        <ele>394.76</ele>
        <time>2018-07-15T09:30:54Z</time>
      </trkpt>
      <trkpt lat="47.24523" lon="6.05969">
        <ele>394.28</ele>
        <time>2018-07-15T09:30:55Z</time>
      </trkpt>
      <trkpt lat="47.24526" lon="6.0597">
        <ele>394.76</ele>
        <time>2018-07-15T09:30:56Z</time>
      </trkpt>
      <trkpt lat="47.24528" lon="6.05972">
        <ele>394.76</ele>
        <time>2018-07-15T09:30:57Z</time>
      </trkpt>
      <trkpt lat="47.24532" lon="6.05977">
        <ele>394.76</ele>
        <time>2018-07-15T09:31:00Z</time>
      </trkpt>
      <trkpt lat="47.24535" lon="6.0598">
        <ele>394.76</ele>
        <time>2018-07-15T09:31:02Z</time>
      </trkpt>
      <trkpt lat="47.24536" lon="6.05982">
        <ele>394.76</ele>
        <time>2018-07-15T09:31:03Z</time>
      </trkpt>
      <trkpt lat="47.24538" lon="6.05983">
        <ele>394.76</ele>
        <time>2018-07-15T09:31:04Z</time>
      </trkpt>
      <trkpt lat="47.2454" lon="6.05984">
        <ele>395.24</ele>
        <time>2018-07-15T09:31:05Z</time>
      </trkpt>
      <trkpt lat="47.24542" lon="6.05984">
        <ele>394.76</ele>
        <time>2018-07-15T09:31:06Z</time>
      </trkpt>
      <trkpt lat="47.24545" lon="6.05986">
        <ele>394.76</ele>
        <time>2018-07-15T09:31:07Z</time>
      </trkpt>
      <trkpt lat="47.24548" lon="6.05987">
        <ele>394.28</ele>
        <time>2018-07-15T09:31:08Z</time>
      </trkpt>
      <trkpt lat="47.2455" lon="6.0599">
        <ele>394.28</ele>
        <time>2018-07-15T09:31:09Z</time>
      </trkpt>
      <trkpt lat="47.24552" lon="6.05993">
        <ele>394.28</ele>
        <time>2018-07-15T09:31:10Z</time>
      </trkpt>
      <trkpt lat="47.24554" lon="6.05995">
        <ele>394.28</ele>
        <time>2018-07-15T09:31:11Z</time>
      </trkpt>
      <trkpt lat="47.24556" lon="6.05996">
        <ele>394.28</ele>
        <time>2018-07-15T09:31:12Z</time>
      </trkpt>
      <trkpt lat="47.24558" lon="6.05998">
        <ele>394.28</ele>
        <time>2018-07-15T09:31:13Z</time>
      </trkpt>
      <trkpt lat="47.24559" lon="6.06">
        <ele>394.28</ele>
        <time>2018-07-15T09:31:14Z</time>
      </trkpt>
      <trkpt lat="47.24561" lon="6.06003">
        <ele>394.28</ele>
        <time>2018-07-15T09:31:15Z</time>
      </trkpt>
      <trkpt lat="47.24562" lon="6.06005">
        <ele>394.28</ele>
        <time>2018-07-15T09:31:16Z</time>
      </trkpt>
      <trkpt lat="47.24564" lon="6.06009">
        <ele>394.28</ele>
        <time>2018-07-15T09:31:17Z</time>
      </trkpt>
      <trkpt lat="47.24567" lon="6.06012">
        <ele>394.28</ele>
        <time>2018-07-15T09:31:18Z</time>
      </trkpt>
      <trkpt lat="47.2457" lon="6.06015">
        <ele>394.76</ele>
        <time>2018-07-15T09:31:19Z</time>
      </trkpt>
      <trkpt lat="47.24572" lon="6.06018">
        <ele>394.28</ele>
        <time>2018-07-15T09:31:20Z</time>
      </trkpt>
      <trkpt lat="47.24578" lon="6.06026">
        <ele>394.76</ele>
        <time>2018-07-15T09:31:23Z</time>
      </trkpt>
      <trkpt lat="47.24581" lon="6.06029">
        <ele>394.28</ele>
        <time>2018-07-15T09:31:24Z</time>
      </trkpt>
      <trkpt lat="47.24598" lon="6.06045">
        <ele>393.8</ele>
        <time>2018-07-15T09:31:30Z</time>
      </trkpt>
      <trkpt lat="47.24599" lon="6.06049">
        <ele>394.28</ele>
        <time>2018-07-15T09:31:31Z</time>
      </trkpt>
      <trkpt lat="47.246" lon="6.06052">
        <ele>394.28</ele>
        <time>2018-07-15T09:31:32Z</time>
      </trkpt>
      <trkpt lat="47.24602" lon="6.06054">
        <ele>394.76</ele>
        <time>2018-07-15T09:31:33Z</time>
      </trkpt>
      <trkpt lat="47.24604" lon="6.06056">
        <ele>394.28</ele>
        <time>2018-07-15T09:31:34Z</time>
      </trkpt>
      <trkpt lat="47.24606" lon="6.06058">
        <ele>394.28</ele>
        <time>2018-07-15T09:31:35Z</time>
      </trkpt>
      <trkpt lat="47.24608" lon="6.0606">
        <ele>394.28</ele>
        <time>2018-07-15T09:31:36Z</time>
      </trkpt>
      <trkpt lat="47.2461" lon="6.06063">
        <ele>394.28</ele>
        <time>2018-07-15T09:31:37Z</time>
      </trkpt>
      <trkpt lat="47.24613" lon="6.06064">
        <ele>394.28</ele>
        <time>2018-07-15T09:31:38Z</time>
      </trkpt>
      <trkpt lat="47.24615" lon="6.06067">
        <ele>393.8</ele>
        <time>2018-07-15T09:31:39Z</time>
      </trkpt>
      <trkpt lat="47.24618" lon="6.0607">
        <ele>393.8</ele>
        <time>2018-07-15T09:31:40Z</time>
      </trkpt>
      <trkpt lat="47.2462" lon="6.06073">
        <ele>394.28</ele>
        <time>2018-07-15T09:31:41Z</time>
      </trkpt>
      <trkpt lat="47.24623" lon="6.06076">
        <ele>394.28</ele>
        <time>2018-07-15T09:31:42Z</time>
      </trkpt>
      <trkpt lat="47.24625" lon="6.06079">
        <ele>394.28</ele>
        <time>2018-07-15T09:31:43Z</time>
      </trkpt>
      <trkpt lat="47.24638" lon="6.06093">
        <ele>393.8</ele>
        <time>2018-07-15T09:31:48Z</time>
      </trkpt>
      <trkpt lat="47.24641" lon="6.06094">
        <ele>393.32</ele>
        <time>2018-07-15T09:31:49Z</time>
      </trkpt>
      <trkpt lat="47.24644" lon="6.06095">
        <ele>393.32</ele>
        <time>2018-07-15T09:31:50Z</time>
      </trkpt>
      <trkpt lat="47.24647" lon="6.06098">
        <ele>393.32</ele>
        <time>2018-07-15T09:31:51Z</time>
      </trkpt>
      <trkpt lat="47.2465" lon="6.06101">
        <ele>392.84</ele>
        <time>2018-07-15T09:31:52Z</time>
      </trkpt>
      <trkpt lat="47.24667" lon="6.06119">
        <ele>390.91</ele>
        <time>2018-07-15T09:31:58Z</time>
      </trkpt>
      <trkpt lat="47.24673" lon="6.06123">
        <ele>390.43</ele>
        <time>2018-07-15T09:31:59Z</time>
      </trkpt>
      <trkpt lat="47.24682" lon="6.06129">
        <ele>389.47</ele>
        <time>2018-07-15T09:32:01Z</time>
      </trkpt>
      <trkpt lat="47.24691" lon="6.06138">
        <ele>388.03</ele>
        <time>2018-07-15T09:32:04Z</time>
      </trkpt>
      <trkpt lat="47.24692" lon="6.06143">
        <ele>388.03</ele>
        <time>2018-07-15T09:32:05Z</time>
      </trkpt>
      <trkpt lat="47.24692" lon="6.06147">
        <ele>388.03</ele>
        <time>2018-07-15T09:32:06Z</time>
      </trkpt>
      <trkpt lat="47.24692" lon="6.0615">
        <ele>387.55</ele>
        <time>2018-07-15T09:32:07Z</time>
      </trkpt>
      <trkpt lat="47.24692" lon="6.06152">
        <ele>387.55</ele>
        <time>2018-07-15T09:32:08Z</time>
      </trkpt>
      <trkpt lat="47.24694" lon="6.06155">
        <ele>387.07</ele>
        <time>2018-07-15T09:32:09Z</time>
      </trkpt>
      <trkpt lat="47.24695" lon="6.06158">
        <ele>386.59</ele>
        <time>2018-07-15T09:32:10Z</time>
      </trkpt>
      <trkpt lat="47.24696" lon="6.06162">
        <ele>386.11</ele>
        <time>2018-07-15T09:32:11Z</time>
      </trkpt>
      <trkpt lat="47.24699" lon="6.06166">
        <ele>385.63</ele>
        <time>2018-07-15T09:32:12Z</time>
      </trkpt>
      <trkpt lat="47.24702" lon="6.0617">
        <ele>385.15</ele>
        <time>2018-07-15T09:32:13Z</time>
      </trkpt>
      <trkpt lat="47.24705" lon="6.06173">
        <ele>384.66</ele>
        <time>2018-07-15T09:32:14Z</time>
      </trkpt>
      <trkpt lat="47.2471" lon="6.06177">
        <ele>384.66</ele>
        <time>2018-07-15T09:32:15Z</time>
      </trkpt>
      <trkpt lat="47.24713" lon="6.0618">
        <ele>384.66</ele>
        <time>2018-07-15T09:32:16Z</time>
      </trkpt>
      <trkpt lat="47.24716" lon="6.06184">
        <ele>384.18</ele>
        <time>2018-07-15T09:32:17Z</time>
      </trkpt>
      <trkpt lat="47.24719" lon="6.06186">
        <ele>384.18</ele>
        <time>2018-07-15T09:32:18Z</time>
      </trkpt>
      <trkpt lat="47.24722" lon="6.06187">
        <ele>384.18</ele>
        <time>2018-07-15T09:32:19Z</time>
      </trkpt>
      <trkpt lat="47.24724" lon="6.06188">
        <ele>383.7</ele>
        <time>2018-07-15T09:32:20Z</time>
      </trkpt>
      <trkpt lat="47.24726" lon="6.06189">
        <ele>383.22</ele>
        <time>2018-07-15T09:32:21Z</time>
      </trkpt>
      <trkpt lat="47.24728" lon="6.06192">
        <ele>382.74</ele>
        <time>2018-07-15T09:32:22Z</time>
      </trkpt>
      <trkpt lat="47.24729" lon="6.06195">
        <ele>382.26</ele>
        <time>2018-07-15T09:32:23Z</time>
      </trkpt>
      <trkpt lat="47.24731" lon="6.06199">
        <ele>382.26</ele>
        <time>2018-07-15T09:32:24Z</time>
      </trkpt>
      <trkpt lat="47.24734" lon="6.06203">
        <ele>382.26</ele>
        <time>2018-07-15T09:32:25Z</time>
      </trkpt>
      <trkpt lat="47.2474" lon="6.06207">
        <ele>381.78</ele>
        <time>2018-07-15T09:32:26Z</time>
      </trkpt>
      <trkpt lat="47.24744" lon="6.06209">
        <ele>382.26</ele>
        <time>2018-07-15T09:32:27Z</time>
      </trkpt>
      <trkpt lat="47.24748" lon="6.06211">
        <ele>382.26</ele>
        <time>2018-07-15T09:32:28Z</time>
      </trkpt>
      <trkpt lat="47.24752" lon="6.06213">
        <ele>382.26</ele>
        <time>2018-07-15T09:32:29Z</time>
      </trkpt>
      <trkpt lat="47.2477" lon="6.06222">
        <ele>379.86</ele>
        <time>2018-07-15T09:32:33Z</time>
      </trkpt>
      <trkpt lat="47.24776" lon="6.06225">
        <ele>378.9</ele>
        <time>2018-07-15T09:32:34Z</time>
      </trkpt>
      <trkpt lat="47.24797" lon="6.06237">
        <ele>375.53</ele>
        <time>2018-07-15T09:32:37Z</time>
      </trkpt>
      <trkpt lat="47.24804" lon="6.06241">
        <ele>375.05</ele>
        <time>2018-07-15T09:32:38Z</time>
      </trkpt>
      <trkpt lat="47.24812" lon="6.06242">
        <ele>375.05</ele>
        <time>2018-07-15T09:32:39Z</time>
      </trkpt>
      <trkpt lat="47.2482" lon="6.0624">
        <ele>373.61</ele>
        <time>2018-07-15T09:32:40Z</time>
      </trkpt>
      <trkpt lat="47.24837" lon="6.06231">
        <ele>370.24</ele>
        <time>2018-07-15T09:32:42Z</time>
      </trkpt>
      <trkpt lat="47.24866" lon="6.06216">
        <ele>365.92</ele>
        <time>2018-07-15T09:32:45Z</time>
      </trkpt>
      <trkpt lat="47.24891" lon="6.06202">
        <ele>362.55</ele>
        <time>2018-07-15T09:32:48Z</time>
      </trkpt>
      <trkpt lat="47.24905" lon="6.06195">
        <ele>361.59</ele>
        <time>2018-07-15T09:32:50Z</time>
      </trkpt>
      <trkpt lat="47.2491" lon="6.06194">
        <ele>361.59</ele>
        <time>2018-07-15T09:32:51Z</time>
      </trkpt>
      <trkpt lat="47.24916" lon="6.06196">
        <ele>361.59</ele>
        <time>2018-07-15T09:32:52Z</time>
      </trkpt>
      <trkpt lat="47.24921" lon="6.062">
        <ele>361.59</ele>
        <time>2018-07-15T09:32:53Z</time>
      </trkpt>
      <trkpt lat="47.24925" lon="6.06206">
        <ele>361.11</ele>
        <time>2018-07-15T09:32:54Z</time>
      </trkpt>
      <trkpt lat="47.24983" lon="6.06268">
        <ele>361.11</ele>
        <time>2018-07-15T09:33:06Z</time>
      </trkpt>
      <trkpt lat="47.25005" lon="6.06292">
        <ele>362.55</ele>
        <time>2018-07-15T09:33:12Z</time>
      </trkpt>
      <trkpt lat="47.25021" lon="6.06302">
        <ele>363.04</ele>
        <time>2018-07-15T09:33:16Z</time>
      </trkpt>
      <trkpt lat="47.25025" lon="6.06306">
        <ele>363.52</ele>
        <time>2018-07-15T09:33:17Z</time>
      </trkpt>
      <trkpt lat="47.25038" lon="6.06331">
        <ele>364.48</ele>
        <time>2018-07-15T09:33:22Z</time>
      </trkpt>
      <trkpt lat="47.25088" lon="6.06406">
        <ele>363.52</ele>
        <time>2018-07-15T09:33:37Z</time>
      </trkpt>
      <trkpt lat="47.25134" lon="6.06432">
        <ele>365.92</ele>
        <time>2018-07-15T09:33:49Z</time>
      </trkpt>
      <trkpt lat="47.25181" lon="6.0645">
        <ele>367.36</ele>
        <time>2018-07-15T09:34:01Z</time>
      </trkpt>
      <trkpt lat="47.25231" lon="6.06477">
        <ele>363.52</ele>
        <time>2018-07-15T09:34:11Z</time>
      </trkpt>
      <trkpt lat="47.25251" lon="6.06488">
        <ele>361.59</ele>
        <time>2018-07-15T09:34:14Z</time>
      </trkpt>
      <trkpt lat="47.25258" lon="6.0649">
        <ele>360.63</ele>
        <time>2018-07-15T09:34:15Z</time>
      </trkpt>
      <trkpt lat="47.25265" lon="6.06488">
        <ele>360.15</ele>
        <time>2018-07-15T09:34:16Z</time>
      </trkpt>
      <trkpt lat="47.25272" lon="6.06484">
        <ele>359.67</ele>
        <time>2018-07-15T09:34:17Z</time>
      </trkpt>
      <trkpt lat="47.25279" lon="6.06478">
        <ele>359.19</ele>
        <time>2018-07-15T09:34:18Z</time>
      </trkpt>
      <trkpt lat="47.25286" lon="6.06471">
        <ele>358.71</ele>
        <time>2018-07-15T09:34:19Z</time>
      </trkpt>
      <trkpt lat="47.25311" lon="6.06439">
        <ele>355.34</ele>
        <time>2018-07-15T09:34:23Z</time>
      </trkpt>
      <trkpt lat="47.25316" lon="6.06434">
        <ele>355.34</ele>
        <time>2018-07-15T09:34:24Z</time>
      </trkpt>
      <trkpt lat="47.25321" lon="6.0643">
        <ele>355.34</ele>
        <time>2018-07-15T09:34:25Z</time>
      </trkpt>
      <trkpt lat="47.25326" lon="6.0643">
        <ele>355.34</ele>
        <time>2018-07-15T09:34:26Z</time>
      </trkpt>
      <trkpt lat="47.2533" lon="6.06432">
        <ele>354.86</ele>
        <time>2018-07-15T09:34:27Z</time>
      </trkpt>
      <trkpt lat="47.25334" lon="6.06437">
        <ele>354.86</ele>
        <time>2018-07-15T09:34:28Z</time>
      </trkpt>
      <trkpt lat="47.25338" lon="6.06443">
        <ele>354.86</ele>
        <time>2018-07-15T09:34:29Z</time>
      </trkpt>
      <trkpt lat="47.25342" lon="6.06449">
        <ele>354.38</ele>
        <time>2018-07-15T09:34:30Z</time>
      </trkpt>
      <trkpt lat="47.25354" lon="6.06466">
        <ele>353.9</ele>
        <time>2018-07-15T09:34:34Z</time>
      </trkpt>
      <trkpt lat="47.25357" lon="6.06466">
        <ele>353.9</ele>
        <time>2018-07-15T09:34:35Z</time>
      </trkpt>
      <trkpt lat="47.25359" lon="6.06465">
        <ele>354.38</ele>
        <time>2018-07-15T09:34:36Z</time>
      </trkpt>
      <trkpt lat="47.25362" lon="6.06464">
        <ele>353.9</ele>
        <time>2018-07-15T09:34:37Z</time>
      </trkpt>
      <trkpt lat="47.25364" lon="6.06463">
        <ele>353.9</ele>
        <time>2018-07-15T09:34:38Z</time>
      </trkpt>
      <trkpt lat="47.25367" lon="6.06461">
        <ele>353.9</ele>
        <time>2018-07-15T09:34:39Z</time>
      </trkpt>
      <trkpt lat="47.25399" lon="6.0643">
        <ele>352.46</ele>
        <time>2018-07-15T09:34:50Z</time>
      </trkpt>
      <trkpt lat="47.25424" lon="6.06402">
        <ele>351.98</ele>
        <time>2018-07-15T09:34:58Z</time>
      </trkpt>
      <trkpt lat="47.25427" lon="6.06398">
        <ele>351.5</ele>
        <time>2018-07-15T09:34:59Z</time>
      </trkpt>
      <trkpt lat="47.25431" lon="6.06394">
        <ele>351.5</ele>
        <time>2018-07-15T09:35:00Z</time>
      </trkpt>
      <trkpt lat="47.25435" lon="6.06391">
        <ele>351.5</ele>
        <time>2018-07-15T09:35:01Z</time>
      </trkpt>
      <trkpt lat="47.25438" lon="6.06388">
        <ele>351.02</ele>
        <time>2018-07-15T09:35:02Z</time>
      </trkpt>
      <trkpt lat="47.25442" lon="6.06384">
        <ele>351.02</ele>
        <time>2018-07-15T09:35:03Z</time>
      </trkpt>
      <trkpt lat="47.25455" lon="6.06368">
        <ele>351.02</ele>
        <time>2018-07-15T09:35:07Z</time>
      </trkpt>
      <trkpt lat="47.25473" lon="6.06345">
        <ele>351.02</ele>
        <time>2018-07-15T09:35:14Z</time>
      </trkpt>
      <trkpt lat="47.25475" lon="6.0634">
        <ele>351.02</ele>
        <time>2018-07-15T09:35:15Z</time>
      </trkpt>
      <trkpt lat="47.25477" lon="6.06335">
        <ele>351.02</ele>
        <time>2018-07-15T09:35:16Z</time>
      </trkpt>
      <trkpt lat="47.25479" lon="6.06331">
        <ele>351.02</ele>
        <time>2018-07-15T09:35:17Z</time>
      </trkpt>
      <trkpt lat="47.25482" lon="6.06329">
        <ele>351.5</ele>
        <time>2018-07-15T09:35:18Z</time>
      </trkpt>
      <trkpt lat="47.25503" lon="6.06297">
        <ele>351.5</ele>
        <time>2018-07-15T09:35:27Z</time>
      </trkpt>
      <trkpt lat="47.25505" lon="6.06293">
        <ele>351.02</ele>
        <time>2018-07-15T09:35:28Z</time>
      </trkpt>
      <trkpt lat="47.25506" lon="6.06289">
        <ele>351.02</ele>
        <time>2018-07-15T09:35:29Z</time>
      </trkpt>
      <trkpt lat="47.25506" lon="6.06285">
        <ele>351.02</ele>
        <time>2018-07-15T09:35:30Z</time>
      </trkpt>
      <trkpt lat="47.25507" lon="6.0628">
        <ele>351.02</ele>
        <time>2018-07-15T09:35:31Z</time>
      </trkpt>
      <trkpt lat="47.25506" lon="6.06276">
        <ele>351.02</ele>
        <time>2018-07-15T09:35:32Z</time>
      </trkpt>
      <trkpt lat="47.25495" lon="6.06232">
        <ele>351.5</ele>
        <time>2018-07-15T09:35:41Z</time>
      </trkpt>
      <trkpt lat="47.25492" lon="6.06227">
        <ele>351.02</ele>
        <time>2018-07-15T09:35:42Z</time>
      </trkpt>
      <trkpt lat="47.2549" lon="6.06223">
        <ele>351.5</ele>
        <time>2018-07-15T09:35:43Z</time>
      </trkpt>
      <trkpt lat="47.25488" lon="6.06219">
        <ele>351.5</ele>
        <time>2018-07-15T09:35:44Z</time>
      </trkpt>
      <trkpt lat="47.25485" lon="6.06215">
        <ele>351.5</ele>
        <time>2018-07-15T09:35:45Z</time>
      </trkpt>
      <trkpt lat="47.25483" lon="6.06211">
        <ele>351.5</ele>
        <time>2018-07-15T09:35:46Z</time>
      </trkpt>
      <trkpt lat="47.25481" lon="6.06208">
        <ele>351.98</ele>
        <time>2018-07-15T09:35:47Z</time>
      </trkpt>
      <trkpt lat="47.2548" lon="6.06204">
        <ele>351.98</ele>
        <time>2018-07-15T09:35:48Z</time>
      </trkpt>
      <trkpt lat="47.25478" lon="6.06201">
        <ele>351.98</ele>
        <time>2018-07-15T09:35:49Z</time>
      </trkpt>
      <trkpt lat="47.25475" lon="6.06198">
        <ele>351.98</ele>
        <time>2018-07-15T09:35:50Z</time>
      </trkpt>
      <trkpt lat="47.25472" lon="6.06194">
        <ele>351.98</ele>
        <time>2018-07-15T09:35:51Z</time>
      </trkpt>
      <trkpt lat="47.2547" lon="6.0619">
        <ele>351.98</ele>
        <time>2018-07-15T09:35:52Z</time>
      </trkpt>
      <trkpt lat="47.25468" lon="6.06185">
        <ele>351.98</ele>
        <time>2018-07-15T09:35:53Z</time>
      </trkpt>
      <trkpt lat="47.25467" lon="6.06181">
        <ele>351.98</ele>
        <time>2018-07-15T09:35:54Z</time>
      </trkpt>
      <trkpt lat="47.25464" lon="6.06176">
        <ele>351.5</ele>
        <time>2018-07-15T09:35:55Z</time>
      </trkpt>
      <trkpt lat="47.25462" lon="6.06171">
        <ele>351.5</ele>
        <time>2018-07-15T09:35:56Z</time>
      </trkpt>
      <trkpt lat="47.2546" lon="6.06167">
        <ele>351.5</ele>
        <time>2018-07-15T09:35:57Z</time>
      </trkpt>
      <trkpt lat="47.2545" lon="6.0615">
        <ele>351.98</ele>
        <time>2018-07-15T09:36:01Z</time>
      </trkpt>
      <trkpt lat="47.25448" lon="6.06145">
        <ele>351.5</ele>
        <time>2018-07-15T09:36:02Z</time>
      </trkpt>
      <trkpt lat="47.25438" lon="6.06129">
        <ele>351.5</ele>
        <time>2018-07-15T09:36:06Z</time>
      </trkpt>
      <trkpt lat="47.25438" lon="6.06124">
        <ele>351.5</ele>
        <time>2018-07-15T09:36:07Z</time>
      </trkpt>
      <trkpt lat="47.25438" lon="6.0612">
        <ele>351.5</ele>
        <time>2018-07-15T09:36:08Z</time>
      </trkpt>
      <trkpt lat="47.25439" lon="6.06117">
        <ele>351.5</ele>
        <time>2018-07-15T09:36:09Z</time>
      </trkpt>
      <trkpt lat="47.25441" lon="6.06114">
        <ele>351.5</ele>
        <time>2018-07-15T09:36:10Z</time>
      </trkpt>
      <trkpt lat="47.25442" lon="6.06113">
        <ele>351.5</ele>
        <time>2018-07-15T09:36:11Z</time>
      </trkpt>
      <trkpt lat="47.2545" lon="6.06104">
        <ele>351.5</ele>
        <time>2018-07-15T09:36:16Z</time>
      </trkpt>
      <trkpt lat="47.25455" lon="6.06103">
        <ele>351.98</ele>
        <time>2018-07-15T09:36:19Z</time>
      </trkpt>
      <trkpt lat="47.25463" lon="6.06087">
        <ele>351.5</ele>
        <time>2018-07-15T09:36:25Z</time>
      </trkpt>
      <trkpt lat="47.25464" lon="6.06076">
        <ele>351.98</ele>
        <time>2018-07-15T09:36:29Z</time>
      </trkpt>
      <trkpt lat="47.25462" lon="6.06062">
        <ele>352.46</ele>
        <time>2018-07-15T09:36:35Z</time>
      </trkpt>
      <trkpt lat="47.25462" lon="6.06035">
        <ele>352.46</ele>
        <time>2018-07-15T09:36:41Z</time>
      </trkpt>
      <trkpt lat="47.25473" lon="6.06004">
        <ele>352.94</ele>
        <time>2018-07-15T09:36:48Z</time>
      </trkpt>
      <trkpt lat="47.25492" lon="6.05984">
        <ele>352.94</ele>
        <time>2018-07-15T09:36:55Z</time>
      </trkpt>
      <trkpt lat="47.25505" lon="6.05957">
        <ele>352.94</ele>
        <time>2018-07-15T09:37:00Z</time>
      </trkpt>
      <trkpt lat="47.25515" lon="6.05934">
        <ele>353.42</ele>
        <time>2018-07-15T09:37:05Z</time>
      </trkpt>
      <trkpt lat="47.25523" lon="6.05924">
        <ele>353.42</ele>
        <time>2018-07-15T09:37:08Z</time>
      </trkpt>
      <trkpt lat="47.25538" lon="6.05909">
        <ele>353.42</ele>
        <time>2018-07-15T09:37:13Z</time>
      </trkpt>
      <trkpt lat="47.25575" lon="6.05849">
        <ele>353.42</ele>
        <time>2018-07-15T09:37:22Z</time>
      </trkpt>
      <trkpt lat="47.25585" lon="6.05828">
        <ele>353.9</ele>
        <time>2018-07-15T09:37:26Z</time>
      </trkpt>
      <trkpt lat="47.25604" lon="6.05804">
        <ele>354.38</ele>
        <time>2018-07-15T09:37:32Z</time>
      </trkpt>
      <trkpt lat="47.25613" lon="6.05795">
        <ele>354.38</ele>
        <time>2018-07-15T09:37:34Z</time>
      </trkpt>
      <trkpt lat="47.25617" lon="6.05792">
        <ele>354.38</ele>
        <time>2018-07-15T09:37:35Z</time>
      </trkpt>
      <trkpt lat="47.25623" lon="6.05786">
        <ele>354.38</ele>
        <time>2018-07-15T09:37:36Z</time>
      </trkpt>
      <trkpt lat="47.25629" lon="6.05782">
        <ele>354.38</ele>
        <time>2018-07-15T09:37:37Z</time>
      </trkpt>
      <trkpt lat="47.25635" lon="6.05777">
        <ele>354.38</ele>
        <time>2018-07-15T09:37:38Z</time>
      </trkpt>
      <trkpt lat="47.25641" lon="6.05773">
        <ele>354.38</ele>
        <time>2018-07-15T09:37:39Z</time>
      </trkpt>
      <trkpt lat="47.25645" lon="6.05771">
        <ele>354.38</ele>
        <time>2018-07-15T09:37:40Z</time>
      </trkpt>
      <trkpt lat="47.2566" lon="6.05761">
        <ele>354.38</ele>
        <time>2018-07-15T09:37:43Z</time>
      </trkpt>
      <trkpt lat="47.25665" lon="6.05757">
        <ele>354.38</ele>
        <time>2018-07-15T09:37:44Z</time>
      </trkpt>
      <trkpt lat="47.25668" lon="6.05756">
        <ele>354.38</ele>
        <time>2018-07-15T09:37:45Z</time>
      </trkpt>
      <trkpt lat="47.2567" lon="6.05755">
        <ele>354.38</ele>
        <time>2018-07-15T09:37:46Z</time>
      </trkpt>
      <trkpt lat="47.25676" lon="6.05752">
        <ele>354.38</ele>
        <time>2018-07-15T09:37:47Z</time>
      </trkpt>
      <trkpt lat="47.25679" lon="6.05748">
        <ele>354.38</ele>
        <time>2018-07-15T09:37:48Z</time>
      </trkpt>
      <trkpt lat="47.25681" lon="6.05746">
        <ele>354.38</ele>
        <time>2018-07-15T09:37:49Z</time>
      </trkpt>
      <trkpt lat="47.25683" lon="6.05742">
        <ele>354.38</ele>
        <time>2018-07-15T09:37:50Z</time>
      </trkpt>
      <trkpt lat="47.25695" lon="6.05719">
        <ele>355.34</ele>
        <time>2018-07-15T09:37:56Z</time>
      </trkpt>
      <trkpt lat="47.25698" lon="6.05715">
        <ele>355.34</ele>
        <time>2018-07-15T09:37:57Z</time>
      </trkpt>
      <trkpt lat="47.257" lon="6.05711">
        <ele>355.83</ele>
        <time>2018-07-15T09:37:58Z</time>
      </trkpt>
      <trkpt lat="47.25703" lon="6.05708">
        <ele>355.83</ele>
        <time>2018-07-15T09:37:59Z</time>
      </trkpt>
      <trkpt lat="47.25706" lon="6.05704">
        <ele>355.83</ele>
        <time>2018-07-15T09:38:00Z</time>
      </trkpt>
      <trkpt lat="47.25709" lon="6.05699">
        <ele>355.83</ele>
        <time>2018-07-15T09:38:01Z</time>
      </trkpt>
      <trkpt lat="47.25711" lon="6.05694">
        <ele>356.31</ele>
        <time>2018-07-15T09:38:02Z</time>
      </trkpt>
      <trkpt lat="47.25713" lon="6.0569">
        <ele>356.31</ele>
        <time>2018-07-15T09:38:03Z</time>
      </trkpt>
      <trkpt lat="47.25716" lon="6.05686">
        <ele>356.31</ele>
        <time>2018-07-15T09:38:04Z</time>
      </trkpt>
      <trkpt lat="47.2572" lon="6.05681">
        <ele>356.31</ele>
        <time>2018-07-15T09:38:05Z</time>
      </trkpt>
      <trkpt lat="47.25727" lon="6.05671">
        <ele>356.79</ele>
        <time>2018-07-15T09:38:07Z</time>
      </trkpt>
      <trkpt lat="47.2573" lon="6.05667">
        <ele>356.79</ele>
        <time>2018-07-15T09:38:08Z</time>
      </trkpt>
      <trkpt lat="47.25733" lon="6.05663">
        <ele>356.79</ele>
        <time>2018-07-15T09:38:09Z</time>
      </trkpt>
      <trkpt lat="47.25737" lon="6.05659">
        <ele>356.79</ele>
        <time>2018-07-15T09:38:10Z</time>
      </trkpt>
      <trkpt lat="47.2574" lon="6.05653">
        <ele>356.79</ele>
        <time>2018-07-15T09:38:11Z</time>
      </trkpt>
      <trkpt lat="47.25743" lon="6.05648">
        <ele>357.27</ele>
        <time>2018-07-15T09:38:12Z</time>
      </trkpt>
      <trkpt lat="47.25747" lon="6.05642">
        <ele>357.27</ele>
        <time>2018-07-15T09:38:13Z</time>
      </trkpt>
      <trkpt lat="47.25752" lon="6.05637">
        <ele>357.27</ele>
        <time>2018-07-15T09:38:14Z</time>
      </trkpt>
      <trkpt lat="47.25758" lon="6.05631">
        <ele>356.79</ele>
        <time>2018-07-15T09:38:15Z</time>
      </trkpt>
      <trkpt lat="47.25786" lon="6.05609">
        <ele>357.27</ele>
        <time>2018-07-15T09:38:22Z</time>
      </trkpt>
      <trkpt lat="47.25791" lon="6.05605">
        <ele>357.27</ele>
        <time>2018-07-15T09:38:23Z</time>
      </trkpt>
      <trkpt lat="47.25797" lon="6.05599">
        <ele>357.27</ele>
        <time>2018-07-15T09:38:24Z</time>
      </trkpt>
      <trkpt lat="47.25801" lon="6.05594">
        <ele>357.27</ele>
        <time>2018-07-15T09:38:25Z</time>
      </trkpt>
      <trkpt lat="47.25805" lon="6.05589">
        <ele>357.75</ele>
        <time>2018-07-15T09:38:26Z</time>
      </trkpt>
      <trkpt lat="47.25809" lon="6.05584">
        <ele>357.75</ele>
        <time>2018-07-15T09:38:27Z</time>
      </trkpt>
      <trkpt lat="47.25812" lon="6.0558">
        <ele>357.75</ele>
        <time>2018-07-15T09:38:28Z</time>
      </trkpt>
      <trkpt lat="47.25816" lon="6.05576">
        <ele>358.23</ele>
        <time>2018-07-15T09:38:29Z</time>
      </trkpt>
      <trkpt lat="47.25819" lon="6.05573">
        <ele>357.75</ele>
        <time>2018-07-15T09:38:30Z</time>
      </trkpt>
      <trkpt lat="47.25822" lon="6.0557">
        <ele>358.23</ele>
        <time>2018-07-15T09:38:31Z</time>
      </trkpt>
      <trkpt lat="47.25825" lon="6.05567">
        <ele>358.23</ele>
        <time>2018-07-15T09:38:32Z</time>
      </trkpt>
      <trkpt lat="47.25828" lon="6.05565">
        <ele>358.23</ele>
        <time>2018-07-15T09:38:33Z</time>
      </trkpt>
      <trkpt lat="47.25832" lon="6.05563">
        <ele>358.71</ele>
        <time>2018-07-15T09:38:34Z</time>
      </trkpt>
      <trkpt lat="47.25835" lon="6.05559">
        <ele>358.71</ele>
        <time>2018-07-15T09:38:35Z</time>
      </trkpt>
      <trkpt lat="47.25842" lon="6.05548">
        <ele>359.19</ele>
        <time>2018-07-15T09:38:38Z</time>
      </trkpt>
      <trkpt lat="47.25842" lon="6.05543">
        <ele>359.67</ele>
        <time>2018-07-15T09:38:39Z</time>
      </trkpt>
      <trkpt lat="47.25842" lon="6.05539">
        <ele>359.67</ele>
        <time>2018-07-15T09:38:40Z</time>
      </trkpt>
      <trkpt lat="47.25843" lon="6.05535">
        <ele>359.67</ele>
        <time>2018-07-15T09:38:41Z</time>
      </trkpt>
      <trkpt lat="47.25843" lon="6.05532">
        <ele>359.67</ele>
        <time>2018-07-15T09:38:42Z</time>
      </trkpt>
      <trkpt lat="47.25844" lon="6.05529">
        <ele>360.15</ele>
        <time>2018-07-15T09:38:43Z</time>
      </trkpt>
      <trkpt lat="47.25844" lon="6.05524">
        <ele>359.67</ele>
        <time>2018-07-15T09:38:46Z</time>
      </trkpt>
      <trkpt lat="47.25839" lon="6.05509">
        <ele>359.67</ele>
        <time>2018-07-15T09:38:50Z</time>
      </trkpt>
      <trkpt lat="47.2584" lon="6.05503">
        <ele>359.67</ele>
        <time>2018-07-15T09:38:51Z</time>
      </trkpt>
      <trkpt lat="47.25842" lon="6.05498">
        <ele>359.67</ele>
        <time>2018-07-15T09:38:52Z</time>
      </trkpt>
      <trkpt lat="47.25843" lon="6.05492">
        <ele>360.15</ele>
        <time>2018-07-15T09:38:53Z</time>
      </trkpt>
      <trkpt lat="47.25844" lon="6.05487">
        <ele>360.15</ele>
        <time>2018-07-15T09:38:54Z</time>
      </trkpt>
      <trkpt lat="47.25845" lon="6.05481">
        <ele>360.15</ele>
        <time>2018-07-15T09:38:55Z</time>
      </trkpt>
      <trkpt lat="47.25847" lon="6.05476">
        <ele>359.67</ele>
        <time>2018-07-15T09:38:56Z</time>
      </trkpt>
      <trkpt lat="47.25849" lon="6.05471">
        <ele>359.67</ele>
        <time>2018-07-15T09:38:57Z</time>
      </trkpt>
      <trkpt lat="47.25851" lon="6.05465">
        <ele>359.67</ele>
        <time>2018-07-15T09:38:58Z</time>
      </trkpt>
      <trkpt lat="47.25853" lon="6.05458">
        <ele>359.67</ele>
        <time>2018-07-15T09:38:59Z</time>
      </trkpt>
      <trkpt lat="47.25861" lon="6.05431">
        <ele>360.63</ele>
        <time>2018-07-15T09:39:03Z</time>
      </trkpt>
      <trkpt lat="47.25862" lon="6.05424">
        <ele>362.07</ele>
        <time>2018-07-15T09:39:04Z</time>
      </trkpt>
      <trkpt lat="47.25875" lon="6.05335">
        <ele>359.19</ele>
        <time>2018-07-15T09:39:16Z</time>
      </trkpt>
      <trkpt lat="47.25878" lon="6.05317">
        <ele>358.23</ele>
        <time>2018-07-15T09:39:18Z</time>
      </trkpt>
      <trkpt lat="47.2588" lon="6.05307">
        <ele>357.75</ele>
        <time>2018-07-15T09:39:19Z</time>
      </trkpt>
      <trkpt lat="47.25883" lon="6.05298">
        <ele>357.27</ele>
        <time>2018-07-15T09:39:20Z</time>
      </trkpt>
      <trkpt lat="47.25886" lon="6.05289">
        <ele>356.79</ele>
        <time>2018-07-15T09:39:21Z</time>
      </trkpt>
      <trkpt lat="47.25889" lon="6.05279">
        <ele>355.83</ele>
        <time>2018-07-15T09:39:22Z</time>
      </trkpt>
      <trkpt lat="47.25893" lon="6.05269">
        <ele>355.34</ele>
        <time>2018-07-15T09:39:23Z</time>
      </trkpt>
      <trkpt lat="47.25903" lon="6.05248">
        <ele>353.9</ele>
        <time>2018-07-15T09:39:25Z</time>
      </trkpt>
      <trkpt lat="47.25909" lon="6.05239">
        <ele>352.94</ele>
        <time>2018-07-15T09:39:26Z</time>
      </trkpt>
      <trkpt lat="47.25917" lon="6.05231">
        <ele>352.46</ele>
        <time>2018-07-15T09:39:27Z</time>
      </trkpt>
      <trkpt lat="47.25925" lon="6.05226">
        <ele>351.02</ele>
        <time>2018-07-15T09:39:28Z</time>
      </trkpt>
      <trkpt lat="47.25935" lon="6.05222">
        <ele>350.54</ele>
        <time>2018-07-15T09:39:29Z</time>
      </trkpt>
      <trkpt lat="47.25944" lon="6.05218">
        <ele>349.58</ele>
        <time>2018-07-15T09:39:30Z</time>
      </trkpt>
      <trkpt lat="47.25993" lon="6.05203">
        <ele>346.21</ele>
        <time>2018-07-15T09:39:35Z</time>
      </trkpt>
      <trkpt lat="47.26014" lon="6.05201">
        <ele>344.29</ele>
        <time>2018-07-15T09:39:37Z</time>
      </trkpt>
      <trkpt lat="47.26025" lon="6.05204">
        <ele>343.81</ele>
        <time>2018-07-15T09:39:38Z</time>
      </trkpt>
      <trkpt lat="47.26066" lon="6.05216">
        <ele>341.89</ele>
        <time>2018-07-15T09:39:42Z</time>
      </trkpt>
      <trkpt lat="47.26074" lon="6.05214">
        <ele>341.89</ele>
        <time>2018-07-15T09:39:43Z</time>
      </trkpt>
      <trkpt lat="47.2608" lon="6.05207">
        <ele>341.89</ele>
        <time>2018-07-15T09:39:44Z</time>
      </trkpt>
      <trkpt lat="47.26084" lon="6.05198">
        <ele>341.41</ele>
        <time>2018-07-15T09:39:45Z</time>
      </trkpt>
      <trkpt lat="47.26085" lon="6.05187">
        <ele>340.44</ele>
        <time>2018-07-15T09:39:46Z</time>
      </trkpt>
      <trkpt lat="47.26081" lon="6.05178">
        <ele>339.48</ele>
        <time>2018-07-15T09:39:47Z</time>
      </trkpt>
      <trkpt lat="47.26076" lon="6.05171">
        <ele>339</ele>
        <time>2018-07-15T09:39:48Z</time>
      </trkpt>
      <trkpt lat="47.26068" lon="6.05167">
        <ele>338.04</ele>
        <time>2018-07-15T09:39:49Z</time>
      </trkpt>
      <trkpt lat="47.26059" lon="6.05167">
        <ele>337.56</ele>
        <time>2018-07-15T09:39:50Z</time>
      </trkpt>
      <trkpt lat="47.2605" lon="6.05166">
        <ele>337.08</ele>
        <time>2018-07-15T09:39:51Z</time>
      </trkpt>
      <trkpt lat="47.26042" lon="6.05161">
        <ele>336.6</ele>
        <time>2018-07-15T09:39:52Z</time>
      </trkpt>
      <trkpt lat="47.26036" lon="6.05154">
        <ele>336.12</ele>
        <time>2018-07-15T09:39:53Z</time>
      </trkpt>
      <trkpt lat="47.26034" lon="6.05144">
        <ele>335.16</ele>
        <time>2018-07-15T09:39:54Z</time>
      </trkpt>
      <trkpt lat="47.26035" lon="6.05135">
        <ele>334.68</ele>
        <time>2018-07-15T09:39:55Z</time>
      </trkpt>
      <trkpt lat="47.2604" lon="6.05127">
        <ele>333.71</ele>
        <time>2018-07-15T09:39:56Z</time>
      </trkpt>
      <trkpt lat="47.26047" lon="6.05123">
        <ele>333.23</ele>
        <time>2018-07-15T09:39:57Z</time>
      </trkpt>
      <trkpt lat="47.26055" lon="6.05123">
        <ele>332.75</ele>
        <time>2018-07-15T09:39:58Z</time>
      </trkpt>
      <trkpt lat="47.26063" lon="6.05124">
        <ele>332.27</ele>
        <time>2018-07-15T09:39:59Z</time>
      </trkpt>
      <trkpt lat="47.26071" lon="6.05125">
        <ele>332.27</ele>
        <time>2018-07-15T09:40:00Z</time>
      </trkpt>
      <trkpt lat="47.26088" lon="6.05126">
        <ele>331.79</ele>
        <time>2018-07-15T09:40:02Z</time>
      </trkpt>
      <trkpt lat="47.26097" lon="6.05122">
        <ele>331.31</ele>
        <time>2018-07-15T09:40:03Z</time>
      </trkpt>
      <trkpt lat="47.26104" lon="6.05116">
        <ele>330.83</ele>
        <time>2018-07-15T09:40:04Z</time>
      </trkpt>
      <trkpt lat="47.26111" lon="6.05106">
        <ele>329.39</ele>
        <time>2018-07-15T09:40:05Z</time>
      </trkpt>
      <trkpt lat="47.26116" lon="6.05096">
        <ele>328.43</ele>
        <time>2018-07-15T09:40:06Z</time>
      </trkpt>
      <trkpt lat="47.26165" lon="6.05002">
        <ele>328.43</ele>
        <time>2018-07-15T09:40:16Z</time>
      </trkpt>
      <trkpt lat="47.26171" lon="6.04997">
        <ele>327.47</ele>
        <time>2018-07-15T09:40:17Z</time>
      </trkpt>
      <trkpt lat="47.26176" lon="6.04992">
        <ele>327.47</ele>
        <time>2018-07-15T09:40:18Z</time>
      </trkpt>
      <trkpt lat="47.26181" lon="6.04987">
        <ele>327.95</ele>
        <time>2018-07-15T09:40:19Z</time>
      </trkpt>
      <trkpt lat="47.26184" lon="6.04982">
        <ele>327.95</ele>
        <time>2018-07-15T09:40:20Z</time>
      </trkpt>
      <trkpt lat="47.26186" lon="6.04975">
        <ele>327.47</ele>
        <time>2018-07-15T09:40:21Z</time>
      </trkpt>
      <trkpt lat="47.26187" lon="6.04967">
        <ele>327.47</ele>
        <time>2018-07-15T09:40:22Z</time>
      </trkpt>
      <trkpt lat="47.26188" lon="6.0496">
        <ele>327.47</ele>
        <time>2018-07-15T09:40:23Z</time>
      </trkpt>
      <trkpt lat="47.26188" lon="6.04954">
        <ele>327.47</ele>
        <time>2018-07-15T09:40:24Z</time>
      </trkpt>
      <trkpt lat="47.26188" lon="6.04944">
        <ele>327.95</ele>
        <time>2018-07-15T09:40:28Z</time>
      </trkpt>
      <trkpt lat="47.26188" lon="6.04942">
        <ele>327.95</ele>
        <time>2018-07-15T09:40:29Z</time>
      </trkpt>
      <trkpt lat="47.2619" lon="6.0494">
        <ele>327.95</ele>
        <time>2018-07-15T09:40:30Z</time>
      </trkpt>
      <trkpt lat="47.26191" lon="6.04937">
        <ele>327.47</ele>
        <time>2018-07-15T09:40:31Z</time>
      </trkpt>
      <trkpt lat="47.26193" lon="6.04933">
        <ele>327.47</ele>
        <time>2018-07-15T09:40:32Z</time>
      </trkpt>
      <trkpt lat="47.26192" lon="6.04928">
        <ele>327.47</ele>
        <time>2018-07-15T09:40:33Z</time>
      </trkpt>
      <trkpt lat="47.2619" lon="6.04922">
        <ele>327.47</ele>
        <time>2018-07-15T09:40:34Z</time>
      </trkpt>
      <trkpt lat="47.26186" lon="6.04918">
        <ele>327.47</ele>
        <time>2018-07-15T09:40:35Z</time>
      </trkpt>
      <trkpt lat="47.26183" lon="6.04913">
        <ele>326.99</ele>
        <time>2018-07-15T09:40:36Z</time>
      </trkpt>
      <trkpt lat="47.26179" lon="6.04908">
        <ele>326.99</ele>
        <time>2018-07-15T09:40:37Z</time>
      </trkpt>
      <trkpt lat="47.26176" lon="6.04902">
        <ele>326.99</ele>
        <time>2018-07-15T09:40:38Z</time>
      </trkpt>
      <trkpt lat="47.26175" lon="6.04895">
        <ele>326.5</ele>
        <time>2018-07-15T09:40:39Z</time>
      </trkpt>
      <trkpt lat="47.26177" lon="6.04888">
        <ele>326.5</ele>
        <time>2018-07-15T09:40:40Z</time>
      </trkpt>
      <trkpt lat="47.2618" lon="6.04882">
        <ele>326.99</ele>
        <time>2018-07-15T09:40:41Z</time>
      </trkpt>
      <trkpt lat="47.26183" lon="6.04877">
        <ele>326.99</ele>
        <time>2018-07-15T09:40:42Z</time>
      </trkpt>
      <trkpt lat="47.26187" lon="6.04873">
        <ele>327.47</ele>
        <time>2018-07-15T09:40:43Z</time>
      </trkpt>
      <trkpt lat="47.2619" lon="6.04869">
        <ele>327.95</ele>
        <time>2018-07-15T09:40:44Z</time>
      </trkpt>
      <trkpt lat="47.262" lon="6.04855">
        <ele>327.95</ele>
        <time>2018-07-15T09:40:47Z</time>
      </trkpt>
      <trkpt lat="47.26213" lon="6.04834">
        <ele>328.91</ele>
        <time>2018-07-15T09:40:51Z</time>
      </trkpt>
      <trkpt lat="47.26216" lon="6.04829">
        <ele>328.91</ele>
        <time>2018-07-15T09:40:52Z</time>
      </trkpt>
      <trkpt lat="47.26222" lon="6.04817">
        <ele>329.39</ele>
        <time>2018-07-15T09:40:54Z</time>
      </trkpt>
      <trkpt lat="47.26223" lon="6.0481">
        <ele>329.39</ele>
        <time>2018-07-15T09:40:55Z</time>
      </trkpt>
      <trkpt lat="47.26223" lon="6.04803">
        <ele>329.87</ele>
        <time>2018-07-15T09:40:56Z</time>
      </trkpt>
      <trkpt lat="47.26219" lon="6.04684">
        <ele>329.87</ele>
        <time>2018-07-15T09:41:12Z</time>
      </trkpt>
      <trkpt lat="47.26216" lon="6.04661">
        <ele>329.87</ele>
        <time>2018-07-15T09:41:15Z</time>
      </trkpt>
      <trkpt lat="47.26216" lon="6.04653">
        <ele>330.35</ele>
        <time>2018-07-15T09:41:16Z</time>
      </trkpt>
      <trkpt lat="47.26217" lon="6.04615">
        <ele>330.35</ele>
        <time>2018-07-15T09:41:21Z</time>
      </trkpt>
      <trkpt lat="47.26218" lon="6.046">
        <ele>330.35</ele>
        <time>2018-07-15T09:41:23Z</time>
      </trkpt>
      <trkpt lat="47.26217" lon="6.04592">
        <ele>330.35</ele>
        <time>2018-07-15T09:41:24Z</time>
      </trkpt>
      <trkpt lat="47.26216" lon="6.04585">
        <ele>330.35</ele>
        <time>2018-07-15T09:41:25Z</time>
      </trkpt>
      <trkpt lat="47.26213" lon="6.04561">
        <ele>330.83</ele>
        <time>2018-07-15T09:41:28Z</time>
      </trkpt>
      <trkpt lat="47.26209" lon="6.0449">
        <ele>331.79</ele>
        <time>2018-07-15T09:41:37Z</time>
      </trkpt>
      <trkpt lat="47.26205" lon="6.04423">
        <ele>332.27</ele>
        <time>2018-07-15T09:41:46Z</time>
      </trkpt>
      <trkpt lat="47.26206" lon="6.04416">
        <ele>332.75</ele>
        <time>2018-07-15T09:41:47Z</time>
      </trkpt>
      <trkpt lat="47.26208" lon="6.04393">
        <ele>334.2</ele>
        <time>2018-07-15T09:41:51Z</time>
      </trkpt>
      <trkpt lat="47.26206" lon="6.0439">
        <ele>334.2</ele>
        <time>2018-07-15T09:41:52Z</time>
      </trkpt>
      <trkpt lat="47.26173" lon="6.0434">
        <ele>332.27</ele>
        <time>2018-07-15T09:42:06Z</time>
      </trkpt>
      <trkpt lat="47.2614" lon="6.04293">
        <ele>332.75</ele>
        <time>2018-07-15T09:42:20Z</time>
      </trkpt>
      <trkpt lat="47.26108" lon="6.04248">
        <ele>331.79</ele>
        <time>2018-07-15T09:42:33Z</time>
      </trkpt>
      <trkpt lat="47.261" lon="6.04235">
        <ele>331.79</ele>
        <time>2018-07-15T09:42:42Z</time>
      </trkpt>
      <trkpt lat="47.26103" lon="6.04234">
        <ele>333.23</ele>
        <time>2018-07-15T09:43:00Z</time>
      </trkpt>
      <trkpt lat="47.26104" lon="6.04233">
        <ele>330.35</ele>
        <time>2018-07-15T09:43:01Z</time>
      </trkpt>
      <trkpt lat="47.26104" lon="6.04233">
        <ele>331.79</ele>
        <time>2018-07-15T09:43:02Z</time>
      </trkpt>
    </trkseg>
  </trk>
</gpx>